[[{"header":{"parameterUnit":"m.s-1","parameterCategory":1,"la1":30.6,"la2":29.2853,"lo1":-89.7004,"lo2":-87.6739,"dy":0.0162,"dx":0.0183,"nx":112,"ny":82,"refTime":"2024-06-01T06:00:00:Z","depth":0,"parameterNumber":2,"parameterNumberName":"U-component_of_WINDS"},"data":[0.0,0.0,0.0,0.0,0.0,0.0,0.0,0.0,0.0,0.0,0.0,0.0,0.0,0.0,0.0,0.0,0.0,0.0,0.0,0.0,0.0,0.0,0.0,0.0,0.0,0.0,0.0,0.0,0.0,0.0,0.0,0.0,0.0,0.0,0.0,0.0,0.0,0.0,0.0,0.0,0.0,0.0,0.0,0.0,0.0,0.0,0.0,0.0,0.0,0.0,0.0,0.0,0.0,0.0,0.0,0.0,0.0,0.0,0.0,0.0,0.0,0.0,0.0,0.0,0.0,0.0,0.0,0.0,0.0,0.0,0.0,0.0,0.0,0.0,0.0,0.0,0.0,0.0,0.0,0.0,0.0,0.0,0.0,0.0,0.0,0.0,0.0,0.0,0.0,0.0,0.0,-4.1035,-4.3829,-4.5531,-4.5605,-4.41,-4.151,-3.7561,0.0,0.0,0.0,0.0,0.0,0.0,0.0,0.0,0.0,0.0,0.0,0.0,0.0,0.0,0.0,0.0,0.0,0.0,0.0,0.0,0.0,0.0,0.0,0.0,0.0,0.0,0.0,0.0,0.0,0.0,0.0,0.0,0.0,0.0,0.0,0.0,0.0,0.0,0.0,0.0,0.0,0.0,0.0,0.0,0.0,0.0,0.0,0.0,0.0,0.0,0.0,0.0,0.0,0.0,0.0,0.0,0.0,0.0,0.0,0.0,0.0,0.0,0.0,0.0,0.0,0.0,0.0,0.0,0.0,0.0,0.0,0.0,0.0,0.0,0.0,0.0,0.0,0.0,0.0,0.0,0.0,0.0,0.0,0.0,0.0,0.0,0.0,0.0,0.0,0.0,0.0,0.0,0.0,0.0,0.0,0.0,0.0,0.0,0.0,0.0,0.0,0.0,0.0,0.0,-3.8931,-4.4267,-4.5036,-4.5302,-4.5577,-4.377,-4.1102,-3.7533,0.0,0.0,0.0,0.0,0.0,0.0,0.0,0.0,0.0,0.0,0.0,0.0,0.0,0.0,0.0,0.0,0.0,0.0,0.0,0.0,0.0,0.0,0.0,0.0,0.0,0.0,0.0,0.0,0.0,0.0,0.0,0.0,0.0,0.0,0.0,0.0,0.0,0.0,0.0,0.0,0.0,0.0,0.0,0.0,0.0,0.0,0.0,0.0,0.0,0.0,0.0,0.0,0.0,0.0,0.0,0.0,0.0,0.0,0.0,0.0,0.0,0.0,0.0,0.0,0.0,0.0,0.0,0.0,0.0,0.0,0.0,0.0,0.0,0.0,0.0,0.0,0.0,0.0,0.0,0.0,0.0,0.0,0.0,0.0,0.0,0.0,0.0,0.0,0.0,0.0,0.0,0.0,0.0,0.0,0.0,0.0,0.0,0.0,0.0,0.0,0.0,0.0,0.0,-3.7161,-4.0027,-4.5056,-4.5457,-4.5352,-4.5332,-4.3615,-4.0969,-3.7258,-3.4004,0.0,0.0,0.0,0.0,0.0,0.0,0.0,0.0,0.0,0.0,0.0,0.0,0.0,0.0,0.0,0.0,0.0,0.0,0.0,0.0,0.0,0.0,0.0,0.0,0.0,0.0,0.0,0.0,0.0,0.0,0.0,0.0,0.0,0.0,0.0,0.0,0.0,0.0,0.0,0.0,0.0,0.0,0.0,0.0,0.0,0.0,0.0,0.0,0.0,0.0,0.0,0.0,0.0,0.0,0.0,0.0,0.0,0.0,0.0,0.0,0.0,0.0,0.0,0.0,0.0,0.0,0.0,0.0,0.0,0.0,0.0,0.0,0.0,0.0,0.0,0.0,0.0,0.0,0.0,0.0,0.0,0.0,0.0,0.0,0.0,0.0,0.0,0.0,0.0,0.0,0.0,0.0,0.0,0.0,0.0,0.0,0.0,0.0,0.0,0.0,0.0,0.0,-3.9565,-4.1593,-4.521,-4.5522,-4.539,-4.5118,-4.2999,-4.0224,-3.6796,-3.3139,0.0,0.0,0.0,0.0,0.0,0.0,0.0,0.0,0.0,0.0,0.0,0.0,0.0,0.0,0.0,0.0,0.0,0.0,0.0,0.0,0.0,0.0,0.0,0.0,0.0,0.0,0.0,0.0,0.0,0.0,0.0,0.0,0.0,0.0,0.0,0.0,0.0,0.0,0.0,0.0,0.0,0.0,0.0,0.0,0.0,0.0,0.0,0.0,0.0,0.0,0.0,0.0,0.0,0.0,0.0,0.0,0.0,0.0,0.0,0.0,0.0,0.0,0.0,0.0,0.0,0.0,0.0,0.0,0.0,0.0,0.0,0.0,0.0,0.0,0.0,0.0,0.0,0.0,0.0,0.0,0.0,0.0,0.0,0.0,0.0,0.0,0.0,0.0,0.0,0.0,0.0,0.0,0.0,0.0,0.0,0.0,0.0,0.0,0.0,0.0,0.0,0.0,-4.0373,-4.3547,-4.5402,-4.5322,-4.5137,-4.5096,-4.1338,-3.8106,-3.6088,-3.1477,0.0,0.0,0.0,0.0,0.0,0.0,0.0,0.0,0.0,0.0,0.0,0.0,0.0,0.0,0.0,0.0,0.0,0.0,0.0,0.0,0.0,0.0,0.0,0.0,0.0,0.0,0.0,0.0,0.0,0.0,0.0,0.0,0.0,0.0,0.0,0.0,0.0,0.0,0.0,0.0,0.0,0.0,0.0,0.0,0.0,0.0,0.0,0.0,0.0,0.0,0.0,0.0,0.0,0.0,0.0,0.0,0.0,0.0,0.0,0.0,0.0,0.0,0.0,0.0,0.0,0.0,0.0,0.0,0.0,0.0,0.0,0.0,0.0,0.0,0.0,0.0,0.0,0.0,0.0,0.0,0.0,0.0,0.0,0.0,0.0,0.0,0.0,0.0,0.0,0.0,0.0,0.0,0.0,0.0,0.0,0.0,0.0,0.0,0.0,0.0,0.0,0.0,-3.8757,-4.1978,0.0,-4.5495,-4.5112,-4.4353,-4.204,-3.9041,-3.5325,0.0,0.0,0.0,0.0,0.0,0.0,0.0,0.0,0.0,0.0,0.0,0.0,0.0,0.0,0.0,0.0,0.0,0.0,0.0,0.0,0.0,0.0,0.0,0.0,0.0,0.0,0.0,0.0,0.0,0.0,0.0,0.0,0.0,0.0,0.0,0.0,0.0,0.0,0.0,0.0,0.0,0.0,0.0,0.0,0.0,0.0,0.0,0.0,0.0,0.0,0.0,0.0,0.0,0.0,0.0,0.0,0.0,0.0,0.0,0.0,0.0,0.0,0.0,0.0,0.0,0.0,0.0,0.0,0.0,0.0,0.0,0.0,0.0,0.0,0.0,0.0,0.0,0.0,0.0,0.0,0.0,0.0,0.0,0.0,0.0,0.0,0.0,0.0,0.0,0.0,0.0,0.0,0.0,0.0,0.0,0.0,0.0,0.0,0.0,0.0,0.0,0.0,-3.4641,-3.8027,-4.1393,0.0,-4.519,-4.4814,-4.3887,-4.1576,-3.8503,-3.4566,0.0,0.0,0.0,0.0,0.0,0.0,0.0,0.0,0.0,0.0,0.0,0.0,0.0,0.0,0.0,0.0,0.0,0.0,0.0,0.0,0.0,0.0,0.0,0.0,0.0,0.0,0.0,0.0,0.0,0.0,0.0,0.0,0.0,0.0,0.0,0.0,0.0,0.0,0.0,0.0,0.0,0.0,0.0,0.0,0.0,0.0,0.0,0.0,0.0,0.0,0.0,0.0,0.0,0.0,0.0,0.0,0.0,0.0,0.0,0.0,0.0,0.0,0.0,0.0,0.0,0.0,0.0,0.0,0.0,0.0,0.0,0.0,0.0,0.0,0.0,0.0,0.0,0.0,0.0,0.0,0.0,0.0,0.0,0.0,0.0,0.0,0.0,0.0,0.0,0.0,0.0,0.0,0.0,0.0,0.0,0.0,0.0,0.0,0.0,0.0,0.0,0.0,-3.3975,-3.8642,-4.2431,-4.4105,-4.4297,-4.4143,-4.3791,-3.944,-3.5841,0.0,0.0,0.0,0.0,0.0,0.0,0.0,0.0,0.0,0.0,0.0,0.0,0.0,0.0,0.0,0.0,0.0,0.0,0.0,0.0,0.0,0.0,0.0,0.0,0.0,0.0,0.0,0.0,0.0,0.0,0.0,0.0,0.0,0.0,0.0,0.0,0.0,0.0,0.0,0.0,0.0,0.0,0.0,0.0,0.0,0.0,0.0,0.0,0.0,0.0,0.0,0.0,0.0,0.0,0.0,0.0,0.0,0.0,0.0,0.0,0.0,0.0,0.0,0.0,0.0,0.0,0.0,0.0,0.0,0.0,0.0,0.0,0.0,0.0,0.0,0.0,0.0,0.0,0.0,0.0,0.0,0.0,0.0,0.0,0.0,0.0,0.0,0.0,0.0,0.0,0.0,0.0,0.0,0.0,0.0,0.0,0.0,0.0,0.0,0.0,0.0,0.0,0.0,-3.3975,-3.8111,-4.1546,-4.3278,-4.3451,-4.2926,-4.1581,-3.9104,-3.6094,-3.2516,0.0,0.0,0.0,0.0,0.0,0.0,0.0,0.0,0.0,0.0,0.0,0.0,0.0,0.0,0.0,0.0,0.0,0.0,0.0,0.0,0.0,0.0,0.0,0.0,0.0,0.0,0.0,0.0,0.0,0.0,0.0,0.0,0.0,0.0,0.0,0.0,0.0,0.0,0.0,0.0,0.0,0.0,0.0,0.0,0.0,0.0,0.0,0.0,0.0,0.0,0.0,0.0,0.0,0.0,0.0,0.0,0.0,0.0,0.0,0.0,0.0,0.0,0.0,0.0,0.0,0.0,0.0,0.0,0.0,0.0,0.0,0.0,0.0,0.0,0.0,0.0,0.0,0.0,0.0,0.0,0.0,0.0,0.0,0.0,0.0,0.0,0.0,0.0,0.0,0.0,0.0,0.0,0.0,0.0,0.0,0.0,0.0,0.0,0.0,0.0,0.0,0.0,-3.3468,-3.7399,-4.0689,-4.2393,-4.2585,-4.2027,-4.0612,-3.895,-3.6199,-3.1968,0.0,0.0,0.0,0.0,0.0,0.0,0.0,0.0,0.0,0.0,0.0,0.0,0.0,0.0,0.0,0.0,0.0,0.0,0.0,0.0,0.0,0.0,0.0,0.0,0.0,0.0,0.0,0.0,0.0,0.0,0.0,0.0,0.0,0.0,0.0,0.0,0.0,0.0,0.0,0.0,0.0,0.0,0.0,0.0,0.0,0.0,0.0,0.0,0.0,0.0,0.0,0.0,0.0,0.0,0.0,0.0,0.0,0.0,0.0,0.0,0.0,0.0,0.0,0.0,0.0,0.0,0.0,0.0,0.0,0.0,0.0,0.0,0.0,0.0,0.0,0.0,0.0,0.0,0.0,0.0,0.0,0.0,0.0,0.0,0.0,0.0,0.0,0.0,0.0,0.0,0.0,0.0,0.0,0.0,0.0,0.0,0.0,0.0,0.0,0.0,0.0,0.0,-3.2679,-3.6584,-3.9815,-4.1508,-4.1681,-4.1296,-4.0342,-3.8796,-3.6103,-3.1968,0.0,0.0,0.0,0.0,0.0,0.0,0.0,0.0,0.0,0.0,0.0,0.0,0.0,0.0,0.0,0.0,0.0,0.0,0.0,0.0,0.0,0.0,0.0,0.0,0.0,0.0,0.0,0.0,0.0,0.0,0.0,0.0,0.0,0.0,0.0,0.0,0.0,0.0,0.0,0.0,0.0,0.0,0.0,0.0,0.0,0.0,0.0,0.0,0.0,0.0,0.0,0.0,0.0,0.0,0.0,0.0,0.0,0.0,0.0,0.0,-3.7187,0.0,0.0,0.0,0.0,0.0,0.0,0.0,0.0,0.0,0.0,0.0,0.0,0.0,0.0,0.0,0.0,0.0,0.0,0.0,0.0,0.0,0.0,0.0,0.0,0.0,0.0,0.0,0.0,0.0,0.0,0.0,0.0,0.0,0.0,0.0,0.0,0.0,0.0,0.0,0.0,0.0,-3.2679,-3.6045,-3.8911,-4.0612,-4.0785,-4.0162,-3.8661,-3.7584,-3.5468,-3.1929,0.0,0.0,0.0,0.0,0.0,0.0,0.0,0.0,0.0,0.0,0.0,0.0,0.0,0.0,0.0,0.0,0.0,0.0,0.0,0.0,0.0,0.0,0.0,0.0,0.0,0.0,0.0,0.0,0.0,0.0,0.0,0.0,0.0,0.0,0.0,0.0,0.0,0.0,0.0,0.0,0.0,0.0,0.0,0.0,0.0,0.0,0.0,0.0,0.0,0.0,0.0,0.0,0.0,0.0,0.0,0.0,0.0,0.0,0.0,0.0,0.0,-3.8496,0.0,0.0,0.0,0.0,0.0,0.0,0.0,0.0,0.0,0.0,0.0,0.0,0.0,0.0,0.0,0.0,0.0,0.0,0.0,0.0,0.0,0.0,0.0,0.0,0.0,0.0,0.0,0.0,0.0,0.0,0.0,0.0,0.0,0.0,0.0,0.0,0.0,0.0,0.0,0.0,-3.2679,-3.5892,-3.8642,-4.0323,-4.015,-3.94,-3.8104,-3.7199,-3.5269,-3.191,-3.0467,0.0,0.0,0.0,0.0,0.0,0.0,0.0,0.0,0.0,0.0,0.0,0.0,0.0,0.0,0.0,0.0,0.0,0.0,0.0,0.0,0.0,0.0,0.0,0.0,0.0,0.0,0.0,0.0,0.0,0.0,0.0,0.0,0.0,0.0,0.0,0.0,0.0,0.0,0.0,0.0,0.0,0.0,0.0,0.0,0.0,0.0,0.0,0.0,0.0,0.0,0.0,0.0,0.0,0.0,-4.6034,-4.6758,-4.6758,-4.6758,-4.6562,-4.3008,-4.1914,-4.2402,0.0,0.0,0.0,0.0,0.0,0.0,0.0,0.0,0.0,0.0,0.0,0.0,0.0,0.0,0.0,0.0,0.0,0.0,0.0,0.0,0.0,0.0,0.0,0.0,0.0,-3.5218,-3.5161,0.0,0.0,0.0,0.0,0.0,0.0,0.0,0.0,0.0,0.0,0.0,0.0,-3.2891,-3.5988,-3.8584,-4.0131,-3.9708,-3.8892,-3.7853,-3.7123,-3.5385,-3.2333,-3.1852,-3.0038,0.0,0.0,0.0,0.0,0.0,0.0,0.0,0.0,0.0,0.0,0.0,0.0,0.0,0.0,0.0,0.0,0.0,0.0,0.0,0.0,0.0,0.0,0.0,0.0,0.0,0.0,0.0,0.0,0.0,0.0,0.0,0.0,-3.6565,-3.8419,0.0,0.0,0.0,0.0,0.0,0.0,0.0,0.0,0.0,0.0,0.0,0.0,0.0,0.0,-4.6508,-4.6557,-4.7108,-4.8198,-4.8196,-4.8325,-4.8555,-4.8555,-4.8555,-4.8535,-4.7969,0.0,-4.3437,-4.2226,0.0,0.0,0.0,0.0,0.0,0.0,0.0,0.0,0.0,0.0,0.0,0.0,0.0,0.0,0.0,0.0,0.0,0.0,0.0,0.0,0.0,0.0,-3.9786,-3.9552,-3.915,-3.843,0.0,-3.4122,-3.1564,-3.1121,0.0,0.0,0.0,0.0,0.0,0.0,0.0,0.0,-3.3725,-3.6353,-3.8373,-3.9361,-3.9361,-3.8642,-3.7,-3.6769,-3.5892,-3.3994,-3.2506,-3.1115,-2.9788,-2.7,0.0,0.0,0.0,0.0,0.0,0.0,0.0,0.0,0.0,0.0,0.0,0.0,0.0,0.0,0.0,0.0,0.0,0.0,0.0,0.0,0.0,0.0,0.0,0.0,0.0,0.0,0.0,0.0,0.0,-3.6488,-3.9296,-4.0566,-4.0796,-4.0335,0.0,0.0,0.0,0.0,0.0,0.0,0.0,0.0,0.0,-4.6726,-4.7588,-4.8613,-4.983,-4.9917,-5.0415,-5.1334,-5.1479,-5.1601,-5.1642,-5.1228,-5.1035,-5.0976,-5.0039,-4.8769,-4.7168,-4.4824,-4.293,-4.1289,0.0,0.0,0.0,0.0,0.0,-3.8984,-4.0527,0.0,0.0,0.0,0.0,0.0,0.0,0.0,0.0,0.0,0.0,0.0,0.0,0.0,0.0,-4.1859,-4.1316,-4.0604,-4.0219,-3.795,-3.5391,0.0,-3.2872,-3.1814,-2.905,0.0,0.0,0.0,0.0,0.0,-3.3994,-3.6007,-3.7603,-3.8469,-3.8123,-3.7526,-3.675,-3.6288,-3.5288,-3.3583,-3.2776,-3.1564,-2.9737,-2.8236,-2.6601,0.0,0.0,0.0,0.0,0.0,0.0,0.0,0.0,0.0,0.0,0.0,0.0,0.0,0.0,0.0,0.0,0.0,0.0,0.0,0.0,0.0,0.0,0.0,0.0,0.0,0.0,0.0,0.0,-3.9046,-4.147,-4.2335,-4.3412,-4.3393,0.0,0.0,0.0,0.0,0.0,0.0,-4.6787,-4.7721,-4.8768,-5.0054,-5.095,-5.1806,-5.267,-5.2542,-5.2945,-5.3838,-5.381,-5.3821,-5.3836,-5.3044,-5.2695,-5.2617,-5.1152,-5.0391,-4.998,-4.7168,-4.5351,-4.418,-4.2285,-4.1269,0.0,-4.1601,-4.1562,-4.1562,-4.4121,-4.457,-4.3867,-4.2832,0.0,-4.0059,-3.7461,0.0,0.0,0.0,0.0,-3.9572,-4.0519,0.0,-4.2736,-4.3553,-4.2912,-4.2143,-4.2143,-4.0796,-3.8784,0.0,-3.568,-3.4731,-3.1314,0.0,0.0,0.0,0.0,-3.3295,-3.4391,-3.5795,-3.6942,-3.7603,-3.7084,-3.6615,-3.6404,-3.5635,-3.4603,-3.3314,-3.2833,-3.1737,-2.9838,-2.9146,-2.789,-2.6,0.0,0.0,0.0,0.0,0.0,0.0,0.0,0.0,0.0,0.0,0.0,0.0,0.0,0.0,0.0,0.0,0.0,0.0,0.0,0.0,0.0,0.0,0.0,0.0,0.0,0.0,0.0,0.0,0.0,-4.4085,-4.5682,0.0,0.0,0.0,0.0,-4.6577,-4.8086,-4.9433,-5.0385,-5.1221,-5.1759,-5.1954,-5.2806,-5.3746,-5.4736,-5.3934,-5.4035,-5.4992,-5.4187,-5.3867,-5.3965,-5.3086,-5.2695,-5.2656,-5.1738,-5.0918,-5.0117,-4.9121,-4.7695,-4.6152,-4.6035,-4.4961,-4.3516,-4.3555,-4.4062,-4.4766,-4.4941,-4.4961,-4.5058,-4.5801,-4.4336,-4.2246,-4.207,-4.0898,0.0,0.0,-4.1504,-4.2532,-4.4031,-4.4495,-4.4704,-4.5321,-4.422,-4.3028,-4.3028,-4.1662,-4.0169,0.0,-3.7738,-3.6327,-3.5346,0.0,-3.2756,-3.266,-3.2795,-3.3506,-3.5212,-3.6173,-3.6712,-3.675,-3.6731,-3.6385,-3.5635,-3.4757,-3.4225,-3.4148,-3.2641,-3.1698,-3.1564,-2.9256,-2.7895,-2.778,-2.5356,0.0,0.0,0.0,0.0,0.0,0.0,0.0,0.0,0.0,0.0,0.0,0.0,0.0,0.0,0.0,0.0,0.0,0.0,0.0,0.0,0.0,0.0,0.0,0.0,0.0,0.0,0.0,0.0,-4.7413,-4.9086,0.0,-4.8529,-4.8971,-4.9567,-5.0077,-5.0673,-5.1625,-5.3068,-5.3414,-5.41,-5.522,-5.5008,-5.5316,-5.6237,-5.5467,-5.5268,-5.5617,-5.5517,-5.5506,-5.5524,-5.4724,-5.4062,-5.3496,-5.2617,-5.1758,-5.0957,-5.0644,-4.918,-4.7148,-4.7148,-4.6406,-4.5371,-4.5371,-4.5566,-4.584,-4.584,-4.584,-4.5801,-4.5547,-4.4824,-4.3965,-4.3418,-4.2812,-4.2402,-4.2715,-4.3355,-4.4069,-4.4569,-4.5055,-4.5441,-4.5566,-4.472,-4.372,-4.3201,-4.2162,-4.1085,-4.0246,-3.9142,-3.793,-3.65,-3.6219,-3.5622,-3.3968,-3.4641,-3.5385,-3.5481,-3.575,-3.5923,-3.5923,-3.5923,-3.5577,-3.4737,-3.4379,-3.3506,-3.1872,-3.1192,-3.0385,-2.9294,-2.8371,-2.764,-2.7063,-2.562,-2.3755,0.0,0.0,0.0,0.0,0.0,0.0,0.0,0.0,0.0,0.0,0.0,0.0,0.0,0.0,0.0,0.0,0.0,0.0,0.0,0.0,0.0,0.0,0.0,0.0,0.0,0.0,-4.8375,-5.0048,-5.1741,-5.2568,-5.2029,-5.2501,-5.3049,-5.3587,-5.3885,-5.4568,-5.5722,-5.578,-5.6304,-5.7456,-5.6656,-5.6503,-5.7128,-5.643,-5.6071,-5.6077,-5.6348,-5.6479,-5.6442,-5.5662,-5.4824,-5.3945,-5.3086,-5.2207,-5.1406,-5.1406,-5.0254,-4.8457,-4.8144,-4.7519,-4.6699,-4.6406,-4.6308,-4.6308,-4.6308,-4.6308,-4.6191,-4.5625,-4.5449,-4.5332,-4.4746,-4.457,-4.457,-4.457,-4.4937,-4.5283,-4.5196,-4.5497,-4.5802,-4.57,-4.476,-4.3739,-4.322,-4.2181,-4.1181,-4.0612,-4.0073,-3.9342,-3.818,-3.8238,-3.7873,-3.6168,-3.6622,-3.6846,-3.6,-3.5904,-3.5808,-3.5538,-3.55,-3.5154,-3.4263,-3.3936,-3.2929,-3.0962,-3.0288,-2.9467,-2.8357,-2.7755,-2.7198,-2.6621,-2.5486,-2.3928,-2.1927,0.0,0.0,0.0,0.0,0.0,0.0,0.0,0.0,0.0,0.0,0.0,0.0,0.0,0.0,0.0,0.0,0.0,0.0,0.0,0.0,0.0,0.0,0.0,-4.5729,-4.7913,-5.0144,-5.1808,-5.353,-5.4587,-5.4626,-5.6099,-5.7041,-5.7041,-5.7819,-5.83,-5.83,-5.83,-5.8361,-5.8523,-5.7688,-5.73,-5.7434,-5.6765,-5.6403,-5.6405,-5.6536,-5.6601,-5.6562,-5.5723,-5.4844,-5.3945,-5.3105,-5.2226,-5.1406,-5.1406,-5.0937,-5.0156,-4.9258,-4.8379,-4.748,-4.6621,-4.6308,-4.6308,-4.6308,-4.6308,-4.6308,-4.6308,-4.6308,-4.6308,-4.6308,-4.6308,-4.6308,-4.6308,-4.6308,-4.6268,-4.6122,-4.5998,-4.5896,-4.5821,-4.4445,-4.3132,-4.3104,-4.1739,-4.0535,-4.0516,-4.0496,-4.0496,-4.0496,-3.9842,-3.9323,-3.9304,-3.8584,0.0,-3.6808,-3.6692,-3.6385,-3.5596,-3.55,-3.5154,-3.4263,-3.3391,-3.2526,-3.1679,-3.0006,-2.905,-2.9011,-2.7467,-2.6601,-2.6601,-2.4971,-2.3701,-2.2836,0.0,0.0,0.0,0.0,0.0,0.0,0.0,0.0,0.0,0.0,0.0,0.0,0.0,0.0,0.0,0.0,0.0,0.0,0.0,0.0,0.0,0.0,-4.8355,-4.8355,-5.0548,-5.2779,-5.4453,-5.5626,-5.6549,-5.7184,-5.7665,-5.7934,-5.7934,-5.8165,-5.83,-5.83,-5.83,-5.8583,-5.9218,-5.8428,-5.8026,-5.8057,-5.7335,-5.6743,-5.6266,-5.6386,-5.6511,-5.6582,-5.6348,-5.543,-5.3984,-5.375,-5.2793,-5.1406,-5.1406,-5.1269,-5.0937,-4.9473,-4.8379,-4.748,-4.6621,-4.6308,-4.6308,-4.6308,-4.6308,-4.6308,-4.6308,-4.6308,-4.6308,-4.6308,-4.6308,-4.6308,-4.6308,-4.6308,-4.6268,-4.6122,-4.6077,-4.6008,-4.5852,-4.4931,-4.3933,-4.3253,-4.2239,-4.1258,-4.0631,-4.0496,-4.0496,-4.0496,-4.0323,-3.9977,-3.94,0.0,0.0,-3.6885,-3.6692,-3.6385,-3.5596,-3.55,-3.5154,-3.4263,-3.3391,-3.2025,0.0,-2.8819,-2.7953,-2.7313,-2.6832,-2.6601,-2.6601,-2.5524,-2.4562,0.0,0.0,0.0,0.0,0.0,0.0,0.0,0.0,0.0,0.0,0.0,0.0,0.0,0.0,0.0,0.0,0.0,0.0,0.0,0.0,0.0,0.0,-4.9086,-5.1125,-5.1491,-5.2818,-5.4491,-5.6549,-5.7242,-5.8011,-5.9223,-5.9358,-5.9358,-5.9358,-5.9358,-5.9358,-5.9358,-5.9358,-5.955,-6.0031,-5.9242,-5.88,-5.88,-5.7728,-5.7005,-5.6615,-5.6465,-5.645,-5.6514,-5.6562,-5.5644,0.0,-5.4004,-5.3008,-5.1406,-5.1406,-5.1406,0.0,0.0,0.0,0.0,0.0,-4.6308,-4.6308,-4.6308,-4.6308,-4.6308,-4.6308,-4.6308,-4.6308,-4.6308,-4.6308,-4.6308,-4.6308,-4.6308,-4.6289,-4.6201,-4.6145,-4.6069,-4.5942,-4.4916,-4.3802,-4.3267,-4.2148,-4.1104,-4.0593,0.0,0.0,-4.0496,-4.0496,-4.0342,-3.9881,-3.9804,-3.9181,0.0,-3.7238,-3.6788,-3.5615,-3.55,-3.5154,-3.4263,-3.3391,0.0,0.0,0.0,-2.803,-2.7178,-2.714,0.0,0.0,0.0,0.0,0.0,0.0,0.0,0.0,-2.4562,-2.4803,0.0,0.0,0.0,0.0,0.0,0.0,0.0,0.0,0.0,0.0,0.0,0.0,0.0,0.0,0.0,0.0,-5.1375,-5.3799,-5.4664,-5.4876,-5.5761,-5.803,-5.8377,-5.9069,-6.0646,-6.08,-6.08,-6.08,-6.08,-6.08,-6.08,0.0,0.0,0.0,0.0,-5.9608,-5.9492,-5.8143,-5.7362,-5.7193,-5.6714,-5.6449,-5.6391,-5.6515,-5.5683,-5.4141,-5.4043,-5.3066,-5.1543,-5.1445,-5.1289,-5.0976,-4.9473,-4.8789,-4.8418,-4.6875,-4.6308,0.0,0.0,0.0,0.0,-4.6308,-4.6308,-4.6308,-4.6308,-4.6308,-4.6308,-4.6308,-4.6308,-4.6308,-4.6308,-4.6202,-4.6097,-4.5974,-4.4581,-4.3203,-4.3102,-4.1731,-4.0527,-4.0527,-4.0512,-4.0496,-4.0496,-4.0496,-4.0496,-4.0496,-4.0496,0.0,-3.8354,-3.8065,-3.7392,-3.5808,0.0,0.0,-3.441,-3.3545,-3.266,-3.1756,-3.0063,-2.878,-2.8068,-2.8126,-2.8145,-2.8049,-2.8049,-2.7992,-2.7895,-2.7992,-2.8049,-2.8011,-2.7159,-2.7159,0.0,0.0,0.0,0.0,0.0,0.0,0.0,0.0,0.0,0.0,0.0,0.0,0.0,0.0,0.0,-5.1798,-5.3895,-5.5511,-5.6387,-5.7126,-5.7761,-5.8242,-5.8877,-5.9665,-6.0704,-6.08,-6.08,-6.08,-6.08,-6.08,-6.08,-6.08,0.0,-6.08,-6.0627,-6.0204,-5.9511,-5.9202,-5.8432,-5.7193,0.0,0.0,-5.6391,-5.6424,-5.5923,-5.5019,-5.4316,-5.3418,-5.2383,-5.1699,-5.0605,-4.9355,-4.9023,-4.8047,-4.6758,-4.6426,-4.6308,-4.6308,-4.6308,-4.6308,-4.6308,-4.6308,-4.6308,-4.6308,-4.6308,-4.6308,0.0,-4.6308,-4.6308,-4.6308,-4.6308,-4.6289,-4.6069,-4.524,-4.4278,-4.3305,-4.2497,-4.1438,-4.0655,-4.0655,-4.0561,-4.0496,-4.0496,-4.0496,-4.0496,-4.0496,-4.0496,-4.015,-3.9169,-3.843,-3.7603,-3.6577,-3.5885,-3.5423,-3.525,-3.4449,-3.3314,-3.1795,-3.0063,-2.903,-2.8876,-2.9544,-2.9583,-2.8876,-2.8876,-2.8549,-2.7895,-2.8549,-2.8876,-2.8857,-2.803,-2.7741,0.0,0.0,0.0,0.0,0.0,0.0,0.0,0.0,0.0,0.0,0.0,-4.574,0.0,0.0,-5.2491,-5.4184,-5.5895,-5.7146,-5.7588,-5.8377,-5.8896,-5.8896,-5.9261,-5.9838,-6.0723,-6.08,-6.08,-6.08,-6.08,-6.08,-6.08,-6.08,-6.08,-6.08,-6.08,-6.0589,-6.0146,-5.9723,-5.8905,-5.7748,-5.7385,-5.6837,-5.6153,-5.6312,-5.596,-5.5163,-5.4354,-5.3516,-5.2598,-5.1328,-5.0058,-4.8867,-4.8418,-4.7441,-4.6308,-4.6308,-4.6308,-4.6308,-4.6308,-4.6308,-4.6308,-4.6308,-4.6308,-4.6308,-4.6308,-4.6308,-4.6308,-4.6308,-4.6308,-4.6308,-4.6308,-4.5976,-4.5527,-4.5012,-4.3904,-4.2807,-4.232,-4.1412,-4.0697,-4.0697,-4.0582,-4.0496,-4.0496,-4.0496,-4.0496,-4.0496,-4.0496,-4.0208,-3.94,-3.8546,-3.768,-3.6788,-3.5981,-3.55,-3.55,-3.4295,-3.3026,-3.1775,-3.0467,-2.9756,-2.9756,-3.0173,-3.0192,-2.9756,-2.9756,-2.9544,-2.9159,-2.9544,-2.9756,-2.9756,-2.9794,-2.9794,0.0,0.0,0.0,0.0,0.0,0.0,0.0,0.0,-4.3662,-4.5883,-4.7663,-4.9519,-5.1731,-5.3568,-5.4991,-5.5818,-5.7396,-5.8531,-5.8531,-5.9088,-5.9492,-5.9492,-5.9646,-6.0031,-6.0723,-6.08,-6.08,-6.08,-6.08,-6.08,-6.08,-6.08,-6.08,-6.08,-6.08,-6.08,-6.08,-6.0108,-5.9261,-5.83,-5.7709,-5.688,-5.5912,-5.6173,-5.5844,-5.5006,-5.4108,-5.3222,-5.2324,-5.082,-4.9687,-4.8808,-4.7949,-4.707,-4.6308,-4.6308,-4.6308,-4.6308,-4.6308,-4.6308,-4.6308,-4.6308,-4.6308,-4.6308,-4.6308,-4.6308,-4.6308,-4.6308,-4.6308,-4.6308,-4.6308,-4.5644,-4.4961,-4.4785,-4.3509,-4.228,-4.2123,-4.1383,-4.0766,-4.0766,-4.0642,-4.053,-4.053,-4.0519,-4.0496,-4.0496,-4.0496,-4.0208,-3.94,-3.8546,-3.768,-3.6788,-3.5981,-3.55,-3.55,-3.4064,-3.2795,-3.1987,-3.1135,-3.0577,-3.0404,-3.0404,-3.0404,-3.0404,-3.0404,-3.0404,-3.0404,-3.0404,-3.0404,-3.0423,-3.1288,-3.1698,-3.7623,-3.8277,-3.9207,-4.0015,-4.1373,-4.3143,0.0,0.0,-4.7702,-4.8759,-5.0317,-5.1788,-5.2856,-5.4434,-5.5838,-5.6714,-5.8261,-5.9377,-5.9377,-5.9435,-5.9492,-5.9492,-6.0185,-6.0685,-6.0781,-6.08,-6.08,-6.08,-6.08,-6.08,-6.08,-6.08,-6.08,-6.08,-6.08,-6.08,-6.08,-6.0704,-5.9858,-5.83,-5.8218,-5.7371,-5.5904,-5.5951,-5.5579,-5.4845,-5.3312,-5.2232,-5.1484,-5.0566,-4.9687,-4.8808,-4.7949,-4.707,-4.6308,-4.6308,-4.6308,-4.6308,-4.6308,-4.6308,-4.6308,-4.6308,-4.6308,-4.6308,-4.6308,-4.6308,-4.6308,-4.6308,-4.6308,-4.6308,-4.6308,-4.5644,-4.4805,-4.4023,-4.3105,-4.2187,-4.1484,-4.1133,-4.0976,-4.0976,-4.0818,-4.0674,-4.0674,-4.0588,-4.0496,-4.0496,-4.0496,-4.0208,-3.94,-3.8546,-3.768,-3.6788,-3.5981,-3.55,-3.55,-3.4603,-3.3686,-3.2814,-3.2006,-3.1212,-3.0423,-3.0404,-3.0404,-3.0404,-3.0404,-3.0404,-3.0404,-3.0404,-3.0404,-3.0423,-3.1288,-3.1698,-4.1258,-4.1585,-4.195,-4.3778,-4.4778,-4.572,-4.7259,-4.8644,-4.9856,-5.0683,-5.2222,-5.3664,-5.4491,-5.6069,-5.7338,0.0,-5.9165,-6.0262,-6.0262,-5.9819,-5.9492,-5.9492,-5.9415,-5.9531,-5.9992,-6.0031,-6.0242,-6.0762,-6.08,-6.08,-6.08,-6.08,-6.08,-6.08,-6.08,-6.08,-6.08,-6.03,-5.9454,-5.83,-5.778,-5.6922,-5.5779,-5.5857,-5.5307,-5.4211,-5.3546,-5.2557,-5.1348,-5.0527,-4.9687,-4.8808,-4.7949,-4.707,-4.6308,-4.6308,-4.6308,-4.6308,-4.6308,-4.6308,-4.6308,-4.6308,-4.6308,-4.6308,-4.6308,-4.6308,-4.6308,-4.6308,-4.6308,-4.6308,-4.6308,-4.5644,-4.4785,-4.3906,-4.3027,-4.2187,-4.1367,-4.1083,-4.0996,-4.0996,-4.0873,-4.0762,-4.0762,-4.069,-4.0616,-4.0616,-4.0545,-4.0208,-3.94,-3.8546,-3.7488,-3.6135,-3.5692,-3.55,-3.55,-3.4699,-3.384,-3.2968,-3.2141,-3.1308,-3.0442,-3.0404,-3.0404,-3.0404,-3.0404,-3.0404,-3.0404,-3.0404,-3.0404,-3.0423,-3.1775,-3.2391,-4.322,-4.3874,-4.4528,-4.6144,-4.7067,-4.774,-4.8336,-4.9798,-5.1202,-5.1769,-5.3106,-5.4395,-5.5222,-5.6588,-5.7742,-5.8223,-5.9492,-6.0531,-6.0762,-5.9858,-5.9165,-5.9165,-5.8223,-5.7915,-5.8723,-5.9223,-5.9858,-6.0723,-6.08,-6.08,-6.08,-6.08,-6.08,-6.08,-6.08,-6.08,-6.08,-5.9935,-5.9108,-5.83,-5.7415,-5.6541,-5.5695,-5.5576,-5.4858,-5.3677,-5.3474,-5.2611,-5.1305,-5.0761,-4.9883,-4.8848,-4.8203,-4.7285,-4.6308,-4.6308,-4.6308,-4.6308,-4.6308,-4.6308,-4.6308,-4.6308,-4.6308,-4.6308,-4.6308,-4.6308,-4.6308,-4.6308,-4.6308,-4.6308,-4.6308,-4.5644,-4.4785,-4.3906,-4.3027,-4.2187,-4.1367,-4.1127,-4.1054,-4.1054,-4.0952,-4.0857,-4.0857,-4.077,-4.0729,-4.0703,-4.0616,-4.0152,-3.9073,-3.7988,-3.6853,-3.5635,-3.55,-3.55,-3.55,-3.493,-3.418,-3.3314,-3.2718,-3.191,-3.0808,-3.075,-3.0654,-3.0404,-3.0404,-3.0519,-3.075,-3.075,-3.0865,-3.1115,-3.2583,-3.3256,-4.2297,-4.4269,-4.6605,-4.5825,-4.749,-4.9336,-4.9356,-5.0664,-5.1865,-5.1885,-5.2596,-5.351,-5.4376,-5.5222,-5.6319,-5.803,-5.9011,-5.9838,-6.0685,-5.9377,-5.8338,-5.8338,-5.6819,-5.6107,0.0,-5.855,-5.9858,-6.0723,-6.08,-6.08,-6.08,-6.08,-6.08,-6.08,-6.08,-6.08,-6.08,-5.9935,-5.9108,-5.83,-5.7415,-5.6541,-5.5665,-5.4906,-5.413,-5.3371,-5.2663,-5.19,-5.121,-5.1324,-5.0391,-4.8906,-4.8867,-4.7812,-4.6308,-4.6308,-4.6308,-4.6308,-4.6308,-4.6308,-4.6308,-4.6308,-4.6308,-4.6308,-4.6308,-4.6308,-4.6308,-4.6308,-4.6308,-4.6308,-4.6308,-4.5644,-4.4785,-4.3906,-4.3027,-4.2187,-4.1367,-4.1191,-4.1191,-4.1191,-4.1081,-4.0994,-4.0994,-4.0877,-4.0775,-4.0701,-4.0692,-4.0056,-3.826,-3.6596,-3.5558,-3.5519,-3.55,-3.55,-3.55,-3.5481,-3.5084,-3.4225,-3.4148,-3.3372,-3.1737,-3.166,-3.125,-3.0423,-3.0404,-3.0827,-3.166,-3.166,-3.2064,-3.2852,-3.3744,-3.4167,-4.4961,-4.6112,-4.721,-4.7939,-4.8759,-4.9548,-5.0125,-5.1106,-5.175,-5.1202,-5.176,-5.2423,-5.2712,-5.3933,-5.5453,-5.7146,-5.8607,-5.98,-6.0685,-5.9819,-5.8896,-5.8357,-5.7261,0.0,0.0,0.0,0.0,-5.9838,-5.9935,-6.0185,-6.0762,-6.08,-6.08,-6.08,-6.08,-6.08,-6.08,-5.9415,-5.8569,-5.828,-5.6819,-5.5972,-5.5665,-5.4876,-5.4092,-5.334,-5.2535,-5.1804,-5.1204,-5.1242,-5.0324,-4.8906,-4.8906,-4.7832,-4.6308,-4.6308,-4.6308,-4.6308,-4.6308,-4.6308,-4.6308,-4.6308,-4.6308,-4.6308,-4.6308,-4.6308,-4.6308,-4.6308,-4.6308,-4.6308,-4.6308,-4.6074,-4.5508,-4.4043,-4.3476,-4.2871,-4.1504,-4.1191,-4.1191,-4.1191,-4.1151,-4.1129,-4.1129,-4.1023,-4.0899,-4.0779,-3.9718,-3.8695,-3.8072,-3.6538,-3.55,-3.55,-3.55,-3.55,-3.55,-3.55,-3.5141,-3.4263,-3.4205,-3.3686,-3.2545,-3.2506,-3.2352,-3.2064,-3.2064,-3.2199,-3.2506,-3.2506,-3.2641,-3.291,-3.3801,-3.4205,-4.6299,-4.7301,-4.8222,-4.9217,-4.9671,-5.001,-5.0577,-5.0856,-5.0856,-5.0337,-5.0394,-5.0635,-5.0952,-5.1914,-5.3433,-5.5733,-5.7242,-5.8665,-6.0127,-5.9858,-5.9319,-5.88,-5.7973,-5.7453,0.0,0.0,0.0,-5.9396,-5.9781,-6.0204,-6.0762,-6.08,-6.08,-6.08,-6.08,-6.08,-6.08,-5.9146,-5.7992,-5.7357,-5.6242,-5.5549,-5.5241,-5.4741,-5.3909,-5.284,-5.2322,-5.1716,-5.1094,-5.1163,-5.0266,-4.8822,-4.8886,-4.7832,-4.6308,-4.6308,-4.6308,-4.6308,-4.6308,-4.6308,-4.6308,-4.6308,-4.6308,-4.6308,-4.6308,-4.6308,-4.6308,-4.6308,-4.6308,-4.6308,-4.6308,-4.6308,-4.5859,-4.4101,-4.3691,-4.3242,-4.1562,-4.1191,-4.1191,-4.1191,-4.1191,-4.1191,-4.1191,-4.1082,-4.0964,-4.0877,-3.9287,-3.8105,-3.8067,-3.6582,-3.5534,-3.5507,-3.55,-3.55,-3.55,-3.55,-3.525,-3.4699,-3.4661,-3.4276,-3.3391,-3.3353,-3.3218,-3.291,-3.2891,-3.3045,-3.3353,-3.3353,-3.3526,-3.3833,-3.4391,-3.4661,-4.6391,-4.7944,-4.9736,-4.9676,-5.0218,-5.075,-5.0654,-4.999,-4.9375,-4.9279,-4.8606,-4.8279,0.0,0.0,-5.0491,-5.3837,-5.5145,-5.6646,-5.9146,-5.955,-5.955,0.0,0.0,0.0,0.0,0.0,0.0,-5.9435,0.0,-6.0742,-6.08,-6.08,-6.08,-6.08,-6.08,-6.0781,-6.0723,-5.9069,-5.7376,-5.5703,-5.5703,-5.528,-5.4491,-5.4453,-5.351,-5.1905,-5.1979,-5.159,-5.0918,-5.1109,-5.0204,-4.8706,-4.8844,-4.7832,-4.6308,-4.6308,-4.6308,-4.6308,-4.6308,-4.6308,-4.6308,-4.6308,-4.6308,-4.6308,-4.6308,-4.6308,-4.6308,-4.6308,-4.6308,-4.6308,-4.6308,-4.6308,-4.5859,-4.4101,-4.3691,-4.3242,-4.1562,-4.1191,-4.1191,-4.1191,-4.1191,-4.1191,-4.1191,-4.1083,-4.1019,-4.1019,-3.9472,-3.8292,-3.8209,-3.6686,-3.5577,-3.5515,-3.5507,-3.55,-3.55,-3.55,-3.55,-3.55,-3.55,-3.5141,-3.4302,-3.4263,-3.3872,-3.3045,-3.3026,-3.343,-3.4263,-3.4263,-3.468,-3.55,-3.55,-3.55,-4.8713,-5.0342,-5.1576,-5.0772,-5.1169,-5.1388,-5.0038,-4.9548,-4.9048,-4.7798,-4.7355,-4.7086,0.0,0.0,0.0,-5.2222,-5.4876,0.0,-5.9223,-6.0069,0.0,-5.9588,0.0,-5.8954,-5.8357,-5.8838,0.0,0.0,-5.9704,-6.0108,-6.0762,-6.08,-6.08,-6.08,-6.08,-6.0492,-5.9838,-5.8165,-5.678,-5.5703,-5.5703,-5.528,-5.4472,-5.3837,-5.2933,-5.1875,-5.1289,-5.0999,-5.0911,-5.1054,-5.0169,-4.8706,-4.8844,-4.7832,-4.6308,-4.6308,-4.6308,-4.6308,-4.6308,-4.6308,-4.6308,-4.6308,-4.6308,-4.6308,-4.6308,-4.6308,-4.6308,-4.6308,-4.6308,-4.6308,-4.6308,-4.6308,-4.5859,-4.4101,-4.3691,-4.3242,-4.1562,-4.1191,-4.1191,-4.1191,-4.1191,-4.1191,-4.1191,-4.1171,-4.115,-4.115,-3.9642,-3.8465,-3.8299,-3.6702,-3.5595,-3.5577,-3.5522,-3.55,-3.55,-3.55,-3.55,-3.55,-3.55,-3.5404,-3.5173,-3.5173,-3.5058,-3.4846,-3.4846,-3.4942,-3.5173,-3.5173,-3.5269,-3.55,-3.55,-3.55,-5.0361,-5.1828,-5.2827,-5.1852,-5.1586,-5.1114,-4.9319,-4.861,-4.7817,-4.6105,-4.5759,-4.5509,-4.4662,-4.5951,-4.7836,0.0,0.0,0.0,-5.805,-5.9454,-6.0185,0.0,-6.0069,0.0,-5.9435,-5.98,-6.0069,0.0,-6.0069,-6.0281,-6.0762,-6.08,-6.08,-6.08,-6.08,-6.0204,-5.8992,-5.7646,-5.656,-5.5703,-5.5703,-5.5068,-5.3914,-5.3414,-5.2529,-5.1356,0.0,-5.073,-5.083,-5.0966,-5.0062,-4.8633,-4.8765,-4.7789,-4.6308,-4.6308,-4.6308,-4.6308,-4.6308,-4.6308,-4.6308,-4.6308,-4.6308,-4.6308,-4.6308,-4.6308,-4.6308,-4.6308,-4.6308,-4.6308,-4.6308,-4.6308,-4.5957,-4.459,-4.3984,-4.334,-4.2012,-4.1445,-4.1191,-4.1191,-4.1191,-4.1191,-4.1191,-4.1191,-4.1191,-4.1191,-4.0039,-3.8981,-3.8498,-3.6851,-3.5706,-3.5642,-3.5611,-3.5585,-3.5585,-3.5562,-3.554,-3.554,-3.5528,-3.55,-3.55,-3.55,-3.55,-3.55,-3.55,-3.55,-3.55,-3.55,-3.55,-3.55,-3.55,-3.55,-5.1504,-5.259,-5.3459,-5.2691,-5.1701,-5.0441,-4.8566,-4.741,-4.624,-4.4489,-4.4143,-4.3893,-4.3085,-4.3778,-4.5278,-4.7702,0.0,-5.328,-5.6695,-5.8511,-5.9819,-6.0704,-6.08,-6.08,-6.08,-6.08,-6.08,-6.08,-6.08,-6.08,-6.08,-6.08,-6.0742,-6.0627,-6.0512,-5.9704,-5.8146,-5.7261,-5.6445,-5.5703,-5.5703,-5.4818,-5.3203,-5.3203,-5.2299,-5.0712,0.0,0.0,-5.0712,-5.0844,-4.9944,-4.8492,-4.8646,-4.7714,-4.6288,-4.6289,-4.6308,-4.6308,-4.6308,-4.6308,-4.6308,-4.6308,-4.6308,-4.6308,-4.6308,-4.6308,-4.6308,-4.6308,-4.6308,-4.6308,-4.6308,-4.6308,-4.6074,-4.5215,-4.4414,-4.3594,-4.2617,-4.1777,-4.1191,-4.1191,-4.1191,-4.1191,-4.1191,-4.1191,-4.1191,-4.1191,-4.0469,-3.9629,-3.8867,-3.7195,-3.5984,-3.5749,-3.5713,-3.5707,-3.5707,-3.5642,-3.5611,-3.5591,-3.554,-3.5508,-3.55,-3.55,-3.55,-3.55,-3.55,-3.55,-3.55,-3.55,-3.55,-3.55,-3.55,-3.55,-5.2109,-5.2675,-5.2827,-5.2563,-5.1783,-5.0411,-4.7889,-4.653,0.0,-4.3662,-4.3316,-4.3047,-4.2181,-4.3855,-4.597,-4.7798,-5.0837,-5.4164,-5.7588,-5.8896,-5.9819,0.0,-6.08,-6.08,-6.08,0.0,0.0,0.0,0.0,0.0,-6.08,-6.08,-6.0473,-5.9742,-5.9088,-5.8242,-5.7253,-5.6357,-5.5838,-5.5703,-5.5703,-5.4818,-5.3203,-5.3203,-5.2299,-5.0712,0.0,0.0,-5.0712,-5.0844,-4.9896,-4.8354,-4.8603,-4.7654,-4.6147,-4.6268,-4.6308,-4.6308,-4.6308,-4.6308,-4.6308,-4.6308,-4.6308,-4.6308,-4.6308,-4.6308,-4.6308,-4.6308,-4.6308,-4.6308,-4.6308,-4.6308,-4.6074,-4.5215,-4.4883,-4.4336,-4.2734,-4.1777,-4.1191,-4.1191,-4.1191,-4.1191,-4.1191,-4.1191,-4.1191,-4.1191,-4.0469,-3.9844,-3.9687,-3.8093,-3.668,-3.5949,-3.5764,-3.5707,-3.5707,-3.5689,-3.5663,-3.5596,-3.5585,-3.555,-3.5507,-3.55,-3.55,-3.55,-3.55,-3.55,-3.55,-3.55,-3.55,-3.55,-3.55,-3.55,-5.2363,-5.3027,-5.3242,-5.2727,-5.1559,-4.9827,-4.715,0.0,0.0,-4.2194,-4.2104,-4.2162,-4.1277,-4.2489,-4.4162,-4.5855,-4.8259,-5.126,-5.5107,-5.6722,-5.8165,-5.9915,-6.0512,-6.08,0.0,0.0,0.0,0.0,0.0,0.0,-6.08,-6.08,-6.0396,-5.9531,-5.8723,-5.7877,-5.7003,-5.6137,-5.5703,-5.5703,-5.5703,-5.4818,-5.3203,-5.3203,-5.2299,-5.0712,0.0,0.0,-5.0702,-5.0775,-4.9814,-4.8313,-4.8436,-4.7513,-4.6113,-4.6174,-4.6246,-4.6308,-4.6308,-4.6308,-4.6308,-4.6308,-4.6308,-4.6308,-4.6308,-4.6308,-4.6308,-4.6308,-4.6308,-4.6308,-4.6308,-4.6308,-4.6191,-4.5781,-4.498,-4.3867,-4.2148,-4.1465,-4.1191,-4.1191,-4.1191,-4.1191,-4.1191,-4.1191,-4.1191,-4.1191,-4.084,-4.041,-3.9961,-3.8747,-3.7589,-3.6711,-3.6172,-3.5868,-3.5868,-3.5823,-3.5789,-3.5768,-3.5679,-3.5644,-3.5601,-3.5596,-3.5585,-3.5538,-3.5558,-3.5534,-3.55,-3.55,-3.55,-3.55,-3.55,-3.55,-5.2187,-5.293,-5.332,-5.2812,-5.1201,-4.9067,-4.6578,-4.5084,-4.3511,-4.1004,-4.1046,-4.1316,-4.0631,-4.12,-4.2412,-4.4278,-4.5874,-4.8452,-5.2856,-5.4761,-5.6646,0.0,-6.0262,0.0,0.0,0.0,0.0,0.0,0.0,0.0,0.0,-6.0608,-6.0127,-5.9281,-5.8454,-5.7607,-5.6733,-5.603,-5.5703,-5.5703,-5.553,-5.4664,-5.3203,-5.301,-5.2106,-5.0712,0.0,0.0,0.0,-5.05,-4.9581,-4.8241,-4.8085,-4.722,-4.6047,-4.6045,-4.6145,-4.6268,-4.6268,-4.6288,-4.6308,-4.6308,-4.6308,-4.6308,-4.6308,-4.6308,-4.6308,-4.6308,-4.6308,-4.6308,-4.6308,-4.6308,-4.6308,-4.6308,-4.4961,-4.334,-4.2012,-4.1445,-4.1191,-4.1191,-4.1191,-4.1191,-4.1191,-4.1191,-4.1191,-4.1191,-4.1191,-4.0957,-4.0273,-3.9258,-3.834,-3.7656,-3.6621,-3.5996,-3.5996,-3.5948,-3.5911,-3.5903,-3.5802,-3.5723,-3.5707,-3.5707,-3.5687,-3.5616,-3.5611,-3.56,-3.5534,-3.5541,-3.5522,-3.5522,-3.552,-3.55,-5.1308,-5.1582,-5.1816,-5.2519,-5.0732,-4.8326,-4.6422,0.0,-4.2776,-4.0889,-4.0554,-4.0593,-4.0516,-4.12,-4.2604,-4.5075,-4.6278,-4.8644,-5.3664,-5.5145,-5.6646,-5.9204,0.0,0.0,0.0,0.0,0.0,0.0,0.0,0.0,0.0,-6.005,-5.9261,-5.8434,-5.7569,-5.6695,-5.5818,-5.5742,-5.5703,-5.5684,-5.4953,-5.4126,-5.3164,-5.2385,-5.1548,-5.0712,0.0,0.0,0.0,-4.9856,-4.8961,-4.8055,-4.7383,-4.6584,-4.5826,-4.5896,-4.5998,-4.6117,-4.6117,-4.62,-4.6308,-4.6308,-4.6308,-4.6308,-4.6308,-4.6308,-4.6308,-4.6308,-4.6308,-4.6308,-4.6308,-4.6308,-4.6308,-4.6308,-4.4961,-4.3652,-4.3496,-4.2266,-4.1191,-4.1191,-4.1191,-4.1191,-4.1191,-4.1191,-4.1191,-4.1191,-4.1191,-4.1172,-4.1094,-3.9629,-3.8574,-3.8496,-3.6992,-3.5996,-3.5996,-3.5996,-3.5953,-3.5905,-3.5898,-3.5834,-3.571,-3.5707,-3.57,-3.5693,-3.5693,-3.5689,-3.5678,-3.5611,-3.559,-3.5585,-3.5541,-3.55,-5.0312,-5.1035,-5.1367,-5.123,-4.9998,-4.8185,-4.5771,-4.4232,-4.2784,-4.0899,-4.0496,-4.0496,-4.0496,-4.0785,-4.1681,-4.3758,-4.4393,-4.6028,-5.0087,-5.1375,-5.3222,-5.678,-5.7973,0.0,0.0,0.0,0.0,0.0,0.0,0.0,0.0,-5.9685,-5.8896,-5.755,-5.7176,-5.6579,-5.5703,-5.5703,-5.5703,-5.5684,-5.4876,-5.4049,-5.3164,-5.2288,-5.1471,-5.0712,0.0,0.0,0.0,-4.976,-4.8894,-4.8018,-4.724,-4.6464,-4.5809,-4.5832,-4.5951,-4.6108,-4.6108,-4.6198,-4.6289,-4.6201,-4.6175,-4.6199,-4.6288,-4.6308,-4.6308,-4.6308,-4.6308,-4.6308,-4.6308,-4.6308,-4.6172,-4.5644,-4.459,-4.3555,-4.3027,-4.2012,-4.1191,-4.1191,-4.1191,-4.1191,-4.1191,-4.1191,-4.1191,-4.1191,-4.1191,-4.1016,-4.0488,-3.9355,-3.8398,-3.7871,-3.6738,-3.5996,-3.5996,-3.5996,-3.5995,-3.5951,-3.5951,-3.5948,-3.5878,-3.5876,-3.5866,-3.5812,-3.5812,-3.5772,-3.5707,-3.5667,-3.5648,-3.5605,-3.5566,-3.5547,-4.9023,-5.0039,-5.0527,-4.9961,-4.916,-4.7868,-4.5334,-4.4055,-4.2864,-4.0945,-4.0534,-4.0496,-4.0496,-4.0496,-4.0997,-4.247,-4.2931,-4.4182,-4.7317,-4.8702,-5.0683,0.0,0.0,0.0,0.0,0.0,0.0,0.0,0.0,0.0,0.0,-5.8761,-5.8223,-5.7041,-5.6753,-5.6329,-5.5703,-5.5703,-5.5568,-5.5338,-5.4511,-5.3664,-5.2799,-5.1933,-5.1241,0.0,0.0,0.0,0.0,-4.9375,-4.8509,-4.7663,-4.6836,-4.6208,-4.574,-4.574,-4.5867,-4.6008,-4.6033,-4.612,-4.6224,-4.612,-4.6108,-4.6113,-4.6171,-4.6202,-4.6247,-4.6289,-4.6308,-4.6308,-4.6308,-4.6308,-4.6152,-4.5527,-4.4512,-4.3535,-4.293,-4.1953,-4.1191,-4.1191,-4.1191,-4.1191,-4.1191,-4.1191,-4.1191,-4.1191,-4.1191,-4.0898,-4.0019,-3.9141,-3.8262,-3.7383,-3.6523,-3.5996,-3.5996,-3.5996,-3.5996,-3.5996,-3.5996,-3.5996,-3.5996,-3.5996,-3.5975,-3.5921,-3.5939,-3.5887,-3.5792,-3.5772,-3.573,-3.5698,-3.5644,-3.5595,-4.7383,-4.8262,-4.8926,-4.8926,-4.8262,-4.7147,-4.5306,-4.4114,-4.2886,-4.1061,-4.0589,-4.0496,-4.0496,-4.0496,-4.0785,-4.1681,-4.2547,-4.3989,-4.6538,-4.8355,-5.0029,0.0,0.0,0.0,0.0,0.0,0.0,0.0,0.0,0.0,0.0,0.0,-5.7022,-5.7003,-5.6145,-5.5703,-5.5703,-5.5703,-5.5299,-5.4491,-5.3626,-5.276,-5.1885,-5.1087,0.0,0.0,0.0,0.0,0.0,-4.8471,-4.7644,-4.6836,-4.5951,-4.5614,-4.5594,-4.5594,-4.5696,-4.5809,-4.5881,-4.5988,-4.611,-4.6108,-4.6108,-4.6077,-4.5936,-4.5995,-4.612,-4.6268,-4.6308,-4.6308,-4.6308,-4.6308,-4.6308,-4.6289,-4.4961,-4.3691,-4.3691,-4.2383,-4.1191,-4.1191,-4.1191,-4.1191,-4.1191,-4.1191,-4.1191,-4.1191,-4.1191,-4.0898,-4.0019,-3.9141,-3.8262,-3.7383,-3.6523,-3.5996,-3.5996,-3.5996,-3.5996,-3.5996,-3.5996,-3.5996,-3.5996,-3.5996,-3.5996,-3.5996,-3.5996,-3.5996,-3.5996,-3.5921,-3.5901,-3.59,-3.5761,-3.5667,-4.5586,-4.6894,-4.7734,-4.6523,-4.6035,-4.535,-4.3548,-4.2805,-4.2181,-4.0945,-4.0589,-4.0496,-4.0496,-4.0496,-4.117,-4.3181,-4.3739,-4.4624,-4.6615,0.0,0.0,0.0,0.0,0.0,0.0,0.0,0.0,0.0,0.0,0.0,0.0,0.0,-5.6107,-5.6107,-5.5838,-5.5703,-5.5703,-5.5703,-5.5299,-5.4491,-5.3626,-5.2731,-5.1865,-5.1068,0.0,0.0,0.0,0.0,0.0,-4.7875,-4.7135,-4.6817,-4.5932,-4.5594,-4.5594,-4.5594,-4.5677,-4.5809,-4.582,-4.5896,-4.5959,-4.592,-4.589,-4.588,-4.5836,-4.5959,-4.612,-4.6268,-4.6308,-4.6308,-4.6308,-4.6308,-4.6308,-4.6308,-4.4961,-4.3691,-4.3691,-4.2383,-4.1191,-4.1191,-4.1191,-4.1191,-4.1191,-4.1191,-4.1191,-4.1191,-4.1191,-4.0664,-3.9199,-3.8769,-3.8047,-3.6562,-3.6152,-3.5996,-3.5996,-3.5996,-3.5996,-3.5996,-3.5996,-3.5996,-3.5996,-3.5996,-3.5996,-3.5996,-3.5996,-3.5996,-3.5996,-3.5975,-3.5946,-3.5901,-3.5764,-3.5689,-4.3613,-4.5058,-4.5879,-4.4785,-4.4512,-4.4042,-4.2293,-4.1752,-4.1396,-4.0466,-4.0166,-4.015,-4.0439,-4.0496,-4.1016,-4.2613,-4.3412,-4.4335,0.0,0.0,0.0,0.0,0.0,0.0,0.0,0.0,0.0,0.0,0.0,0.0,0.0,0.0,-5.5549,-5.5261,-5.553,-5.5703,-5.5703,-5.5395,-5.4838,-5.3991,-5.3126,-5.2279,-5.1433,0.0,0.0,0.0,0.0,0.0,0.0,-4.7336,-4.6721,-4.6355,-4.5806,-4.5594,-4.5594,-4.5594,-4.564,-4.5725,-4.5776,-4.5826,-4.5855,-4.5815,-4.5775,-4.5725,-4.5783,-4.5948,-4.6117,-4.62,-4.6268,-4.6308,-4.6308,-4.6308,-4.6211,-4.5898,-4.4726,-4.3613,-4.3281,-4.2148,-4.1191,-4.1191,-4.1191,-4.1191,-4.1191,-4.1191,-4.1191,-4.1191,-4.0918,-4.0195,-3.8789,-3.8301,-3.7578,-3.6152,-3.5996,-3.5996,-3.5996,-3.5996,-3.5996,-3.5996,-3.5996,-3.5996,-3.5996,-3.5996,-3.5996,-3.5996,-3.5996,-3.5996,-3.5996,-3.5996,-3.5975,-3.5942,-3.5841,-3.5789,0.0,-4.2715,-4.3418,-4.3359,-4.334,-4.293,-4.1367,-4.0865,0.0,-3.9676,-3.94,-3.9549,-4.0377,-4.0504,-4.0573,-4.0823,-4.2162,0.0,0.0,-4.6682,0.0,0.0,0.0,0.0,0.0,0.0,0.0,0.0,0.0,0.0,0.0,0.0,0.0,-5.4434,-5.5126,-5.5511,-5.5511,-5.478,-5.3972,-5.3106,-5.2288,-5.1491,-5.0712,0.0,0.0,0.0,0.0,0.0,0.0,-4.6827,-4.6336,-4.5594,-4.5594,-4.5594,-4.5594,-4.5594,-4.5594,-4.562,-4.574,-4.5783,-4.5783,-4.5783,-4.57,-4.561,-4.5747,-4.593,-4.6077,-4.6106,-4.6198,-4.6289,-4.6308,-4.6308,-4.6074,-4.5215,-4.4336,-4.3457,-4.2598,-4.1777,-4.1191,-4.1191,-4.1191,-4.1191,-4.1191,-4.1191,-4.1191,-4.1191,-4.0469,-3.959,-3.8711,-3.7832,-3.6973,-3.6094,-3.5996,-3.5996,-3.5996,-3.5996,-3.5996,-3.5996,-3.5996,-3.5996,-3.5996,-3.5996,-3.5996,-3.5996,-3.5996,-3.5996,-3.5996,-3.5996,-3.5996,-3.5996,-3.5942,-3.5907,-3.834,0.0,-4.0625,-3.9961,-3.9805,-3.9707,0.0,-3.9105,-3.8924,-3.8727,-3.9043,-3.9638,-4.0507,-4.0566,-4.1362,-4.3978,0.0,0.0,0.0,0.0,0.0,0.0,0.0,0.0,0.0,0.0,0.0,0.0,0.0,0.0,0.0,0.0,0.0,-5.353,-5.3683,-5.3799,-5.3799,-5.3606,-5.3068,-5.2192,-5.2,-5.1491,-5.0673,0.0,0.0,0.0,0.0,0.0,-4.6846,-4.6182,-4.5787,-4.5594,-4.5594,-4.5594,-4.5594,-4.5594,-4.5594,-4.5603,-4.5635,-4.5651,-4.5651,-4.5651,-4.5637,-4.5603,-4.5635,-4.5749,-4.5901,-4.6061,-4.6119,-4.6173,-4.6269,-4.6308,-4.6074,-4.5215,-4.4336,-4.3457,-4.2598,-4.1777,-4.1191,-4.1191,-4.1191,-4.1191,-4.1191,-4.1191,-4.1191,-4.1191,-4.0469,-3.959,-3.8711,-3.7832,-3.6973,-3.6094,-3.5996,-3.5996,-3.5996,-3.5996,-3.5996,-3.5996,-3.5996,-3.5996,-3.5996,-3.5996,-3.5996,-3.5996,-3.5996,-3.5996,-3.5996,-3.5996,-3.5996,-3.5996,-3.5975,-3.5974,-3.6699,-3.8555,-4.0371,-3.9902,-3.9785,-3.9687,-3.9297,-3.8505,-3.7831,-3.781,-3.8065,-3.868,-3.9966,-4.0436,-4.1351,-4.3581,-4.4191,0.0,0.0,0.0,0.0,0.0,0.0,0.0,0.0,0.0,0.0,0.0,0.0,0.0,0.0,0.0,0.0,0.0,-5.2596,-5.2799,-5.3203,-5.2799,-5.2365,-5.1904,-5.1529,-5.1125,-5.0673,0.0,0.0,0.0,0.0,0.0,-4.6278,-4.5787,-4.5594,-4.5594,-4.5594,-4.5594,-4.5594,-4.5594,-4.5594,-4.5594,-4.5594,-4.5594,-4.5594,-4.5594,-4.5594,-4.5594,-4.5594,-4.566,-4.5735,-4.5901,-4.6037,-4.6117,-4.6198,-4.5955,-4.5488,-4.4609,-4.373,-4.2871,-4.2031,-4.1504,-4.1191,-4.1191,-4.1191,-4.1191,-4.1191,-4.1191,-4.1191,-4.1191,-4.0117,-3.9121,-3.8652,-3.748,-3.6523,-3.6055,-3.5996,-3.5996,-3.5996,-3.5996,-3.5996,-3.5996,-3.5996,-3.5996,-3.5996,-3.5996,-3.5996,-3.5996,-3.5996,-3.5996,-3.5996,-3.5996,-3.5996,-3.5996,-3.5996,-3.5996,-3.6328,-3.875,-4.1094,-4.0703,-4.0801,-4.0762,-3.9902,-3.8509,-3.7357,-3.7177,-3.7286,-3.7893,-3.9528,-4.0455,-4.139,0.0,0.0,0.0,0.0,0.0,0.0,0.0,0.0,0.0,0.0,0.0,0.0,0.0,0.0,0.0,0.0,0.0,0.0,0.0,-5.1712,-5.2068,-5.2818,-5.2087,-5.1712,-5.1712,-5.1029,-5.0635,-5.0481,-4.9606,0.0,0.0,0.0,0.0,-4.5594,-4.5594,-4.5594,-4.5594,-4.5594,-4.5594,-4.5594,-4.5594,-4.5594,-4.5594,-4.5594,-4.5594,-4.5594,-4.5594,-4.5594,-4.5594,-4.5594,-4.5594,-4.561,-4.5733,-4.5911,-4.6061,-4.6072,-4.5626,-4.4921,-4.3925,-4.3125,-4.2344,-4.1406,-4.1191,-4.1191,-4.1191,-4.1191,-4.1191,-4.1191,-4.1191,-4.1191,-4.1191,-3.9726,-3.8594,-3.8594,-3.707,-3.5996,-3.5996,-3.5996,-3.5996,-3.5996,-3.5996,-3.5996,-3.5996,-3.5996,-3.5996,-3.5996,-3.5996,-3.5996,-3.5996,-3.5996,-3.5996,-3.5996,-3.5996,-3.5996,-3.5996,-3.5996,-3.5996,-3.7793,-3.9668,-4.0664,-3.8457,-3.9004,-3.9863,-3.9004,-3.8574,-3.8163,-3.7421,-3.834,-3.9594,-4.0604,-4.1396,-4.2883,0.0,0.0,0.0,0.0,0.0,0.0,0.0,0.0,0.0,0.0,0.0,0.0,0.0,0.0,0.0,0.0,0.0,0.0,0.0,0.0,-5.0952,-5.1077,-5.0952,-5.0875,-5.0875,-5.077,-5.0308,-4.9567,-4.8702,-4.7855,0.0,0.0,0.0,-4.5594,-4.5594,-4.5594,-4.5594,-4.5594,-4.5594,-4.5594,-4.5594,-4.5594,-4.5594,-4.5594,-4.5594,-4.5594,-4.5594,-4.5594,-4.5594,-4.5594,-4.5594,-4.5603,-4.5618,-4.572,-4.5867,-4.5923,-4.5936,-4.5535,-4.3972,-4.3567,-4.3086,-4.1523,-4.1191,-4.1191,-4.1191,-4.1191,-4.1191,-4.1191,-4.1191,-4.1191,-4.1191,-3.9726,-3.8594,-3.8594,-3.707,-3.5996,-3.5996,-3.5996,-3.5996,-3.5996,-3.5996,-3.5996,-3.5996,-3.5996,-3.5996,-3.5996,-3.5996,-3.5996,-3.5996,-3.5996,-3.5996,-3.5996,-3.5996,-3.5996,-3.5996,-3.5996,-3.5996,-3.6973,-3.8476,-3.9629,-3.8887,-4.0332,-4.1855,-4.1445,-4.0664,-3.9883,-3.9492,-3.9998,-4.0772,-4.1592,-4.242,-4.3923,-4.6833,0.0,0.0,0.0,0.0,0.0,0.0,0.0,0.0,0.0,0.0,0.0,0.0,0.0,0.0,0.0,0.0,0.0,0.0,0.0,0.0,-5.0712,-5.0712,-5.0712,-5.0693,-5.0221,-4.9779,-4.9356,-4.8048,-4.7259,0.0,0.0,-4.5594,-4.5594,-4.5594,-4.5594,-4.5594,-4.5594,-4.5594,-4.5594,-4.5594,-4.5594,-4.5594,-4.5594,-4.5594,-4.5594,-4.5594,-4.5594,-4.5594,-4.5594,-4.5594,-4.5594,-4.5594,-4.5692,-4.5816,-4.5836,-4.5598,-4.5043,-4.3873,-4.3255,-4.2627,-4.1445,-4.1191,-4.1191,-4.1191,-4.1191,-4.1191,-4.1191,-4.1191,-4.1035,-4.0566,-3.9414,-3.8437,-3.7969,-3.6797,-3.5996,-3.5996,-3.5996,-3.5996,-3.5996,-3.5996,-3.5996,-3.5996,-3.5996,-3.5996,-3.5996,-3.5996,-3.5996,-3.5996,-3.5996,-3.5996,-3.5996,-3.5996,-3.5996,-3.5996,-3.5996,-3.5996,-3.6191,-3.7285,-3.8555,-3.9629,-4.1367,-4.2969,-4.3555,-4.2402,-4.125,-4.1445,-4.1641,-4.1973,-4.2598,-4.375,0.0,-4.7368,0.0,0.0,0.0,0.0,0.0,0.0,0.0,0.0,0.0,0.0,0.0,0.0,0.0,0.0,0.0,0.0,0.0,0.0,0.0,0.0,-5.0087,-5.0087,-5.0308,-5.0693,-4.9817,-4.9298,-4.9048,-4.7567,-4.6797,-4.6567,-4.5893,-4.5594,-4.5594,-4.5594,-4.5594,-4.5594,-4.5594,-4.5594,-4.5594,-4.5594,-4.5594,-4.5594,-4.5594,-4.5594,-4.5594,-4.5594,-4.5594,-4.5594,-4.5594,-4.5594,-4.5594,-4.5594,-4.5673,-4.5754,-4.5754,-4.5219,-4.4452,-4.3695,-4.2869,-4.2041,-4.1302,-4.115,-4.1151,-4.1191,-4.1191,-4.1191,-4.1191,-4.1035,-4.0664,-4.0,-3.8984,-3.8047,-3.7383,-3.6543,-3.5996,-3.5996,-3.5996,-3.5996,-3.5996,-3.5996,-3.5996,-3.5996,-3.5996,-3.5996,-3.5996,-3.5996,-3.5996,-3.5996,-3.5996,-3.5996,-3.5996,-3.5996,-3.5996,-3.5996,-3.5996,-3.5996,-3.6777,-3.7305,-3.7793,-3.9473,-4.0039,-4.0781,-4.3164,-4.2402,-4.1406,-4.2168,-4.2969,-4.3535,-4.3594,-4.5644,-4.7595,-4.8476,0.0,0.0,0.0,0.0,0.0,0.0,0.0,0.0,0.0,0.0,0.0,0.0,0.0,0.0,0.0,0.0,0.0,0.0,0.0,0.0,-4.8298,-4.8298,-4.9106,-5.0693,-4.9817,-4.8971,-4.8163,-4.7298,-4.6471,-4.5691,-4.5633,-4.5594,-4.5594,-4.5594,-4.5594,-4.5594,-4.5594,-4.5594,-4.5594,-4.5594,-4.5594,-4.5594,-4.5594,-4.5594,-4.5594,-4.5594,-4.5594,-4.5594,-4.5594,-4.5594,-4.5594,-4.5594,-4.5603,-4.562,-4.562,-4.5058,-4.4311,-4.3439,-4.2656,-4.1912,-4.1166,-4.1002,-4.1052,-4.1171,-4.1191,-4.1191,-4.1191,-4.0527,-3.9961,-3.9902,-3.8476,-3.7363,-3.7305,-3.6543,-3.5996,-3.5996,-3.5996,-3.5996,-3.5996,-3.5996,-3.5996,-3.5996,-3.5996,-3.5996,-3.5996,-3.5996,-3.5996,-3.5996,-3.5996,-3.5996,-3.5996,-3.5996,-3.5996,-3.5996,-3.5996,-3.5996,-3.5508,-3.6465,-3.7598,-3.8789,-3.9902,-4.123,-4.3242,-4.3633,-4.3808,-4.4648,-4.5098,-4.5312,-4.5312,0.0,-4.7695,0.0,0.0,0.0,0.0,0.0,0.0,0.0,0.0,0.0,0.0,0.0,0.0,0.0,0.0,0.0,0.0,0.0,0.0,0.0,0.0,0.0,0.0,-4.8105,-4.8432,-4.9067,-4.824,-4.7682,-4.7336,-4.6471,-4.5913,-4.5594,-4.5594,-4.5594,-4.5594,-4.5594,-4.5594,-4.5594,-4.5594,-4.5594,-4.5594,-4.5594,-4.5594,-4.5594,-4.5594,-4.5594,-4.5594,-4.5594,-4.5594,-4.5594,-4.5594,-4.5594,-4.5594,-4.5594,-4.5594,-4.5479,-4.494,-4.4575,-4.4044,-4.2757,-4.2236,-4.1811,-4.1048,-4.0874,-4.0917,-4.1052,-4.1078,-4.1103,-4.1191,-4.0488,-3.9726,-3.918,-3.8066,-3.7109,-3.6562,-3.6191,-3.5996,-3.5996,-3.5996,-3.5996,-3.5996,-3.5996,-3.5996,-3.5996,-3.5996,-3.5996,-3.5996,-3.5996,-3.5996,-3.5996,-3.5996,-3.5996,-3.5996,-3.5996,-3.5996,-3.5996,-3.5996,-3.5996,-3.4766,-3.5762,-3.7168,-3.8301,-3.9707,-4.1308,-4.3262,-4.416,-4.4902,-4.6055,-4.6308,-4.6308,-4.6308,-4.6797,0.0,0.0,0.0,0.0,0.0,0.0,0.0,0.0,0.0,0.0,0.0,0.0,0.0,0.0,0.0,0.0,0.0,0.0,0.0,0.0,0.0,0.0,0.0,-4.7317,-4.7317,-4.7298,-4.6759,-4.6624,-4.6865,-4.599,-4.5594,-4.5594,-4.5594,-4.5594,-4.5594,-4.5594,-4.5594,-4.5594,-4.5594,-4.5594,-4.5594,-4.5594,-4.5594,-4.5594,-4.5594,-4.5594,-4.5594,-4.5594,-4.5594,-4.5594,-4.5594,-4.5594,-4.5537,-4.5267,-4.519,-4.494,-4.3797,-4.3701,-4.358,-4.2251,-4.1725,-4.1383,-4.0874,-4.0766,-4.08,-4.0914,-4.0947,-4.089,-4.0755,-3.9996,-3.9138,-3.8301,-3.7441,-3.668,-3.6074,-3.5996,-3.5996,-3.5996,-3.5996,-3.5996,-3.5996,-3.5996,-3.5996,-3.5996,-3.5996,-3.5996,-3.5996,-3.5996,-3.5996,-3.5996,-3.5996,-3.5996,-3.5996,-3.5996,-3.5996,-3.5996,-3.5996,-3.5996,-3.4922,-3.5332,-3.6426,-3.8164,-3.9277,-4.0605,-4.3144,-4.3711,-4.4199,-4.5937,-4.6308,-4.6308,-4.6308,-4.6308,0.0,0.0,0.0,0.0,0.0,0.0,0.0,0.0,0.0,0.0,0.0,0.0,0.0,0.0,0.0,0.0,0.0,0.0,0.0,0.0,0.0,0.0,0.0,-4.5594,-4.5594,-4.5594,-4.5594,-4.6047,-4.6846,-4.599,-4.5594,-4.5594,-4.5594,-4.5594,-4.5594,-4.5594,-4.5594,-4.5594,-4.5594,-4.5594,-4.5594,-4.5594,-4.5594,-4.5594,-4.5594,-4.5594,-4.5594,-4.5594,-4.5594,-4.5594,-4.5594,-4.5594,-4.5421,-4.4528,-4.4297,-4.3893,-4.2239,-4.245,-4.2874,-4.1981,-4.1123,-4.0549,-4.0661,-4.0697,-4.0724,-4.0796,-4.0797,-4.0555,-3.983,-3.8982,-3.8159,-3.7402,-3.6562,-3.5996,-3.5996,-3.5996,-3.5996,-3.5996,-3.5996,-3.5996,-3.5996,-3.5996,-3.5996,-3.5996,-3.5996,-3.5996,-3.5996,-3.5996,-3.5996,-3.5996,-3.5996,-3.5996,-3.5996,-3.5996,-3.5996,-3.5996,-3.5996,-3.5996,-3.4023,-3.5312,-3.7187,-3.832,-4.1055,-4.3691,-4.4433,-4.4609,-4.4941,-4.6074,-4.6308,-4.6308,-4.6308,-4.6308,0.0,0.0,0.0,0.0,0.0,0.0,0.0,0.0,0.0,0.0,0.0,0.0,0.0,0.0,0.0,0.0,0.0,0.0,0.0,0.0,0.0,0.0,0.0,0.0,-4.5594,-4.5594,-4.5594,-4.5748,-4.597,-4.5729,-4.5594,-4.5594,-4.5594,-4.5594,-4.5594,-4.5594,-4.5594,-4.5594,-4.5594,-4.5594,-4.5594,-4.5594,-4.5594,-4.5594,-4.5594,-4.5594,-4.5594,-4.5594,-4.5594,-4.5594,-4.5594,-4.5171,-4.4624,-4.4374,-4.3893,-4.3201,-4.2085,-4.1981,-4.197,-4.1085,-4.0689,-4.0512,-4.0552,-4.0559,-4.0596,-4.0718,-4.0726,-4.05,-3.9763,-3.8958,-3.8128,-3.7344,-3.652,-3.5996,-3.5996,-3.5996,-3.5996,-3.5996,-3.5996,-3.5996,-3.5996,-3.5996,-3.5996,-3.5996,-3.5996,-3.5996,-3.5996,-3.5996,-3.5996,-3.5996,-3.5996,-3.5996,-3.5996,-3.5996,-3.5996,-3.5996,-3.5996,-3.5996,-3.5,-3.6601,-3.8691,-4.0234,-4.2578,-4.4668,-4.5351,-4.5527,-4.5664,-4.6191,-4.6308,-4.6308,-4.6308,-4.6308,0.0,0.0,0.0,0.0,0.0,0.0,0.0,0.0,0.0,0.0,0.0,0.0,0.0,0.0,0.0,0.0,0.0,0.0,0.0,0.0,0.0,0.0,0.0,0.0,0.0,-4.5594,-4.5594,-4.5594,-4.5594,-4.5594,-4.5594,-4.5594,-4.5594,-4.5594,-4.5594,-4.5594,-4.5594,-4.5594,-4.5594,-4.5594,-4.5594,-4.5594,-4.5594,-4.5594,-4.5594,-4.5594,-4.5594,-4.5594,-4.5364,-4.5075,-4.5075,-4.4489,-4.3758,-4.3393,-4.297,-4.2374,-4.1508,-4.1277,-4.1143,-4.0631,-4.0496,-4.0496,-4.0496,-4.0496,-4.0508,-4.0603,-4.0353,-3.9907,-3.9146,-3.8338,-3.753,-3.6726,-3.6246,-3.5973,-3.5996,-3.5996,-3.5996,-3.5996,-3.5996,-3.5996,-3.5996,-3.5996,-3.5996,-3.5996,-3.5996,-3.5996,-3.5996,-3.5996,-3.5996,-3.5996,-3.5996,-3.5996,-3.5996,-3.5996,-3.5996,-3.5996,-3.5996,-3.5996,-3.6855,-3.8398,-4.0391,-4.2949,-4.3769,-4.4355,-4.5937,-4.6308,-4.6308,-4.6308,0.0,-4.6308,-4.6308,0.0,0.0,0.0,0.0,0.0,0.0,0.0,0.0,0.0,0.0,0.0,0.0,0.0,0.0,0.0,0.0,0.0,0.0,0.0,0.0,0.0,0.0,0.0,0.0,0.0,0.0,0.0,-4.5594,-4.5594,-4.5594,-4.5594,-4.5594,-4.5594,-4.5594,-4.5594,-4.5594,-4.5594,-4.5594,-4.5594,-4.5594,-4.5594,-4.5594,-4.5594,-4.5594,-4.5594,-4.5594,-4.5556,-4.5479,-4.5479,-4.4902,-4.4182,-4.4182,-4.3624,-4.2816,-4.2019,-4.1731,-4.1508,-4.0708,-4.0496,-4.0496,-4.0496,-4.0496,-4.0496,-4.0496,-4.0496,-4.0496,-4.0496,-3.9842,-3.9047,-3.8226,-3.7434,-3.6619,-3.5826,-3.5805,-3.5892,-3.5955,-3.5976,-3.5996,-3.5996,-3.5996,-3.5996,-3.5996,-3.5996,-3.5996,-3.5996,-3.5996,-3.5996,-3.5996,-3.5996,-3.5996,-3.5996,-3.5996,-3.5996,-3.5996,-3.5996,-3.5996,-3.5996,-3.5996,-3.5996,-3.5215,-3.7031,-3.9492,-4.2031,-4.4219,-4.584,-4.6211,-4.6308,-4.6308,-4.6308,-4.6308,-4.6308,0.0,0.0,0.0,0.0,0.0,0.0,0.0,0.0,0.0,0.0,0.0,0.0,0.0,0.0,0.0,0.0,0.0,0.0,0.0,0.0,0.0,0.0,0.0,0.0,-4.5594,-4.5594,-4.5594,0.0,-4.5594,-4.5594,-4.5594,-4.5594,-4.5594,-4.5594,-4.5594,-4.5594,-4.5594,-4.5594,-4.5594,-4.5594,-4.5594,-4.5594,-4.5594,-4.5594,-4.5594,-4.5594,-4.5594,-4.5152,-4.4586,-4.4586,-4.4028,-4.3355,-4.3355,-4.2758,-4.2038,-4.1846,-4.1316,-4.0746,-4.0554,-4.0496,-4.0496,-4.0496,-4.0496,-4.0496,-4.0496,-4.0496,-4.0496,-4.0496,-3.9842,-3.9022,-3.8173,-3.7403,-3.6619,-3.5826,-3.572,-3.5758,-3.5755,-3.5855,-3.5916,-3.5916,-3.5973,-3.5996,-3.5996,-3.5996,-3.5996,-3.5996,-3.5996,-3.5996,-3.5996,-3.5996,-3.5996,-3.5996,-3.5996,-3.5996,-3.5996,-3.5996,-3.5996,-3.5996,-3.5996,-3.5996,-3.4473,-3.6601,-3.9414,-4.2793,-4.498,-4.6308,-4.6308,-4.6308,-4.6308,-4.6308,-4.6308,0.0,0.0,0.0,0.0,0.0,0.0,0.0,0.0,0.0,0.0,0.0,0.0,0.0,0.0,0.0,0.0,0.0,0.0,0.0,0.0,0.0,0.0,0.0,0.0,0.0,-4.5594,-4.5594,-4.5594,-4.5594,-4.5594,-4.5594,-4.5594,-4.5594,-4.5594,-4.5594,-4.5594,-4.5594,-4.5594,-4.5594,-4.5594,-4.5594,-4.5594,-4.5594,-4.5594,-4.5594,-4.5594,-4.5594,-4.5594,-4.5037,-4.4297,-4.4297,-4.347,-4.2489,-4.2489,-4.1873,-4.1181,-4.1181,-4.0854,-4.0496,-4.0496,-4.0496,-4.0496,-4.0496,-4.0496,-4.0496,-4.0496,-4.0496,-4.0496,-4.0496,-3.9515,-3.8527,-3.8084,-3.7025,-3.6093,-3.5711,-3.565,-3.5652,-3.57,-3.5761,-3.5805,-3.5805,-3.5834,-3.5875,-3.5948,-3.5948,-3.5972,-3.5996,-3.5996,-3.5996,-3.5996,-3.5996,-3.5996,-3.5996,-3.5996,-3.5996,-3.5996,-3.5996,-3.5996,-3.5996,-3.5996,-3.5996,-3.3633,-3.6269,-3.959,-4.373,-4.543,-4.6113,-4.6269,-4.6308,-4.6308,-4.6308,0.0,0.0,0.0,0.0,0.0,0.0,0.0,0.0,0.0,0.0,0.0,0.0,0.0,0.0,0.0,0.0,0.0,0.0,0.0,0.0,0.0,0.0,0.0,0.0,0.0,-4.5531,-4.5429,-4.5466,-4.5466,-4.5429,-4.5495,-4.5531,-4.5594,-4.5594,-4.5594,-4.5594,-4.5594,-4.5594,-4.5594,-4.5594,-4.5594,-4.5594,-4.5594,-4.5594,-4.5575,-4.5441,-4.5383,-4.5364,-4.5229,-4.4605,-4.3874,-4.3874,-4.2835,-4.1585,-4.1585,-4.1066,-4.0496,-4.0496,-4.0496,-4.0496,-4.0496,-4.0496,-4.0496,-4.0496,-4.0496,-4.0496,-4.0496,-4.0496,-4.0496,-4.0496,-3.9142,-3.7911,-3.7623,-3.6423,-3.5515,-3.5571,-3.5574,-3.5596,-3.5663,-3.569,-3.5682,-3.5682,-3.5696,-3.5732,-3.5867,-3.5871,-3.589,-3.5975,-3.5975,-3.5995,-3.5996,-3.5996,-3.5996,-3.5996,-3.5996,-3.5996,-3.5996,-3.5996,-3.5996,-3.5996,-3.5995,-3.5975,-3.1133,-3.4922,-3.9453,-4.2988,-4.4531,-4.5371,-4.6133,0.0,-4.6308,0.0,0.0,0.0,0.0,0.0,0.0,0.0,0.0,0.0,0.0,0.0,0.0,0.0,0.0,0.0,0.0,0.0,0.0,0.0,0.0,0.0,0.0,0.0,-4.5476,-4.518,-4.5438,0.0,-4.4732,-4.5011,-4.5011,-4.4751,-4.5041,-4.5322,-4.5594,-4.5594,-4.5594,-4.5594,-4.5594,-4.5594,-4.5594,-4.5594,-4.5594,-4.5594,-4.5594,-4.5594,-4.5518,-4.4739,-4.447,-4.4374,-4.3682,-4.2854,-4.2135,-4.2135,-4.147,-4.0669,-4.0669,-4.0593,-4.0496,-4.0496,-4.0496,-4.0496,-4.0496,-4.0496,-4.0496,-4.0496,-4.0496,-4.0496,-4.0496,-4.0496,-4.0496,-4.0496,-3.9142,-3.7546,-3.6077,-3.5654,-3.5507,-3.5515,-3.5515,-3.5528,-3.5528,-3.5577,-3.5616,-3.5616,-3.5671,-3.571,-3.572,-3.5723,-3.5775,-3.5908,-3.5911,-3.5944,-3.5996,-3.5996,-3.5996,-3.5996,-3.5996,-3.5996,-3.5996,-3.5996,-3.5996,-3.5996,-3.5945,-3.5911,-3.168,-3.4668,-3.7969,-4.1445,-4.293,-4.3769,-4.4648,-4.4844,-4.4844,0.0,0.0,0.0,0.0,0.0,0.0,0.0,0.0,0.0,0.0,0.0,0.0,0.0,0.0,0.0,0.0,0.0,0.0,0.0,0.0,0.0,0.0,-4.5594,-4.5438,-4.5107,-4.5429,0.0,-4.4884,-4.503,-4.503,-4.4884,-4.503,-4.5282,-4.5594,-4.5594,-4.5594,-4.5594,-4.5594,-4.5325,-4.4874,-4.4874,-4.4605,-4.4201,-4.4201,-4.4201,-4.4143,-4.3778,-4.3624,-4.3585,-4.322,-4.2527,-4.1788,-4.1788,-4.12,-4.0496,-4.0496,-4.0496,-4.0496,-4.0496,-4.0496,-4.0496,-4.0496,-4.0496,-4.0496,-4.0496,-4.0496,-4.0496,-4.0496,-4.015,-3.9534,-3.8565,-3.7777,-3.6885,-3.5692,-3.55,-3.55,-3.55,-3.55,-3.55,-3.55,-3.5528,-3.554,-3.554,-3.5566,-3.5596,-3.5648,-3.5638,-3.5683,-3.5772,-3.5797,-3.5809,-3.5836,-3.5838,-3.5868,-3.5946,-3.5975,-3.5996,-3.5996,-3.5952,-3.5946,-3.5946,-3.5845,-3.5797,-3.1289,-3.3379,-3.5547,-3.9004,-4.082,-4.2051,0.0,0.0,0.0,0.0,0.0,0.0,0.0,0.0,0.0,0.0,0.0,0.0,0.0,0.0,0.0,0.0,0.0,0.0,0.0,0.0,0.0,0.0,0.0,0.0,-4.5594,-4.5594,-4.5438,-4.5107,-4.5342,-4.5263,-4.483,-4.4745,-4.4745,-4.483,-4.4931,-4.5025,-4.515,-4.5232,-4.5171,-4.4979,-4.519,-4.4893,-4.4278,-4.4085,-4.3643,-4.3104,-4.3104,-4.3104,-4.3066,-4.2854,-4.2777,-4.2739,-4.2527,-4.2008,-4.147,-4.147,-4.1027,-4.0496,-4.0496,-4.0496,-4.0496,-4.0496,-4.0496,-4.0496,-4.0496,-4.0496,-4.0496,-4.0496,-4.0342,-4.0208,-4.0208,-3.9727,-3.8777,-3.7038,-3.6692,-3.6442,-3.5635,-3.55,-3.55,-3.55,-3.55,-3.55,-3.55,-3.55,-3.55,-3.55,-3.55,-3.5515,-3.5566,-3.5571,-3.5596,-3.5659,-3.5667,-3.5678,-3.5703,-3.5707,-3.5755,-3.5843,-3.5897,-3.5931,-3.5974,-3.5917,-3.5877,-3.5843,-3.573,-3.5667,-2.8066,-2.9844,-3.1992,-3.543,-3.8164,-4.0469,0.0,0.0,0.0,0.0,0.0,0.0,0.0,0.0,0.0,0.0,0.0,0.0,0.0,0.0,0.0,0.0,0.0,0.0,0.0,0.0,0.0,0.0,0.0,0.0,-4.5594,-4.5594,-4.5438,-4.5107,-4.5107,-4.4775,-4.4058,-4.3742,-4.3742,-4.4058,-4.4428,-4.4364,-4.3887,-4.421,-4.3951,-4.3278,-4.4047,-4.4335,-4.4239,-4.347,-4.3143,-4.3104,-4.3104,-4.3104,-4.3008,-4.2181,-4.1865,-4.1758,-4.092,-4.0612,-4.0573,-4.0573,-4.0535,-4.0496,-4.0496,-4.0496,-4.0496,-4.0496,-4.0496,-4.0496,-4.0496,-4.0496,-4.0496,-4.0496,-3.9919,-3.9361,-3.9361,-3.9323,-3.8777,-3.7038,-3.6692,-3.6442,-3.5635,-3.55,-3.55,-3.55,-3.55,-3.55,-3.55,-3.55,-3.55,-3.55,-3.55,-3.5507,-3.5494,-3.5514,-3.5534,-3.5591,-3.5601,-3.5635,-3.5703,-3.5707,-3.5707,-3.5713,-3.5717,-3.5775,-3.5905,-3.5903,-3.5838,-3.571,-3.5644,-3.5601,-2.7832,-2.8769,-3.0059,-3.3476,-3.5469,-3.7012,-3.873,0.0,0.0,0.0,0.0,0.0,0.0,0.0,0.0,0.0,0.0,0.0,0.0,0.0,0.0,0.0,0.0,0.0,0.0,0.0,0.0,0.0,0.0,0.0,-4.5594,-4.5075,-4.4509,-4.3959,-4.3648,-4.3405,-4.3245,-4.3113,-4.3219,-4.3557,-4.3176,-4.3119,-4.3358,-4.3485,-4.3374,-4.3085,-4.2816,-4.2701,-4.2681,-4.2374,-4.1931,-4.1439,-4.1439,-4.1439,-4.1401,-4.1085,-4.0969,-4.0912,-4.0612,-4.0496,-4.0496,-4.0496,-4.0496,-4.0496,-4.0496,-4.0496,-4.0496,-4.0496,-4.0496,-4.0496,-4.0496,-4.0112,-3.9592,-3.9027,-3.8681,-3.8315,-3.7757,-3.7623,-3.7296,-3.6154,-3.5923,-3.5846,-3.5558,-3.55,-3.55,-3.55,-3.55,-3.55,-3.55,-3.55,-3.55,-3.55,-3.55,-3.55,-3.55,-3.55,-3.5508,-3.5534,-3.554,-3.5546,-3.5566,-3.5566,-3.559,-3.5639,-3.5639,-3.5679,-3.5766,-3.5732,-3.5678,-3.5639,-3.5574,-3.554,-2.7109,-2.7637,-2.8613,-3.1777,-3.3008,-3.4101,-3.6719,0.0,0.0,0.0,0.0,0.0,0.0,0.0,0.0,0.0,0.0,0.0,0.0,0.0,0.0,0.0,0.0,0.0,0.0,0.0,0.0,0.0,0.0,0.0,-4.4767,-4.4201,-4.3599,-4.2919,-4.2599,-4.2378,-4.2217,-4.2236,-4.2337,-4.2548,-4.2259,-4.217,-4.2346,-4.2548,-4.2508,-4.22,-4.1623,-4.1527,-4.1769,-4.1489,-4.1027,-4.0496,-4.0496,-4.0496,-4.0496,-4.0496,-4.0496,-4.0496,-4.0496,-4.0496,-4.0496,-4.0496,-4.0496,-4.0496,-4.0496,-4.0496,-4.0439,-4.0169,-4.0092,-4.0035,-3.9746,-3.9265,-3.8642,-3.7777,-3.7565,-3.7334,-3.6481,-3.65,-3.6462,-3.5654,-3.55,-3.55,-3.55,-3.55,-3.55,-3.55,-3.55,-3.55,-3.55,-3.55,-3.55,-3.55,-3.55,-3.55,-3.55,-3.55,-3.55,-3.55,-3.55,-3.55,-3.55,-3.55,-3.5515,-3.5574,-3.5574,-3.5585,-3.5635,-3.5611,-3.5585,-3.5574,-3.5515,-3.55,0.0,0.0,0.0,0.0,0.0,0.0,0.0,0.0,0.0,0.0,0.0,0.0,0.0,0.0,0.0,0.0,0.0,0.0,0.0,0.0,0.0,0.0,0.0,0.0,0.0,0.0,0.0,0.0,0.0,-4.3104,-4.3104,-4.3077,-4.2728,-4.2045,-4.2039,-4.1739,-4.1075,-4.1058,-4.1075,-4.1089,-4.1729,-4.1587,-4.0818,-4.1465,-4.1296,-4.0496,-4.0496,-4.0969,-4.17,-4.0854,-4.0496,-4.0496,-4.0496,-4.0496,-4.0496,-4.0496,-4.0496,-4.0496,-4.0496,-4.0496,-4.0496,-4.0496,-4.0477,-4.0458,-4.0458,-4.0458,-4.0265,-3.9477,-3.9265,-3.9073,-3.818,-3.7969,-3.7738,-3.6865,-3.6654,-3.6442,-3.5673,-3.6115,-3.6423,-3.5654,-3.55,-3.55,-3.55,-3.55,-3.55,-3.55,-3.55,-3.55,-3.55,-3.55,-3.55,-3.55,-3.55,-3.55,-3.55,-3.55,-3.55,-3.55,-3.55,-3.55,-3.55,-3.55,-3.55,-3.55,-3.55,-3.55,-3.55,-3.5574,-3.5568,-3.55,-3.55,-3.55,-2.5879,0.0,0.0,0.0,0.0,0.0,0.0,0.0,0.0,0.0,0.0,0.0,0.0,0.0,0.0,0.0,0.0,0.0,0.0,0.0,0.0,0.0,0.0,0.0,0.0,0.0,0.0,0.0,0.0,-4.3104,-4.3104,-4.2257,-4.1338,-4.0309,-4.0615,-4.0616,-4.0246,-4.023,-4.0451,-4.0881,-4.0484,-4.039,-4.0593,-4.0779,-4.0727,-4.0496,-4.0496,-4.065,-4.0835,-4.0593,-4.0496,-4.0496,-4.0496,-4.0496,-4.0496,-4.0496,-4.0496,-4.0496,-4.0496,-4.0496,-4.0496,-4.0496,-4.0112,-3.9631,-3.9631,-3.9188,-3.8642,-3.8411,-3.8354,-3.8161,-3.7296,-3.7065,-3.6846,-3.6019,-3.5827,-3.5769,-3.5558,-3.5673,-3.5769,-3.5538,-3.55,-3.55,-3.55,-3.55,-3.55,-3.55,-3.55,-3.55,-3.55,-3.55,-3.55,-3.55,-3.55,-3.55,-3.55,-3.55,-3.55,-3.55,-3.55,-3.55,-3.55,-3.55,-3.55,-3.55,-3.55,-3.55,-3.55,-3.5515,-3.5509,-3.55,-3.55,-3.55,-2.6929,-2.7067,-2.7556,0.0,0.0,0.0,0.0,-3.083,0.0,0.0,0.0,0.0,0.0,0.0,0.0,0.0,0.0,0.0,0.0,0.0,0.0,0.0,0.0,0.0,0.0,0.0,0.0,0.0,-4.2008,-4.2008,-4.2008,-4.1353,-4.0539,-3.963,-3.9877,-3.9816,-3.9386,-3.9405,-3.963,-4.0071,-3.9397,-3.9248,-3.9613,-3.9514,-3.9392,-3.932,-3.9784,-3.9996,-4.0035,-4.0362,-4.0496,-4.0496,-4.0496,-4.0496,-4.0496,-4.0496,-4.0496,-4.0496,-4.0496,-4.0285,-3.9996,-3.9996,-3.9438,-3.8757,-3.8757,-3.8392,-3.7911,-3.7565,-3.7219,-3.6834,-3.6327,-3.6192,-3.6077,-3.5615,-3.55,-3.55,-3.55,-3.55,-3.55,-3.55,-3.55,-3.55,-3.55,-3.55,-3.55,-3.55,-3.55,-3.55,-3.55,-3.55,-3.55,-3.55,-3.55,-3.55,-3.55,-3.55,-3.55,-3.55,-3.55,-3.55,-3.55,-3.55,-3.55,-3.55,-3.55,-3.55,-3.55,-3.55,-3.55,-3.5481,-3.5141,-3.4968,-2.8615,-2.8443,-2.8643,0.0,0.0,0.0,-3.0597,-3.023,0.0,0.0,0.0,0.0,0.0,0.0,0.0,0.0,0.0,0.0,0.0,0.0,0.0,0.0,0.0,0.0,0.0,0.0,0.0,-4.0554,-4.0496,-4.0496,-4.0496,-4.0496,-4.0211,-3.9622,-3.9599,-3.9301,-3.8707,-3.8707,-3.8792,-3.8963,-3.85,-3.8286,-3.8266,-3.8087,-3.7851,-3.7667,-3.87,-3.9169,-3.9207,-3.9938,-4.0323,-4.0496,-4.0496,-4.0496,-4.0496,-4.0496,-4.0439,-4.0362,-4.0362,-3.9842,-3.9169,-3.9169,-3.8565,-3.7853,-3.7853,-3.7796,-3.7565,-3.6769,-3.6058,-3.55,-3.55,-3.55,-3.55,-3.55,-3.55,-3.55,-3.55,-3.55,-3.55,-3.55,-3.55,-3.55,-3.55,-3.55,-3.55,-3.55,-3.55,-3.55,-3.55,-3.55,-3.55,-3.55,-3.55,-3.55,-3.55,-3.55,-3.55,-3.55,-3.55,-3.55,-3.55,-3.55,-3.55,-3.55,-3.55,-3.5442,-3.5365,-3.5365,-3.5365,-3.5327,-3.4449,-3.4071,-3.051,-3.0614,0.0,0.0,0.0,0.0,-2.7225,-2.7595,0.0,0.0,0.0,0.0,0.0,0.0,0.0,0.0,0.0,0.0,0.0,0.0,0.0,0.0,0.0,0.0,0.0,0.0,-4.0689,-4.0516,-4.0496,-4.0496,-4.0496,-4.0496,-4.0211,-3.9622,-3.9599,-3.9301,-3.8707,-3.8707,-3.8497,-3.8143,-3.8256,-3.7996,-3.7448,-3.7827,-3.7851,-3.7628,-3.8059,-3.8257,-3.8277,-3.8411,-3.9277,-4.0496,-4.0496,-4.0496,-4.0496,-4.0496,-4.0092,-3.9534,-3.9534,-3.8969,-3.8257,-3.8257,-3.7661,-3.6942,-3.6942,-3.65,-3.5942,-3.5788,-3.5615,-3.55,-3.55,-3.55,-3.55,-3.55,-3.55,-3.55,-3.55,-3.55,-3.55,-3.55,-3.55,-3.55,-3.55,-3.55,-3.55,-3.55,-3.55,-3.55,-3.55,-3.55,-3.55,-3.55,-3.55,-3.55,-3.55,-3.55,-3.55,-3.55,-3.55,-3.55,-3.55,-3.55,-3.55,-3.55,-3.55,-3.5154,-3.4449,-3.4449,-3.4449,-3.443,-3.3564,-3.3141,-3.2203,0.0,0.0,-3.0317,0.0,0.0,0.0,0.0,0.0,0.0,0.0,0.0,0.0,0.0,0.0,0.0,0.0,0.0,0.0,0.0,0.0,0.0,0.0,0.0,0.0,0.0,-3.99,-3.99,-4.0265,-4.0323,-3.9919,-3.99,-3.9618,-3.9029,-3.8573,-3.8066,-3.7496,-3.7496,-3.7442,-3.7299,-3.7024,-3.6707,-3.6363,-3.6489,-3.6405,-3.6207,-3.6995,-3.7353,-3.7392,-3.7815,-3.8507,-3.9238,-3.9238,-3.9238,-3.9238,-3.9238,-3.8988,-3.8642,-3.8642,-3.8084,-3.7353,-3.7353,-3.6769,-3.6096,-3.6096,-3.5827,-3.55,-3.55,-3.55,-3.55,-3.55,-3.55,-3.55,-3.55,-3.55,-3.55,-3.55,-3.55,-3.55,-3.55,-3.55,-3.55,-3.55,-3.55,-3.55,-3.55,-3.55,-3.55,-3.55,-3.55,-3.55,-3.55,-3.55,-3.55,-3.55,-3.55,-3.55,-3.55,-3.55,-3.55,-3.55,-3.55,-3.55,-3.55,-3.55,-3.5064,-3.4205,-3.3763,-3.3545,-3.3526,-3.2699,-3.2295,0.0,0.0,0.0,0.0,0.0,-3.0998,0.0,0.0,0.0,-2.9715,0.0,0.0,0.0,0.0,0.0,0.0,0.0,0.0,0.0,0.0,0.0,0.0,0.0,0.0,0.0,0.0,-3.87,-3.9034,-3.9361,-3.94,-3.9073,-3.9053,-3.8776,-3.8172,-3.7459,-3.6843,-3.6317,-3.6303,-3.6311,-3.6378,-3.5777,-3.5398,-3.5163,-3.5116,-3.4954,-3.4762,-3.5951,-3.6462,-3.6519,-3.7238,-3.7526,-3.7546,-3.7873,-3.8007,-3.8007,-3.8007,-3.7892,-3.7757,-3.7757,-3.7199,-3.6462,-3.6462,-3.6038,-3.55,-3.55,-3.55,-3.55,-3.55,-3.55,-3.55,-3.55,-3.55,-3.55,-3.55,-3.55,-3.55,-3.55,-3.55,-3.55,-3.55,-3.55,-3.55,-3.55,-3.55,-3.55,-3.55,-3.55,-3.55,-3.55,-3.55,-3.55,-3.55,-3.55,-3.55,-3.55,-3.55,-3.55,-3.55,-3.55,-3.55,-3.55,-3.55,-3.55,-3.55,-3.55,-3.4988,-3.3955,-3.3237,-3.2814,-3.2641,-3.1833,-3.1448,0.0,0.0,0.0,0.0,-3.275,0.0,0.0,0.0,-2.9767,-2.8453,0.0,0.0,0.0,0.0,0.0,0.0,0.0,0.0,0.0,0.0,0.0,0.0,0.0,0.0,0.0,0.0,0.0,-3.8046,-3.6873,-3.668,-3.8065,-3.8142,-3.7876,-3.7273,-3.7157,-3.6843,-3.6317,-3.6303,-3.5932,-3.5202,-3.5391,-3.4964,-3.4023,-3.4763,-3.4954,-3.4724,-3.535,-3.5635,-3.5635,-3.5731,-3.5788,-3.5923,-3.743,-3.8007,-3.8007,-3.8007,-3.7507,-3.6846,-3.6846,-3.6327,-3.5635,-3.5635,-3.5577,-3.55,-3.55,-3.55,-3.55,-3.55,-3.55,-3.55,-3.55,-3.55,-3.55,-3.55,-3.55,-3.55,-3.55,-3.55,-3.55,-3.55,-3.55,-3.55,-3.55,-3.55,-3.55,-3.55,-3.55,-3.55,-3.55,-3.55,-3.55,-3.55,-3.55,-3.55,-3.55,-3.55,-3.55,-3.55,-3.55,-3.55,-3.55,-3.55,-3.55,-3.55,-3.55,-3.4692,-3.3045,-3.2949,-3.2526,-3.1814,-3.0942,-3.0558,0.0,0.0,0.0,0.0,0.0,0.0,-3.0737,0.0,-2.9583,0.0,0.0,0.0,0.0,0.0,0.0,0.0,0.0,0.0,0.0,0.0,0.0,0.0,0.0,0.0,0.0,0.0,0.0,0.0,0.0,-3.5808,-3.65,-3.6846,-3.683,-3.6424,-3.575,-3.5231,-3.4848,-3.4853,-3.4669,-3.4321,-3.4463,-3.4265,-3.3815,-3.4345,-3.4615,-3.4704,-3.4944,-3.5122,-3.5273,-3.5273,-3.5273,-3.5346,-3.6207,-3.6538,-3.6538,-3.6538,-3.6327,-3.6,-3.6,-3.5788,-3.55,-3.55,-3.55,-3.55,-3.55,-3.55,-3.55,-3.55,-3.55,-3.55,-3.55,-3.55,-3.55,-3.55,-3.55,-3.55,-3.55,-3.55,-3.55,-3.55,-3.55,-3.55,-3.55,-3.55,-3.55,-3.55,-3.55,-3.55,-3.55,-3.55,-3.55,-3.55,-3.55,-3.55,-3.55,-3.55,-3.55,-3.55,-3.55,-3.55,-3.55,-3.55,-3.55,-3.55,-3.55,-3.4635,-3.2891,-3.2891,-3.2237,-3.0942,-3.0577,-3.0404,-3.5846,0.0,0.0,0.0,0.0,0.0,0.0,0.0,0.0,0.0,0.0,0.0,0.0,0.0,0.0,0.0,0.0,0.0,0.0,0.0,0.0,0.0,0.0,0.0,0.0,0.0,0.0,0.0,0.0,0.0,-3.5096,-3.5438,-3.5598,-3.5574,-3.469,-3.408,-3.3788,-3.3807,-3.3807,-3.3807,-3.3807,-3.3807,-3.382,-3.408,-3.4334,-3.4561,-3.4663,-3.4803,-3.499,-3.499,-3.5025,-3.5113,-3.5312,-3.5439,-3.55,-3.55,-3.55,-3.55,-3.55,-3.55,-3.55,-3.55,-3.55,-3.55,-3.55,-3.55,-3.55,-3.55,-3.55,-3.55,-3.55,-3.55,-3.55,-3.55,-3.55,-3.55,-3.55,-3.55,-3.55,-3.55,-3.55,-3.55,-3.55,-3.55,-3.55,-3.55,-3.55,-3.55,-3.55,-3.55,-3.55,-3.55,-3.55,-3.55,-3.55,-3.55,-3.55,-3.55,-3.55,-3.55,-3.55,-3.55,-3.55,-3.55,-3.55,-3.475,-3.3256,-3.3026,-3.216,-3.075,-3.0519,-3.0404,0.0,0.0,0.0,-3.2602,0.0,0.0,0.0,0.0,-3.0365,0.0,0.0,0.0,0.0,0.0,-2.88,-2.7992,0.0,0.0,0.0,0.0,0.0,0.0,0.0,0.0,0.0,0.0,0.0,0.0,0.0,0.0,-3.4071,-3.4003,-3.4135,-3.4723,-3.4398,-3.408,-3.3788,-3.3807,-3.3807,-3.3807,-3.3807,-3.3807,-3.382,-3.408,-3.42,-3.4223,-3.4561,-3.4694,-3.4704,-3.4704,-3.487,-3.5105,-3.5105,-3.5273,-3.55,-3.55,-3.55,-3.55,-3.55,-3.55,-3.55,-3.55,-3.55,-3.55,-3.55,-3.55,-3.55,-3.55,-3.55,-3.55,-3.55,-3.55,-3.55,-3.55,-3.55,-3.55,-3.55,-3.55,-3.55,-3.55,-3.55,-3.55,-3.55,-3.55,-3.55,-3.55,-3.55,-3.55,-3.55,-3.55,-3.55,-3.55,-3.55,-3.55,-3.55,-3.55,-3.55,-3.55,-3.55,-3.55,-3.55,-3.55,-3.55,-3.55,-3.55,-3.5064,-3.4167,-3.3314,-3.2468,-3.1641,-3.0788,-3.0404,0.0,0.0,-3.6873,-3.4064,0.0,0.0,0.0,0.0,0.0,0.0,0.0,0.0,0.0,0.0,-2.8838,-2.803,-2.7409,0.0,0.0,0.0,0.0,0.0,0.0,0.0,0.0,0.0,0.0,0.0,0.0,0.0,0.0,-3.3176,-3.363,-3.3825,-3.391,-3.3889,-3.3807,-3.3807,-3.3807,-3.3807,-3.3807,-3.3807,-3.3788,-3.3889,-3.4031,-3.4169,-3.3572,-3.3699,-3.433,-3.3799,-3.3947,-3.4534,-3.4944,-3.5166,-3.5266,-3.5439,-3.55,-3.55,-3.55,-3.55,-3.55,-3.55,-3.55,-3.55,-3.55,-3.5376,-3.525,-3.525,-3.5105,-3.4972,-3.4972,-3.4972,-3.4972,-3.4972,-3.4972,-3.5016,-3.5198,-3.525,-3.525,-3.525,-3.525,-3.525,-3.525,-3.525,-3.5297,-3.546,-3.55,-3.55,-3.55,-3.55,-3.55,-3.55,-3.55,-3.55,-3.55,-3.55,-3.55,-3.55,-3.55,-3.55,-3.55,-3.55,-3.55,-3.55,-3.55,-3.4788,-3.3333,-3.3045,-3.2199,-3.0827,-3.0538,-3.0404,-3.6865,-3.7123,0.0,0.0,-3.416,0.0,-3.175,0.0,0.0,0.0,0.0,0.0,0.0,0.0,-2.8934,-2.8415,-2.7351,-2.6486,0.0,0.0,0.0,0.0,0.0,0.0,0.0,0.0,-2.7044,-2.8121,0.0,0.0,0.0,0.0,-3.3089,-3.3391,-3.366,-3.3807,-3.3807,-3.3807,-3.3807,-3.3807,-3.3807,-3.3807,-3.3788,-3.3495,-3.3466,-3.3592,-3.2593,-3.2741,-3.3592,-3.3067,-3.3386,-3.4246,-3.4755,-3.5027,-3.513,-3.5391,-3.55,-3.55,-3.55,-3.55,-3.55,-3.55,-3.55,-3.5486,-3.5383,-3.5231,-3.5088,-3.4981,-3.4822,-3.4694,-3.4694,-3.4694,-3.4694,-3.4694,-3.4694,-3.4744,-3.4926,-3.4954,-3.4954,-3.4954,-3.4954,-3.4954,-3.4954,-3.4954,-3.5088,-3.5446,-3.55,-3.55,-3.55,-3.55,-3.55,-3.55,-3.55,-3.55,-3.55,-3.55,-3.55,-3.55,-3.55,-3.55,-3.55,-3.55,-3.55,-3.55,-3.55,-3.4788,-3.3353,-3.3045,-3.2199,-3.0846,-3.0538,-3.0404]},{"header":{"parameterUnit":"m.s-1","parameterCategory":1,"la1":30.6,"la2":29.2853,"lo1":-89.7004,"lo2":-87.6739,"dy":0.0162,"dx":0.0183,"nx":112,"ny":82,"refTime":"2024-06-01T06:00:00:Z","depth":0,"parameterNumber":3,"parameterNumberName":"V-component_of_WINDS"},"data":[0.0,0.0,0.0,0.0,0.0,0.0,0.0,0.0,0.0,0.0,0.0,0.0,0.0,0.0,0.0,0.0,0.0,0.0,0.0,0.0,0.0,0.0,0.0,0.0,0.0,0.0,0.0,0.0,0.0,0.0,0.0,0.0,0.0,0.0,0.0,0.0,0.0,0.0,0.0,0.0,0.0,0.0,0.0,0.0,0.0,0.0,0.0,0.0,0.0,0.0,0.0,0.0,0.0,0.0,0.0,0.0,0.0,0.0,0.0,0.0,0.0,0.0,0.0,0.0,0.0,0.0,0.0,0.0,0.0,0.0,0.0,0.0,0.0,0.0,0.0,0.0,0.0,0.0,0.0,0.0,0.0,0.0,0.0,0.0,0.0,0.0,0.0,0.0,0.0,0.0,0.0,-0.7189,-0.7876,-0.8233,-0.8041,-0.9979,-1.0639,-0.9365,0.0,0.0,0.0,0.0,0.0,0.0,0.0,0.0,0.0,0.0,0.0,0.0,0.0,0.0,0.0,0.0,0.0,0.0,0.0,0.0,0.0,0.0,0.0,0.0,0.0,0.0,0.0,0.0,0.0,0.0,0.0,0.0,0.0,0.0,0.0,0.0,0.0,0.0,0.0,0.0,0.0,0.0,0.0,0.0,0.0,0.0,0.0,0.0,0.0,0.0,0.0,0.0,0.0,0.0,0.0,0.0,0.0,0.0,0.0,0.0,0.0,0.0,0.0,0.0,0.0,0.0,0.0,0.0,0.0,0.0,0.0,0.0,0.0,0.0,0.0,0.0,0.0,0.0,0.0,0.0,0.0,0.0,0.0,0.0,0.0,0.0,0.0,0.0,0.0,0.0,0.0,0.0,0.0,0.0,0.0,0.0,0.0,0.0,0.0,0.0,0.0,0.0,0.0,0.0,-0.6865,-0.7756,-0.8958,-0.9217,-0.8088,-0.9104,-0.9678,-0.9315,0.0,0.0,0.0,0.0,0.0,0.0,0.0,0.0,0.0,0.0,0.0,0.0,0.0,0.0,0.0,0.0,0.0,0.0,0.0,0.0,0.0,0.0,0.0,0.0,0.0,0.0,0.0,0.0,0.0,0.0,0.0,0.0,0.0,0.0,0.0,0.0,0.0,0.0,0.0,0.0,0.0,0.0,0.0,0.0,0.0,0.0,0.0,0.0,0.0,0.0,0.0,0.0,0.0,0.0,0.0,0.0,0.0,0.0,0.0,0.0,0.0,0.0,0.0,0.0,0.0,0.0,0.0,0.0,0.0,0.0,0.0,0.0,0.0,0.0,0.0,0.0,0.0,0.0,0.0,0.0,0.0,0.0,0.0,0.0,0.0,0.0,0.0,0.0,0.0,0.0,0.0,0.0,0.0,0.0,0.0,0.0,0.0,0.0,0.0,0.0,0.0,0.0,0.0,-0.6552,-0.7058,-0.7894,-0.8528,-0.897,-0.9069,-0.9271,-0.9647,-1.0289,-1.0558,0.0,0.0,0.0,0.0,0.0,0.0,0.0,0.0,0.0,0.0,0.0,0.0,0.0,0.0,0.0,0.0,0.0,0.0,0.0,0.0,0.0,0.0,0.0,0.0,0.0,0.0,0.0,0.0,0.0,0.0,0.0,0.0,0.0,0.0,0.0,0.0,0.0,0.0,0.0,0.0,0.0,0.0,0.0,0.0,0.0,0.0,0.0,0.0,0.0,0.0,0.0,0.0,0.0,0.0,0.0,0.0,0.0,0.0,0.0,0.0,0.0,0.0,0.0,0.0,0.0,0.0,0.0,0.0,0.0,0.0,0.0,0.0,0.0,0.0,0.0,0.0,0.0,0.0,0.0,0.0,0.0,0.0,0.0,0.0,0.0,0.0,0.0,0.0,0.0,0.0,0.0,0.0,0.0,0.0,0.0,0.0,0.0,0.0,0.0,0.0,0.0,0.0,-0.6976,-0.7287,-0.7921,-0.8283,-0.8874,-0.9899,-0.9533,-0.9657,-1.0769,-0.9777,0.0,0.0,0.0,0.0,0.0,0.0,0.0,0.0,0.0,0.0,0.0,0.0,0.0,0.0,0.0,0.0,0.0,0.0,0.0,0.0,0.0,0.0,0.0,0.0,0.0,0.0,0.0,0.0,0.0,0.0,0.0,0.0,0.0,0.0,0.0,0.0,0.0,0.0,0.0,0.0,0.0,0.0,0.0,0.0,0.0,0.0,0.0,0.0,0.0,0.0,0.0,0.0,0.0,0.0,0.0,0.0,0.0,0.0,0.0,0.0,0.0,0.0,0.0,0.0,0.0,0.0,0.0,0.0,0.0,0.0,0.0,0.0,0.0,0.0,0.0,0.0,0.0,0.0,0.0,0.0,0.0,0.0,0.0,0.0,0.0,0.0,0.0,0.0,0.0,0.0,0.0,0.0,0.0,0.0,0.0,0.0,0.0,0.0,0.0,0.0,0.0,0.0,-0.7119,-0.7678,-0.7955,-0.9118,-0.9903,-0.9998,-0.9354,-0.9192,-0.9754,-0.8324,0.0,0.0,0.0,0.0,0.0,0.0,0.0,0.0,0.0,0.0,0.0,0.0,0.0,0.0,0.0,0.0,0.0,0.0,0.0,0.0,0.0,0.0,0.0,0.0,0.0,0.0,0.0,0.0,0.0,0.0,0.0,0.0,0.0,0.0,0.0,0.0,0.0,0.0,0.0,0.0,0.0,0.0,0.0,0.0,0.0,0.0,0.0,0.0,0.0,0.0,0.0,0.0,0.0,0.0,0.0,0.0,0.0,0.0,0.0,0.0,0.0,0.0,0.0,0.0,0.0,0.0,0.0,0.0,0.0,0.0,0.0,0.0,0.0,0.0,0.0,0.0,0.0,0.0,0.0,0.0,0.0,0.0,0.0,0.0,0.0,0.0,0.0,0.0,0.0,0.0,0.0,0.0,0.0,0.0,0.0,0.0,0.0,0.0,0.0,0.0,0.0,0.0,-0.6834,-0.7355,0.0,-0.8432,-0.9076,-0.9833,-0.8696,-0.8432,-0.9507,0.0,0.0,0.0,0.0,0.0,0.0,0.0,0.0,0.0,0.0,0.0,0.0,0.0,0.0,0.0,0.0,0.0,0.0,0.0,0.0,0.0,0.0,0.0,0.0,0.0,0.0,0.0,0.0,0.0,0.0,0.0,0.0,0.0,0.0,0.0,0.0,0.0,0.0,0.0,0.0,0.0,0.0,0.0,0.0,0.0,0.0,0.0,0.0,0.0,0.0,0.0,0.0,0.0,0.0,0.0,0.0,0.0,0.0,0.0,0.0,0.0,0.0,0.0,0.0,0.0,0.0,0.0,0.0,0.0,0.0,0.0,0.0,0.0,0.0,0.0,0.0,0.0,0.0,0.0,0.0,0.0,0.0,0.0,0.0,0.0,0.0,0.0,0.0,0.0,0.0,0.0,0.0,0.0,0.0,0.0,0.0,0.0,0.0,0.0,0.0,0.0,0.0,-0.6108,-0.6705,-0.7299,0.0,-0.7917,-0.8458,-0.9679,-0.8129,-0.7659,-0.8939,0.0,0.0,0.0,0.0,0.0,0.0,0.0,0.0,0.0,0.0,0.0,0.0,0.0,0.0,0.0,0.0,0.0,0.0,0.0,0.0,0.0,0.0,0.0,0.0,0.0,0.0,0.0,0.0,0.0,0.0,0.0,0.0,0.0,0.0,0.0,0.0,0.0,0.0,0.0,0.0,0.0,0.0,0.0,0.0,0.0,0.0,0.0,0.0,0.0,0.0,0.0,0.0,0.0,0.0,0.0,0.0,0.0,0.0,0.0,0.0,0.0,0.0,0.0,0.0,0.0,0.0,0.0,0.0,0.0,0.0,0.0,0.0,0.0,0.0,0.0,0.0,0.0,0.0,0.0,0.0,0.0,0.0,0.0,0.0,0.0,0.0,0.0,0.0,0.0,0.0,0.0,0.0,0.0,0.0,0.0,0.0,0.0,0.0,0.0,0.0,0.0,0.0,-0.5952,-0.6814,-0.7482,-0.7777,-0.7811,-0.8331,-0.9658,-0.7756,-0.6926,0.0,0.0,0.0,0.0,0.0,0.0,0.0,0.0,0.0,0.0,0.0,0.0,0.0,0.0,0.0,0.0,0.0,0.0,0.0,0.0,0.0,0.0,0.0,0.0,0.0,0.0,0.0,0.0,0.0,0.0,0.0,0.0,0.0,0.0,0.0,0.0,0.0,0.0,0.0,0.0,0.0,0.0,0.0,0.0,0.0,0.0,0.0,0.0,0.0,0.0,0.0,0.0,0.0,0.0,0.0,0.0,0.0,0.0,0.0,0.0,0.0,0.0,0.0,0.0,0.0,0.0,0.0,0.0,0.0,0.0,0.0,0.0,0.0,0.0,0.0,0.0,0.0,0.0,0.0,0.0,0.0,0.0,0.0,0.0,0.0,0.0,0.0,0.0,0.0,0.0,0.0,0.0,0.0,0.0,0.0,0.0,0.0,0.0,0.0,0.0,0.0,0.0,0.0,-0.5952,-0.6677,-0.7326,-0.7631,-0.7662,-0.7714,-0.7894,-0.7115,-0.6527,-0.6321,0.0,0.0,0.0,0.0,0.0,0.0,0.0,0.0,0.0,0.0,0.0,0.0,0.0,0.0,0.0,0.0,0.0,0.0,0.0,0.0,0.0,0.0,0.0,0.0,0.0,0.0,0.0,0.0,0.0,0.0,0.0,0.0,0.0,0.0,0.0,0.0,0.0,0.0,0.0,0.0,0.0,0.0,0.0,0.0,0.0,0.0,0.0,0.0,0.0,0.0,0.0,0.0,0.0,0.0,0.0,0.0,0.0,0.0,0.0,0.0,0.0,0.0,0.0,0.0,0.0,0.0,0.0,0.0,0.0,0.0,0.0,0.0,0.0,0.0,0.0,0.0,0.0,0.0,0.0,0.0,0.0,0.0,0.0,0.0,0.0,0.0,0.0,0.0,0.0,0.0,0.0,0.0,0.0,0.0,0.0,0.0,0.0,0.0,0.0,0.0,0.0,0.0,-0.5901,-0.6552,-0.7129,-0.7475,-0.7509,-0.7411,-0.7115,-0.6868,-0.6383,-0.5637,0.0,0.0,0.0,0.0,0.0,0.0,0.0,0.0,0.0,0.0,0.0,0.0,0.0,0.0,0.0,0.0,0.0,0.0,0.0,0.0,0.0,0.0,0.0,0.0,0.0,0.0,0.0,0.0,0.0,0.0,0.0,0.0,0.0,0.0,0.0,0.0,0.0,0.0,0.0,0.0,0.0,0.0,0.0,0.0,0.0,0.0,0.0,0.0,0.0,0.0,0.0,0.0,0.0,0.0,0.0,0.0,0.0,0.0,0.0,0.0,0.0,0.0,0.0,0.0,0.0,0.0,0.0,0.0,0.0,0.0,0.0,0.0,0.0,0.0,0.0,0.0,0.0,0.0,0.0,0.0,0.0,0.0,0.0,0.0,0.0,0.0,0.0,0.0,0.0,0.0,0.0,0.0,0.0,0.0,0.0,0.0,0.0,0.0,0.0,0.0,0.0,0.0,-0.5762,-0.6451,-0.7021,-0.7319,-0.735,-0.7282,-0.7068,-0.6841,-0.6366,-0.5637,0.0,0.0,0.0,0.0,0.0,0.0,0.0,0.0,0.0,0.0,0.0,0.0,0.0,0.0,0.0,0.0,0.0,0.0,0.0,0.0,0.0,0.0,0.0,0.0,0.0,0.0,0.0,0.0,0.0,0.0,0.0,0.0,0.0,0.0,0.0,0.0,0.0,0.0,0.0,0.0,0.0,0.0,0.0,0.0,0.0,0.0,0.0,0.0,0.0,0.0,0.0,0.0,0.0,0.0,0.0,0.0,0.0,0.0,0.0,0.0,0.0,0.0,0.0,0.0,0.0,0.0,0.0,0.0,0.0,0.0,0.0,0.0,0.0,0.0,0.0,0.0,0.0,0.0,0.0,0.0,0.0,0.0,0.0,0.0,0.0,0.0,0.0,0.0,0.0,0.0,0.0,0.0,0.0,0.0,0.0,0.0,0.0,0.0,0.0,0.0,0.0,0.0,-0.5762,-0.6356,-0.6861,-0.7115,-0.7146,-0.7082,-0.6817,-0.6627,-0.6254,-0.563,0.0,0.0,0.0,0.0,0.0,0.0,0.0,0.0,0.0,0.0,0.0,0.0,0.0,0.0,0.0,0.0,0.0,0.0,0.0,0.0,0.0,0.0,0.0,0.0,0.0,0.0,0.0,0.0,0.0,0.0,0.0,0.0,0.0,0.0,0.0,0.0,0.0,0.0,0.0,0.0,0.0,0.0,0.0,0.0,0.0,0.0,0.0,0.0,0.0,0.0,0.0,0.0,0.0,0.0,0.0,0.0,0.0,0.0,0.0,0.0,0.0,0.0,0.0,0.0,0.0,0.0,0.0,0.0,0.0,0.0,0.0,0.0,0.0,0.0,0.0,0.0,0.0,0.0,0.0,0.0,0.0,0.0,0.0,0.0,0.0,0.0,0.0,0.0,0.0,0.0,0.0,0.0,0.0,0.0,0.0,0.0,0.0,0.0,0.0,0.0,0.0,0.0,-0.5762,-0.6329,-0.6814,-0.7065,-0.7034,-0.6903,-0.6719,-0.6559,-0.6259,-0.5627,-0.5372,0.0,0.0,0.0,0.0,0.0,0.0,0.0,0.0,0.0,0.0,0.0,0.0,0.0,0.0,0.0,0.0,0.0,0.0,0.0,0.0,0.0,0.0,0.0,0.0,0.0,0.0,0.0,0.0,0.0,0.0,0.0,0.0,0.0,0.0,0.0,0.0,0.0,0.0,0.0,0.0,0.0,0.0,0.0,0.0,0.0,0.0,0.0,0.0,0.0,0.0,0.0,0.0,0.0,0.0,0.0251,0.0,0.0,0.0,0.0,0.0,0.0,0.0,0.0,0.0,0.0,0.0,0.0,0.0,0.0,0.0,0.0,0.0,0.0,0.0,0.0,0.0,0.0,0.0,0.0,0.0,0.0,0.0,0.0,0.0,0.0,0.0,0.0,-0.621,-0.62,0.0,0.0,0.0,0.0,0.0,0.0,0.0,0.0,0.0,0.0,0.0,0.0,-0.58,-0.6346,-0.6803,-0.7031,-0.6957,-0.6858,-0.6675,-0.6546,-0.6279,-0.5701,-0.5616,-0.533,0.0,0.0,0.0,0.0,0.0,0.0,0.0,0.0,0.0,0.0,0.0,0.0,0.0,0.0,0.0,0.0,0.0,0.0,0.0,0.0,0.0,0.0,0.0,0.0,0.0,0.0,0.0,0.0,0.0,0.0,0.0,0.0,0.6447,0.6731,0.0,0.0,0.0,0.0,0.0,0.0,0.0,0.0,0.0,0.0,0.0,0.0,0.0,0.0,0.4632,0.4329,0.3604,0.2473,0.2104,0.1213,0.0,0.0,0.0,0.0,0.0,0.0,0.0,0.0,0.0,0.0,0.0,0.0,0.0,0.0,0.0,0.0,0.0,0.0,0.0,0.0,0.0,0.0,0.0,0.0,0.0,0.0,0.0,0.0,0.0,0.0,-0.5724,-0.6708,-0.6859,-0.6776,0.0,-0.6017,-0.5566,-0.5488,0.0,0.0,0.0,0.0,0.0,0.0,0.0,0.0,-0.5909,-0.641,-0.6766,-0.6896,-0.6896,-0.6814,-0.6566,-0.6525,-0.6329,-0.5956,-0.5732,-0.5521,-0.5286,-0.4791,0.0,0.0,0.0,0.0,0.0,0.0,0.0,0.0,0.0,0.0,0.0,0.0,0.0,0.0,0.0,0.0,0.0,0.0,0.0,0.0,0.0,0.0,0.0,0.0,0.0,0.0,0.0,0.0,0.0,0.6434,0.6929,0.7153,0.7193,0.7112,0.0,0.0,0.0,0.0,0.0,0.0,0.0,0.0,0.0,0.6723,0.69,0.7048,0.7225,0.6295,0.5577,0.5056,0.3261,0.2027,0.1352,0.0447,0.0,0.0,0.0,0.0,0.0,0.0,0.0,0.0,0.0,0.0,0.0,0.0,0.0,0.0,0.0,0.0,0.0,0.0,0.0,0.0,0.0,0.0,0.0,0.0,0.0,0.0,0.0,0.0,0.0,-0.724,-0.7285,-0.716,-0.7092,-0.6692,-0.624,0.0,-0.5796,-0.561,-0.509,0.0,0.0,0.0,0.0,0.0,-0.5956,-0.6349,-0.663,-0.6783,-0.6722,-0.6617,-0.6521,-0.6439,-0.6262,-0.5922,-0.5779,-0.5566,-0.5243,-0.4979,-0.4691,0.0,0.0,0.0,0.0,0.0,0.0,0.0,0.0,0.0,0.0,0.0,0.0,0.0,0.0,0.0,0.0,0.0,0.0,0.0,0.0,0.0,0.0,0.0,0.0,0.0,0.0,0.0,0.0,0.6885,0.7312,0.7465,0.7655,0.7651,0.0,0.0,0.0,0.0,0.0,0.0,0.8197,0.8414,0.8435,0.8208,0.8298,0.8263,0.8048,0.6859,0.6149,0.5896,0.3527,0.2232,0.1821,0.0579,0.0,0.0,0.0,0.0,0.0,0.0,0.0,0.0,0.0,0.0,0.0,0.0,0.0,0.0,0.0,0.0,0.0,0.0,0.0,0.0,0.0,0.0,0.0,0.0,0.0,-0.3028,-0.4438,0.0,-0.6721,-0.7533,-0.7567,-0.7431,-0.7431,-0.7193,-0.6795,0.0,-0.6291,-0.6163,-0.5521,0.0,0.0,0.0,0.0,-0.5871,-0.6064,-0.6312,-0.6555,-0.663,-0.6539,-0.6497,-0.646,-0.6323,-0.6101,-0.5874,-0.5789,-0.5596,-0.5228,-0.5106,-0.4918,-0.4614,0.0,0.0,0.0,0.0,0.0,0.0,0.0,0.0,0.0,0.0,0.0,0.0,0.0,0.0,0.0,0.0,0.0,0.0,0.0,0.0,0.0,0.0,0.0,0.0,0.0,0.0,0.0,0.0,0.0,0.7773,0.8055,0.0,0.0,0.0,0.0,0.8265,0.8479,0.8716,0.8828,0.9032,0.843,0.684,0.6952,0.6361,0.4969,0.4719,0.3956,0.2702,0.2366,0.1469,0.0118,0.0058,0.0,0.0,0.0,0.0,0.0,0.0,0.0,0.0,0.0,0.0,0.0,0.0,0.0,0.0,0.0,0.0,0.0,0.0,0.0,0.0,0.0,0.0,0.0,0.0,-0.0136,-0.0789,-0.3369,-0.4138,-0.4797,-0.7381,-0.7797,-0.7587,-0.7587,-0.7346,-0.7038,0.0,-0.6654,-0.6446,-0.6272,0.0,-0.5776,-0.5759,-0.5783,-0.5908,-0.6248,-0.6419,-0.6515,-0.6521,-0.6518,-0.6457,-0.6323,-0.6129,-0.5996,-0.5983,-0.5755,-0.5589,-0.5566,-0.5159,-0.4887,-0.4867,-0.4442,0.0,0.0,0.0,0.0,0.0,0.0,0.0,0.0,0.0,0.0,0.0,0.0,0.0,0.0,0.0,0.0,0.0,0.0,0.0,0.0,0.0,0.0,0.0,0.0,0.0,0.0,0.0,0.0,0.836,0.8655,0.0,0.8557,0.8635,0.874,0.8886,0.8992,0.9103,0.9357,0.9418,0.9235,0.8808,0.8774,0.8576,0.8091,0.6933,0.6114,0.56,0.3456,0.212,0.1575,0.0478,0.0,0.0,0.0,0.0,0.0,0.0,0.0,0.0,0.0,0.0,0.0,0.0,0.0,0.0,0.0,0.0,0.0,0.0,0.0,0.0,0.0,0.0,0.0,0.0,-0.0615,-0.1683,-0.3508,-0.4636,-0.573,-0.7574,-0.7885,-0.7709,-0.7617,-0.7434,-0.7244,-0.7051,-0.6902,-0.6688,-0.6477,-0.6386,-0.6281,-0.5989,-0.6108,-0.6279,-0.6296,-0.6344,-0.6375,-0.6375,-0.6375,-0.6313,-0.6125,-0.6023,-0.5908,-0.562,-0.5535,-0.5392,-0.5165,-0.5003,-0.4874,-0.4772,-0.4518,-0.4189,0.0,0.0,0.0,0.0,0.0,0.0,0.0,0.0,0.0,0.0,0.0,0.0,0.0,0.0,0.0,0.0,0.0,0.0,0.0,0.0,0.0,0.0,0.0,0.0,0.0,0.0,0.853,0.8825,0.9123,0.9269,0.9174,0.9198,0.9354,0.9449,0.9562,0.9622,0.9825,0.9836,0.9675,0.9293,0.91,0.8823,0.8347,0.6616,0.577,0.5708,0.2953,0.1664,0.1601,0.0486,0.0,0.0,0.0,0.0,0.0,0.0,0.0,0.0,0.0,0.0,0.0,0.0,0.0,0.0,0.0,0.0,0.0,0.0,0.0,0.0,0.0,0.0,0.0,0.0,-0.0637,-0.1631,-0.2962,-0.4331,-0.5675,-0.6983,-0.754,-0.7712,-0.7621,-0.7438,-0.7261,-0.7115,-0.7021,-0.6893,-0.6732,-0.6742,-0.6678,-0.6337,-0.6458,-0.6538,-0.6388,-0.6371,-0.6354,-0.6306,-0.63,-0.6238,-0.6003,-0.5946,-0.5806,-0.5494,-0.5375,-0.5196,-0.4968,-0.4894,-0.4796,-0.4694,-0.4494,-0.4219,-0.3866,0.0,0.0,0.0,0.0,0.0,0.0,0.0,0.0,0.0,0.0,0.0,0.0,0.0,0.0,0.0,0.0,0.0,0.0,0.0,0.0,0.0,0.0,0.0,0.8012,0.8448,0.8842,0.9193,0.9439,0.9625,0.9632,0.9829,0.9994,0.9994,1.0195,1.028,1.028,1.028,0.957,0.7965,0.7723,0.6909,0.5277,0.3534,0.2648,0.2586,0.0863,0.0062,0.0,0.0,0.0,0.0,0.0,0.0,0.0,0.0,0.0,0.0,0.0,0.0,0.0,0.0,0.0,0.0,0.0,0.0,0.0,0.0,0.0,0.0,0.0,0.0,0.0,0.0,0.0,-0.0303,-0.1661,-0.2964,-0.4268,-0.5677,-0.6791,-0.7557,-0.76,-0.736,-0.7102,-0.7098,-0.7095,-0.7095,-0.7095,-0.698,-0.6889,-0.6886,-0.6803,0.0,-0.6532,-0.6511,-0.6457,-0.6317,-0.63,-0.6238,-0.6003,-0.5888,-0.5735,-0.5586,-0.5291,-0.509,-0.5083,-0.4843,-0.4691,-0.4691,-0.4375,-0.4153,-0.4001,0.0,0.0,0.0,0.0,0.0,0.0,0.0,0.0,0.0,0.0,0.0,0.0,0.0,0.0,0.0,0.0,0.0,0.0,0.0,0.0,0.0,0.0,0.8526,0.8526,0.8913,0.9306,0.9602,0.9808,0.9971,1.0083,1.0168,1.0215,1.0215,1.0256,1.028,1.028,1.028,1.0132,0.9777,0.9646,0.932,0.8871,0.7103,0.5526,0.4243,0.2585,0.1171,0.0,0.0,0.0,0.0,0.0,0.0,0.0,0.0,0.0,0.0,0.0,0.0,0.0,0.0,0.0,0.0,0.0,0.0,0.0,0.0,0.0,0.0,0.0,0.0,0.0,0.0,0.0,-0.0303,-0.1661,-0.2264,-0.3116,-0.5427,-0.6165,-0.6517,-0.7432,-0.7448,-0.7275,-0.7119,-0.7095,-0.7095,-0.7095,-0.7065,-0.7004,-0.6903,0.0,0.0,-0.6545,-0.6511,-0.6457,-0.6317,-0.63,-0.6238,-0.6003,-0.5888,-0.5647,0.0,-0.5049,-0.4897,-0.4816,-0.4731,-0.4691,-0.4691,-0.4501,-0.4331,0.0,0.0,0.0,0.0,0.0,0.0,0.0,0.0,0.0,0.0,0.0,0.0,0.0,0.0,0.0,0.0,0.0,0.0,0.0,0.0,0.0,0.0,0.8655,0.9015,0.9079,0.9313,0.9608,0.9971,1.0093,1.0229,1.0443,1.0466,1.0466,1.0466,1.0466,1.0466,1.0466,1.0466,1.05,1.0585,1.0446,1.0368,1.0368,0.8563,0.7063,0.6013,0.3639,0.1971,0.1048,0.0308,0.0,0.0,0.0,0.0,0.0,0.0,0.0,0.0,0.0,0.0,0.0,0.0,0.0,0.0,0.0,0.0,0.0,0.0,0.0,0.0,0.0,0.0,0.0,0.0,0.0,-0.0202,-0.0958,-0.1561,-0.2414,-0.3969,-0.5018,-0.5913,-0.6611,-0.7053,-0.7248,-0.7112,0.0,0.0,-0.7095,-0.7095,-0.7068,-0.6987,-0.6974,-0.6909,0.0,-0.6566,-0.6528,-0.632,-0.63,-0.6238,-0.6003,-0.5888,0.0,0.0,0.0,-0.4911,-0.4792,-0.4785,0.0,0.0,0.0,0.0,0.0,0.0,0.0,0.0,-0.4331,-0.4541,0.0,0.0,0.0,0.0,0.0,0.0,0.0,0.0,0.0,0.0,0.0,0.0,0.0,0.0,0.0,0.0,0.9059,0.9486,0.9639,0.9676,0.9832,1.0232,1.0293,1.0415,1.0694,1.0721,1.0721,1.0721,1.0721,1.0721,1.0721,0.0,0.0,0.0,0.0,1.051,1.049,0.8819,0.7807,0.7593,0.4526,0.2897,0.2462,0.0986,0.0182,0.0,0.0,0.0,0.0,0.0,0.0,0.0,0.0,0.0,0.0,0.0,0.0,0.0,0.0,0.0,0.0,0.0,0.0,0.0,0.0,0.0,0.0,0.0,0.0,0.0,0.0,-0.0907,-0.1811,-0.1957,-0.3606,-0.5209,-0.5388,-0.619,-0.6918,-0.6918,-0.7007,-0.7095,-0.7095,-0.7095,-0.7095,-0.7095,-0.7095,0.0,-0.6763,-0.6712,-0.6593,-0.6354,0.0,0.0,-0.6067,-0.5915,-0.5759,-0.5599,-0.5301,-0.5042,-0.4918,-0.4928,-0.4931,-0.4914,-0.4914,-0.4904,-0.4887,-0.4904,-0.4914,-0.4908,-0.4789,-0.4789,0.0,0.0,0.0,0.0,0.0,0.0,0.0,0.0,0.0,0.0,0.0,0.0,0.0,0.0,0.0,0.9133,0.9503,0.9788,0.9879,1.0073,1.0185,1.027,1.0382,1.0521,1.0704,1.0721,1.0721,1.0721,1.0721,1.0721,1.0721,1.0721,0.0,1.0721,1.069,1.0616,1.0493,1.0106,0.9124,0.7593,0.0,0.0,0.2462,0.2155,0.1281,0.0,0.0,0.0,0.0,0.0,0.0,0.0,0.0,0.0,0.0,0.0,0.0,0.0,0.0,0.0,0.0,0.0,0.0,0.0,0.0,0.0,0.0,0.0,0.0,0.0,0.0,-0.0202,-0.0653,-0.1728,-0.2272,-0.2838,-0.3905,-0.4996,-0.5714,-0.5714,-0.647,-0.7095,-0.7095,-0.7095,-0.7095,-0.7095,-0.7095,-0.7034,-0.6862,-0.6776,-0.663,-0.6491,-0.6368,-0.6286,-0.6255,-0.6074,-0.5874,-0.5606,-0.5301,-0.5086,-0.5059,-0.5209,-0.5216,-0.5059,-0.5059,-0.5002,-0.4887,-0.5002,-0.5059,-0.5056,-0.4911,-0.486,0.0,0.0,0.0,0.0,0.0,0.0,0.0,0.0,0.0,0.0,0.0,0.8065,0.0,0.0,0.9256,0.9554,0.9856,1.0076,1.0154,1.0293,1.0385,1.0385,1.0449,1.0551,1.0707,1.0721,1.0721,1.0721,1.0721,1.0721,1.0721,1.0721,1.0721,1.0721,1.0721,1.0683,1.0605,1.0531,0.9989,0.8953,0.8065,0.6664,0.4913,0.3259,0.2015,0.1204,0.0356,0.0,0.0,0.0,0.0,0.0,0.0,0.0,0.0,0.0,0.0,0.0,0.0,0.0,0.0,0.0,0.0,0.0,0.0,0.0,0.0,0.0,0.0,0.0,0.0,0.0,-0.0149,-0.0835,-0.1389,-0.1963,-0.2635,-0.417,-0.5403,-0.5403,-0.6337,-0.7095,-0.7095,-0.7095,-0.7095,-0.7095,-0.7095,-0.7045,-0.6903,-0.6797,-0.6644,-0.6528,-0.6385,-0.63,-0.63,-0.6047,-0.5823,-0.5603,-0.5372,-0.5247,-0.5247,-0.5354,-0.5358,-0.5247,-0.5247,-0.5209,-0.5142,-0.5209,-0.5247,-0.5247,-0.5254,-0.5254,0.0,0.0,0.0,0.0,0.0,0.0,0.0,0.0,0.7699,0.8039,0.8404,0.8787,0.918,0.9445,0.9696,0.9842,1.012,1.0321,1.0321,1.0419,1.049,1.049,1.0517,1.0585,1.0707,1.0721,1.0721,1.0721,1.0721,1.0721,1.0721,1.0721,1.0721,1.0721,1.0721,1.0721,1.0721,1.0599,1.0449,1.028,0.8818,0.7867,0.7299,0.4668,0.3232,0.2823,0.1181,0.029,0.0,0.0,0.0,0.0,0.0,0.0,0.0,0.0,0.0,0.0,0.0,0.0,0.0,0.0,0.0,0.0,0.0,0.0,0.0,0.0,0.0,0.0,0.0,0.0,0.0,0.0,-0.0759,-0.143,-0.1471,-0.3166,-0.469,-0.469,-0.5802,-0.6782,-0.6782,-0.6962,-0.7095,-0.7095,-0.7095,-0.7045,-0.6903,-0.6797,-0.6644,-0.6528,-0.6385,-0.63,-0.63,-0.6006,-0.5783,-0.564,-0.5525,-0.5426,-0.5395,-0.5395,-0.5395,-0.5395,-0.5395,-0.5395,-0.5395,-0.5395,-0.5395,-0.5399,-0.5552,-0.5589,0.6634,0.6749,0.6869,0.7011,0.7295,0.7607,0.0,0.0,0.8411,0.8598,0.8872,0.919,0.932,0.9598,0.9846,0.9936,1.0273,1.047,1.047,1.048,1.049,1.049,1.0612,1.07,1.0717,1.0721,1.0721,1.0721,1.0721,1.0721,1.0721,1.0721,1.0721,1.0721,1.0721,1.0721,1.0721,1.0704,1.0555,1.028,1.0069,0.9087,0.736,0.6994,0.5964,0.4377,0.2677,0.1197,0.0,0.0,0.0,0.0,0.0,0.0,0.0,0.0,0.0,0.0,0.0,0.0,0.0,0.0,0.0,0.0,0.0,0.0,0.0,0.0,0.0,0.0,0.0,0.0,0.0,0.0,-0.0094,-0.0184,-0.0181,-0.1257,-0.2192,-0.2192,-0.402,-0.5581,-0.5581,-0.6428,-0.7095,-0.7095,-0.7095,-0.7045,-0.6903,-0.6797,-0.6644,-0.6528,-0.6385,-0.63,-0.63,-0.6101,-0.5902,-0.5786,-0.5644,-0.5539,-0.5399,-0.5395,-0.5395,-0.5395,-0.5395,-0.5395,-0.5395,-0.5395,-0.5395,-0.5399,-0.5552,-0.5589,0.7275,0.7333,0.7397,0.7719,0.7896,0.8062,0.8333,0.8577,0.8791,0.8937,0.9208,0.9462,0.9608,0.9886,1.011,0.0,1.0432,1.0626,1.0626,1.0548,1.049,1.049,1.0477,1.0497,1.0578,1.0585,1.0622,1.0714,1.0721,1.0721,1.0721,1.0721,1.0721,1.0721,1.0721,1.0721,1.0721,1.0633,1.0483,1.028,1.0188,0.9653,0.8772,0.785,0.5935,0.3375,0.2689,0.1491,0.0,0.0,0.0,0.0,0.0,0.0,0.0,0.0,0.0,0.0,0.0,0.0,0.0,0.0,0.0,0.0,0.0,0.0,0.0,0.0,0.0,0.0,0.0,0.0,0.0,0.0,0.0,0.0,0.0,-0.0941,-0.179,-0.179,-0.3172,-0.4374,-0.4374,-0.5312,-0.6115,-0.6115,-0.6694,-0.7045,-0.6903,-0.6797,-0.661,-0.6412,-0.6334,-0.63,-0.63,-0.6118,-0.5929,-0.5813,-0.5667,-0.5556,-0.5402,-0.5395,-0.5395,-0.5395,-0.5395,-0.5395,-0.5395,-0.5395,-0.5395,-0.5399,-0.5603,-0.5711,0.7621,0.7736,0.7851,0.8136,0.8299,0.8418,0.8523,0.8781,0.9028,0.9187,0.9364,0.9591,0.9737,0.9978,1.0181,1.0266,1.049,1.0673,1.0714,1.0555,1.0432,1.0432,1.0266,1.0212,1.0354,1.0443,1.0555,1.0707,1.0721,1.0721,1.0721,1.0721,1.0721,1.0721,1.0721,1.0721,1.0721,1.0568,1.0422,1.028,1.0124,0.9906,0.9758,0.8554,0.6432,0.3753,0.3271,0.2182,0.056,0.0166,0.0,0.0,0.0,0.0,0.0,0.0,0.0,0.0,0.0,0.0,0.0,0.0,0.0,0.0,0.0,0.0,0.0,0.0,0.0,0.0,0.0,0.0,0.0,0.0,0.0,0.0,0.0,-0.0673,-0.1299,-0.1299,-0.2281,-0.3126,-0.3126,-0.4105,-0.5001,-0.5359,-0.6115,-0.6674,-0.6846,-0.6698,-0.6498,-0.6323,-0.63,-0.63,-0.63,-0.6159,-0.6027,-0.5874,-0.5769,-0.5627,-0.5467,-0.5457,-0.544,-0.5395,-0.5395,-0.5416,-0.5457,-0.5457,-0.5477,-0.5521,-0.5745,-0.5864,0.7458,0.7856,0.8218,0.8029,0.8374,0.8699,0.8703,0.8933,0.9204,0.9207,0.9333,0.9435,0.9588,0.9737,0.993,1.0232,1.0405,1.0551,1.07,1.047,1.0287,1.0287,1.0019,0.9893,0.0,1.0324,1.0555,1.0707,1.0721,1.0721,1.0721,1.0721,1.0721,1.0721,1.0721,1.0721,1.0721,1.0568,1.0422,1.028,1.0124,0.9906,0.9815,0.962,0.8573,0.6849,0.5303,0.3686,0.2012,0.0616,0.0,0.0,0.0,0.0,0.0,0.0,0.0,0.0,0.0,0.0,0.0,0.0,0.0,0.0,0.0,0.0,0.0,0.0,0.0,0.0,0.0,0.0,0.0,0.0,0.0,0.0,0.0,-0.0045,-0.0045,-0.0045,-0.1031,-0.1835,-0.1835,-0.2858,-0.4061,-0.5223,-0.5447,-0.5763,-0.6617,-0.6494,-0.631,-0.6303,-0.63,-0.63,-0.63,-0.6296,-0.6186,-0.5996,-0.5983,-0.5884,-0.5596,-0.5583,-0.5545,-0.5399,-0.5395,-0.547,-0.5583,-0.5583,-0.5654,-0.5793,-0.5912,-0.5986,0.6369,0.6737,0.7056,0.8184,0.8598,0.8737,0.8838,0.9011,0.9183,0.9028,0.9127,0.9303,0.9354,0.951,0.9778,1.0076,1.0334,1.0544,1.07,1.0548,1.0385,1.029,1.0097,0.0,0.0,0.0,0.0,1.0551,1.0568,1.0612,1.0714,1.0721,1.0721,1.0721,1.0721,1.0721,1.0721,1.0477,1.0327,1.0276,1.0019,0.9869,0.9815,0.9676,0.8688,0.7082,0.645,0.4646,0.218,0.1677,0.0878,0.0,0.0,0.0,0.0,0.0,0.0,0.0,0.0,0.0,0.0,0.0,0.0,0.0,0.0,0.0,0.0,0.0,0.0,0.0,0.0,0.0,0.0,0.0,0.0,0.0,0.0,0.0,0.0,0.0,-0.0314,-0.0583,-0.0583,-0.1612,-0.2815,-0.4016,-0.5361,-0.6389,-0.667,-0.6484,-0.63,-0.63,-0.63,-0.63,-0.63,-0.63,-0.6196,-0.6003,-0.5993,-0.5902,-0.5739,-0.5732,-0.5705,-0.5654,-0.5654,-0.5677,-0.5732,-0.5732,-0.5755,-0.5803,-0.5922,-0.5993,0.5122,0.5808,0.6456,0.763,0.8368,0.8818,0.8861,0.8967,0.8967,0.8876,0.8886,0.8985,0.8984,0.9154,0.9422,0.9765,1.0093,1.0344,1.0602,1.0555,1.046,1.0368,1.0222,1.0131,0.0,0.0,0.0,1.0473,1.0541,1.0616,1.0714,1.0721,1.0721,1.0721,1.0721,1.0721,1.0721,1.0429,1.0226,1.0114,0.9917,0.9795,0.9741,0.9652,0.8961,0.7838,0.7179,0.5721,0.3741,0.2625,0.1646,0.0746,0.0213,0.0,0.0,0.0,0.0,0.0,0.0,0.0,0.0,0.0,0.0,0.0,0.0,0.0,0.0,0.0,0.0,0.0,0.0,0.0,0.0,0.0,0.0,0.0,0.0,0.0,0.0,0.0,0.0,0.0,0.0,-0.0986,-0.2057,-0.2858,-0.4389,-0.561,-0.5987,-0.5876,-0.5867,-0.6261,-0.63,-0.63,-0.63,-0.63,-0.6255,-0.6118,-0.6112,-0.6044,-0.5888,-0.5881,-0.5857,-0.5803,-0.58,-0.5827,-0.5881,-0.5881,-0.5911,-0.5966,-0.6064,-0.6112,0.3753,0.4986,0.6327,0.6485,0.7673,0.8778,0.8875,0.8815,0.8706,0.8689,0.857,0.8513,0.0,0.0,0.8903,0.9493,0.9724,0.9988,1.0429,1.05,1.05,0.0,0.0,0.0,0.0,0.0,0.0,1.048,0.0,1.0711,1.0721,1.0721,1.0721,1.0721,1.0721,1.0717,1.0707,1.0415,1.0117,0.9822,0.9822,0.9747,0.9608,0.9602,0.9435,0.9094,0.7652,0.6907,0.6478,0.3518,0.2247,0.2073,0.0586,0.0,0.0,0.0,0.0,0.0,0.0,0.0,0.0,0.0,0.0,0.0,0.0,0.0,0.0,0.0,0.0,0.0,0.0,0.0,0.0,0.0,0.0,0.0,0.0,0.0,0.0,0.0,0.0,0.0,0.0,-0.0941,-0.1701,-0.1701,-0.2501,-0.3561,-0.4691,-0.4748,-0.5079,-0.6103,-0.6261,-0.63,-0.63,-0.63,-0.63,-0.63,-0.63,-0.6196,-0.601,-0.6003,-0.5973,-0.5827,-0.5823,-0.5895,-0.6003,-0.6003,-0.6115,-0.63,-0.63,-0.63,0.234,0.2969,0.3833,0.6065,0.6964,0.7508,0.8542,0.8737,0.8648,0.8428,0.835,0.8303,0.0,0.0,0.0,0.9208,0.9676,0.0,1.0443,1.0592,0.0,1.0507,0.0,1.0395,1.029,1.0375,0.0,0.0,1.0527,1.0599,1.0714,1.0721,1.0721,1.0721,1.0721,1.0666,1.0551,1.0256,1.0012,0.9822,0.9822,0.9747,0.9605,0.9493,0.9334,0.9147,0.864,0.7736,0.6533,0.4691,0.3233,0.2073,0.0586,0.0,0.0,0.0,0.0,0.0,0.0,0.0,0.0,0.0,0.0,0.0,0.0,0.0,0.0,0.0,0.0,0.0,0.0,0.0,0.0,0.0,0.0,0.0,0.0,0.0,0.0,0.0,0.0,0.0,0.0,-0.0269,-0.0449,-0.0449,-0.0692,-0.1553,-0.3477,-0.4303,-0.4805,-0.5079,-0.5825,-0.63,-0.63,-0.63,-0.63,-0.63,-0.63,-0.6282,-0.6242,-0.6242,-0.6221,-0.6184,-0.6184,-0.6201,-0.6242,-0.6242,-0.6259,-0.63,-0.63,-0.63,0.0989,0.1697,0.2595,0.4309,0.565,0.6786,0.7481,0.808,0.8431,0.813,0.8069,0.8024,0.7875,0.8102,0.8435,0.0,0.0,0.0,1.0236,1.0483,1.0612,0.0,1.0592,0.0,1.048,1.0544,1.0592,0.0,1.0592,1.0629,1.0714,1.0721,1.0721,1.0721,1.0721,1.0616,1.0402,1.0164,0.9909,0.9822,0.9822,0.971,0.9507,0.9418,0.9262,0.9055,0.0,0.8432,0.754,0.6089,0.46,0.3081,0.1543,0.0573,0.0,0.0,0.0,0.0,0.0,0.0,0.0,0.0,0.0,0.0,0.0,0.0,0.0,0.0,0.0,0.0,0.0,0.0,0.0,0.0,0.0,0.0,0.0,0.0,0.0,0.0,0.0,0.0,0.0,0.0,0.0,0.0,0.0,-0.0468,-0.1681,-0.2739,-0.3517,-0.3943,-0.453,-0.4882,-0.4882,-0.5315,-0.5589,-0.5589,-0.6025,-0.63,-0.63,-0.63,-0.63,-0.63,-0.63,-0.63,-0.63,-0.63,-0.63,-0.63,-0.63,-0.63,0.0,0.0918,0.1984,0.2128,0.4239,0.6193,0.6232,0.7297,0.8153,0.7845,0.7784,0.774,0.7597,0.7719,0.7984,0.8411,0.0,0.9395,0.9933,1.0317,1.0548,1.0704,1.0721,1.0721,1.0721,1.0721,1.0721,1.0721,1.0721,1.0721,1.0721,1.0721,1.0711,1.069,1.067,1.0527,1.0253,1.0097,0.9889,0.9822,0.9822,0.9666,0.9381,0.9381,0.9222,0.8885,0.0,0.0,0.8771,0.7315,0.5911,0.4616,0.2869,0.1406,0.0252,0.005,0.0,0.0,0.0,0.0,0.0,0.0,0.0,0.0,0.0,0.0,0.0,0.0,0.0,0.0,0.0,0.0,0.0,0.0,0.0,0.0,0.0,0.0,0.0,0.0,0.0,0.0,0.0,0.0,0.0,0.0,0.0,0.0,0.0,-0.0933,-0.1925,-0.2813,-0.3007,-0.3085,-0.3085,-0.3943,-0.453,-0.4686,-0.5589,-0.6141,-0.63,-0.63,-0.63,-0.63,-0.63,-0.63,-0.63,-0.63,-0.63,-0.63,-0.63,-0.63,0.0,0.0172,0.0692,0.1893,0.3394,0.4854,0.5827,0.711,0.0,0.7699,0.7638,0.759,0.7438,0.7733,0.8106,0.8428,0.8964,0.9551,1.0154,1.0385,1.0548,0.0,1.0721,1.0721,1.0721,0.0,0.0,0.0,0.0,0.0,1.0721,1.0721,1.0663,1.0534,1.0419,1.027,1.0031,0.9937,0.9846,0.9822,0.9822,0.9666,0.9381,0.9381,0.9222,0.8885,0.0,0.0,0.8771,0.7315,0.6458,0.5884,0.3239,0.1976,0.1511,0.0404,0.0,0.0,0.0,0.0,0.0,0.0,0.0,0.0,0.0,0.0,0.0,0.0,0.0,0.0,0.0,0.0,0.0,0.0,0.0,0.0,0.0,0.0,0.0,0.0,0.0,0.0,0.0,0.0,0.0,0.0,0.0,0.0,0.0,-0.0956,-0.1682,-0.1845,-0.2618,-0.3085,-0.3085,-0.3279,-0.3748,-0.4647,-0.4882,-0.5392,-0.6261,-0.63,-0.63,-0.63,-0.63,-0.63,-0.63,-0.63,-0.63,-0.63,-0.63,-0.63,0.0,0.0,0.0174,0.0863,0.2082,0.3375,0.4488,0.0,0.0,0.725,0.7424,0.7434,0.7278,0.7492,0.7787,0.8085,0.8509,0.9039,0.9717,1.0002,1.0256,1.0565,1.067,1.0721,0.0,0.0,0.0,0.0,0.0,0.0,1.0721,1.0721,1.0649,1.0497,1.0354,1.0205,0.9987,0.9835,0.9822,0.9822,0.9822,0.9666,0.9381,0.9381,0.9222,0.8885,0.0,0.0,0.8826,0.8156,0.7334,0.6361,0.4984,0.3427,0.1913,0.126,0.0605,0.0,0.0,0.0,0.0,0.0,0.0,0.0,0.0,0.0,0.0,0.0,0.0,0.0,0.0,0.0,0.0,0.0,0.0,0.0,0.0,0.0,0.0,0.0,0.0,0.0,0.0,0.0,0.0,0.0,0.0,0.0,0.0,-0.0465,-0.0779,-0.0761,-0.1184,-0.1488,-0.1488,-0.1995,-0.2542,-0.3051,-0.3593,-0.41,-0.4608,-0.4647,-0.4882,-0.547,-0.5473,-0.5747,-0.63,-0.63,-0.63,-0.63,-0.63,-0.63,0.0,0.0,0.0,0.0,0.1005,0.2303,0.3359,0.4738,0.6018,0.6908,0.7238,0.7285,0.7119,0.7265,0.7478,0.7807,0.8089,0.8543,0.932,0.9656,0.9988,0.0,1.0626,0.0,0.0,0.0,0.0,0.0,0.0,0.0,0.0,1.0687,1.0602,1.0453,1.0307,1.0158,0.994,0.988,0.9822,0.9822,0.9791,0.9639,0.9381,0.9347,0.9188,0.8885,0.0,0.0,0.0,0.8848,0.8075,0.6887,0.6597,0.4963,0.2816,0.2514,0.1561,0.0404,0.0404,0.0252,0.0,0.0,0.0,0.0,0.0,0.0,0.0,0.0,0.0,0.0,0.0,0.0,0.0,0.0,0.0,0.0,0.0,0.0,0.0,0.0,0.0,0.0,0.0,0.0,0.0,0.0,0.0,0.0,0.0,0.0,0.0,0.0,0.0,0.0,0.0,-0.0784,-0.1372,-0.1568,-0.2347,-0.289,-0.3085,-0.3085,-0.3515,-0.4334,-0.4373,-0.4766,-0.5628,-0.5828,-0.5944,-0.5944,-0.6183,-0.63,0.0,0.0,0.0,0.0,0.0996,0.2268,0.3348,0.0,0.5917,0.6888,0.7105,0.7112,0.7098,0.7265,0.7512,0.7897,0.816,0.8577,0.9462,0.9724,0.9988,1.0439,0.0,0.0,0.0,0.0,0.0,0.0,0.0,0.0,0.0,1.0588,1.0449,1.0304,1.0151,0.9933,0.9842,0.9829,0.9822,0.9819,0.969,0.9544,0.9374,0.9296,0.9089,0.8885,0.0,0.0,0.0,0.8791,0.8578,0.8203,0.6817,0.603,0.5475,0.4268,0.2964,0.1812,0.1812,0.1008,0.0,0.0,0.0,0.0,0.0,0.0,0.0,0.0,0.0,0.0,0.0,0.0,0.0,0.0,0.0,0.0,0.0,0.0,0.0,0.0,0.0,0.0,0.0,0.0,0.0,0.0,0.0,0.0,0.0,0.0,0.0,0.0,0.0,0.0,0.0,-0.0079,-0.0549,-0.1528,-0.1685,-0.2152,-0.3046,-0.3085,-0.3163,-0.324,-0.324,-0.3279,-0.3396,-0.4373,-0.4844,-0.4882,-0.5828,-0.63,0.0,0.0,0.0,0.0,0.0382,0.1314,0.315,0.4016,0.4922,0.6707,0.7095,0.7095,0.7095,0.7146,0.735,0.7716,0.7828,0.8116,0.8832,0.9059,0.9384,1.0012,1.0222,0.0,0.0,0.0,0.0,0.0,0.0,0.0,0.0,1.0524,1.0385,1.0148,1.0017,0.9913,0.9822,0.9822,0.9822,0.9819,0.9676,0.953,0.9374,0.9279,0.9076,0.8885,0.0,0.0,0.0,0.8774,0.8621,0.8413,0.7746,0.6892,0.5929,0.5425,0.3869,0.2013,0.2013,0.1109,0.0151,0.0958,0.1209,0.1058,0.0252,0.0,0.0,0.0,0.0,0.0,0.0,0.0,0.0,0.0,0.0,0.0,0.0,0.0,0.0,0.0,0.0,0.0,0.0,0.0,0.0,0.0,0.0,0.0,0.0,0.0,0.0,0.0,0.0,0.0,0.0,0.0,-0.0196,-0.0628,-0.0628,-0.0824,-0.1214,-0.1253,-0.1527,-0.219,-0.219,-0.2501,-0.3085,-0.3513,-0.4062,-0.4727,-0.5157,-0.567,0.0,0.0,0.0,0.0,0.0,0.0522,0.2624,0.3322,0.4174,0.6165,0.6874,0.7095,0.7095,0.7095,0.7183,0.7489,0.757,0.779,0.8343,0.8587,0.8937,0.0,0.0,0.0,0.0,0.0,0.0,0.0,0.0,0.0,0.0,1.0361,1.0266,0.9994,0.9943,0.9869,0.9822,0.9822,0.9798,0.9758,0.9612,0.9462,0.931,0.9157,0.9035,0.0,0.0,0.0,0.0,0.8706,0.8554,0.8404,0.8258,0.7525,0.6581,0.6581,0.5125,0.3116,0.2715,0.1711,0.0756,0.1711,0.2013,0.1913,0.136,0.0907,0.0504,0.0101,0.0,0.0,0.0,0.0,0.0,0.0,0.0,0.0,0.0,0.0,0.0,0.0,0.0,0.0,0.0,0.0,0.0,0.0,0.0,0.0,0.0,0.0,0.0,0.0,0.0,0.0,0.0,0.0,0.0,0.0,0.0,0.0,0.0,0.0,-0.0353,-0.1097,-0.1137,-0.1488,-0.2189,-0.2501,-0.3047,-0.3791,-0.41,-0.4805,0.0,0.0,0.0,0.0,0.0,0.0309,0.1533,0.2746,0.3941,0.5178,0.6293,0.7095,0.7095,0.7095,0.7146,0.735,0.7502,0.7756,0.8258,0.8526,0.8821,0.0,0.0,0.0,0.0,0.0,0.0,0.0,0.0,0.0,0.0,0.0,0.999,0.9987,0.99,0.9822,0.9822,0.9822,0.9751,0.9608,0.9456,0.9303,0.9207,0.9008,0.0,0.0,0.0,0.0,0.0,0.8547,0.8401,0.8258,0.8102,0.7992,0.7988,0.7988,0.7135,0.5777,0.4418,0.3115,0.1963,0.2013,0.2013,0.2264,0.3565,0.3015,0.1711,0.0353,0.0,0.0,0.0,0.0,0.0,0.0,0.0,0.0,0.0,0.0,0.0,0.0,0.0,0.0,0.0,0.0,0.0,0.0,0.0,0.0,0.0,0.0,0.0,0.0,0.0,0.0,0.0,0.0,0.0,0.0,0.0,0.0,0.0,0.0,0.0,0.0,0.0,-0.0039,-0.0039,-0.1097,-0.1607,-0.1646,-0.2657,-0.3709,0.0,0.0,0.0,0.0,0.0,0.0297,0.1521,0.2712,0.3922,0.5163,0.6293,0.7095,0.7095,0.7095,0.7213,0.7614,0.7712,0.7868,0.8272,0.0,0.0,0.0,0.0,0.0,0.0,0.0,0.0,0.0,0.0,0.0,0.0,0.0,0.9893,0.9893,0.9846,0.9822,0.9822,0.9822,0.9751,0.9608,0.9456,0.9357,0.9204,0.9005,0.0,0.0,0.0,0.0,0.0,0.8442,0.8364,0.8255,0.8099,0.7988,0.7988,0.7988,0.7132,0.5929,0.5525,0.447,0.3516,0.4422,0.4722,0.4822,0.5222,0.3768,0.1711,0.0353,0.0,0.0,0.0,0.0,0.0,0.0,0.0,0.0,0.0,0.0,0.0,0.0,0.0,0.0,0.0,0.0,0.0,0.0,0.0,0.0,0.0,0.0,0.0,0.0,0.0,0.0,0.0,0.0,0.0,0.0,0.0,0.0,0.0,0.0,0.0,0.0,0.0,0.0,0.0,-0.0353,-0.0902,-0.1607,-0.2618,-0.3279,0.0,0.0,0.0,0.0,0.0,0.0192,0.0969,0.2325,0.3713,0.4566,0.5958,0.7034,0.7085,0.7095,0.7186,0.7466,0.7655,0.7818,0.0,0.0,0.0,0.0,0.0,0.0,0.0,0.0,0.0,0.0,0.0,0.0,0.0,0.0,0.9795,0.9744,0.9791,0.9822,0.9822,0.9768,0.9669,0.952,0.9367,0.9218,0.9069,0.0,0.0,0.0,0.0,0.0,0.0,0.8347,0.8238,0.8174,0.8025,0.7988,0.7988,0.7988,0.7484,0.6681,0.6179,0.5475,0.487,0.5727,0.6331,0.6681,0.6129,0.4121,0.1812,0.1008,0.0404,0.0,0.0,0.0,0.0,0.0,0.0,0.0,0.0,0.0,0.0,0.0,0.0,0.0,0.0,0.0,0.0,0.0,0.0,0.0,0.0,0.0,0.0,0.0,0.0,0.0,0.0,0.0,0.0,0.0,0.0,0.0,0.0,0.0,0.0,0.0,0.0,0.0,0.0,0.0,-0.0353,-0.102,-0.2035,-0.2542,0.0,0.0,0.0,0.0,0.0,0.0,0.0,0.165,0.0,0.3428,0.5231,0.684,0.6983,0.7051,0.7109,0.7152,0.7434,0.0,0.0,0.8231,0.0,0.0,0.0,0.0,0.0,0.0,0.0,0.0,0.0,0.0,0.0,0.0,0.0,0.9598,0.972,0.9788,0.9788,0.9659,0.9517,0.9364,0.9279,0.9079,0.8885,0.0,0.0,0.0,0.0,0.0,0.0,0.831,0.817,0.7988,0.7988,0.7988,0.7988,0.7988,0.7988,0.7839,0.6581,0.6129,0.6129,0.6129,0.6983,0.7786,0.6531,0.4321,0.2264,0.2063,0.1109,0.0101,0.0,0.0,0.0,0.0,0.0,0.0,0.0,0.0,0.0,0.0,0.0,0.0,0.0,0.0,0.0,0.0,0.0,0.0,0.0,0.0,0.0,0.0,0.0,0.0,0.0,0.0,0.0,0.0,0.0,0.0,0.0,0.0,0.0,0.0,0.0,0.0,0.0,0.0,0.0,-0.0039,-0.102,-0.1489,0.0,0.0,0.0,0.0,0.0,0.0,0.0,0.1109,0.2168,0.2199,0.4104,0.5791,0.5918,0.6561,0.7247,0.7705,0.0,0.0,0.0,0.0,0.0,0.0,0.0,0.0,0.0,0.0,0.0,0.0,0.0,0.0,0.0,0.0,0.0,0.9439,0.9466,0.9486,0.9486,0.9452,0.9357,0.9262,0.9228,0.9079,0.8878,0.0,0.0,0.0,0.0,0.0,0.8313,0.8143,0.8022,0.7988,0.7988,0.7988,0.7988,0.7988,0.7988,0.7939,0.7637,0.7537,0.7537,0.7537,0.7739,0.7939,0.7637,0.6379,0.4622,0.2565,0.1762,0.131,0.0252,0.0,0.0,0.0,0.0,0.0,0.0,0.0,0.0,0.0,0.0,0.0,0.0,0.0,0.0,0.0,0.0,0.0,0.0,0.0,0.0,0.0,0.0,0.0,0.0,0.0,0.0,0.0,0.0,0.0,0.0,0.0,0.0,0.0,0.0,0.0,0.0,0.0,0.0,0.0,-0.0275,-0.0392,0.0,0.0,0.0,0.0,0.0,0.0,0.0,0.0882,0.1734,0.1775,0.3247,0.4535,0.4642,0.5144,0.5812,0.6756,0.69,0.0,0.0,0.0,0.0,0.0,0.0,0.0,0.0,0.0,0.0,0.0,0.0,0.0,0.0,0.0,0.0,0.0,0.9333,0.931,0.9381,0.931,0.9292,0.921,0.9086,0.9015,0.8878,0.0,0.0,0.0,0.0,0.0,0.816,0.8022,0.7988,0.7988,0.7988,0.7988,0.7988,0.7988,0.7988,0.7988,0.7988,0.7988,0.7988,0.7988,0.7988,0.7988,0.7988,0.7487,0.6478,0.442,0.2967,0.1812,0.1109,0.0451,0.0,0.0,0.0,0.0,0.0,0.0,0.0,0.0,0.0,0.0,0.0,0.0,0.0,0.0,0.0,0.0,0.0,0.0,0.0,0.0,0.0,0.0,0.0,0.0,0.0,0.0,0.0,0.0,0.0,0.0,0.0,0.0,0.0,0.0,0.0,0.0,0.0,0.0,0.0,0.0,0.0,0.0,0.0,0.0,0.0,0.0,0.0,0.0714,0.1386,0.1501,0.2403,0.319,0.3328,0.3495,0.3985,0.0,0.0,0.0,0.0,0.0,0.0,0.0,0.0,0.0,0.0,0.0,0.0,0.0,0.0,0.0,0.0,0.0,0.0,0.0,0.9176,0.9181,0.9313,0.9184,0.9176,0.9176,0.8998,0.8871,0.8844,0.8747,0.0,0.0,0.0,0.0,0.7988,0.7988,0.7988,0.7988,0.7988,0.7988,0.7988,0.7988,0.7988,0.7988,0.7988,0.7988,0.7988,0.7988,0.7988,0.7988,0.7988,0.7988,0.7786,0.6631,0.4522,0.2565,0.2364,0.1294,0.0294,0.0287,0.0141,0.0,0.0,0.0,0.0,0.0,0.0,0.0,0.0,0.0,0.0,0.0,0.0,0.0,0.0,0.0,0.0,0.0,0.0,0.0,0.0,0.0,0.0,0.0,0.0,0.0,0.0,0.0,0.0,0.0,0.0,0.0,0.0,0.0,0.0,0.0,0.0,0.0,0.0,0.0,0.0,0.0,0.0,0.0,0.0,0.0126,0.025,0.0286,0.1213,0.2075,0.2217,0.2985,0.3752,0.0,0.0,0.0,0.0,0.0,0.0,0.0,0.0,0.0,0.0,0.0,0.0,0.0,0.0,0.0,0.0,0.0,0.0,0.0,0.0,0.8984,0.8949,0.8984,0.8971,0.8971,0.8895,0.8814,0.874,0.8587,0.8438,0.0,0.0,0.0,0.7988,0.7988,0.7988,0.7988,0.7988,0.7988,0.7988,0.7988,0.7988,0.7988,0.7988,0.7988,0.7988,0.7988,0.7988,0.7988,0.7988,0.7988,0.7939,0.7736,0.6578,0.5125,0.3967,0.2709,0.169,0.168,0.0808,0.0,0.0,0.0,0.0,0.0,0.0,0.0,0.0,0.0,0.0,0.0,0.0,0.0,0.0,0.0,0.0,0.0,0.0,0.0,0.0,0.0,0.0,0.0,0.0,0.0,0.0,0.0,0.0,0.0,0.0,0.0,0.0,0.0,0.0,0.0,0.0,0.0,0.0,0.0,0.0,0.0,0.0,0.0,0.0,0.0,0.0,0.0,0.0436,0.0845,0.0908,0.1342,0.1918,0.2762,0.0,0.0,0.0,0.0,0.0,0.0,0.0,0.0,0.0,0.0,0.0,0.0,0.0,0.0,0.0,0.0,0.0,0.0,0.0,0.0,0.8885,0.8885,0.8885,0.8881,0.8855,0.8777,0.8703,0.8472,0.8333,0.0,0.0,0.7988,0.7988,0.7988,0.7988,0.7988,0.7988,0.7988,0.7988,0.7988,0.7988,0.7988,0.7988,0.7988,0.7988,0.7988,0.7988,0.7988,0.7988,0.7988,0.7988,0.7988,0.7033,0.5879,0.5222,0.409,0.2903,0.2155,0.151,0.0884,0.0136,0.0,0.0,0.0,0.0,0.0,0.0,0.0,0.0,0.0,0.0,0.0,0.0,0.0,0.0,0.0,0.0,0.0,0.0,0.0,0.0,0.0,0.0,0.0,0.0,0.0,0.0,0.0,0.0,0.0,0.0,0.0,0.0,0.0,0.0,0.0,0.0,0.0,0.0,0.0,0.0,0.0,0.0,0.0,0.0,0.0,0.0,0.0,0.0,0.0,0.0,0.1809,0.0,0.0,0.0,0.0,0.0,0.0,0.0,0.0,0.0,0.0,0.0,0.0,0.0,0.0,0.0,0.0,0.0,0.0,0.0,0.0,0.8832,0.8832,0.8814,0.8881,0.8784,0.8693,0.8648,0.8387,0.8252,0.8211,0.8092,0.7988,0.7988,0.7988,0.7988,0.7988,0.7988,0.7988,0.7988,0.7988,0.7988,0.7988,0.7988,0.7988,0.7988,0.7988,0.7988,0.7988,0.7988,0.7988,0.7988,0.7988,0.7285,0.6481,0.6481,0.5452,0.4182,0.3151,0.2622,0.2019,0.0721,0.0404,0.0359,0.0045,0.0,0.0,0.0,0.0,0.0,0.0,0.0,0.0,0.0,0.0,0.0,0.0,0.0,0.0,0.0,0.0,0.0,0.0,0.0,0.0,0.0,0.0,0.0,0.0,0.0,0.0,0.0,0.0,0.0,0.0,0.0,0.0,0.0,0.0,0.0,0.0,0.0,0.0,0.0,0.0,0.0,0.0,0.0,0.0,0.0,0.0,0.0467,0.1958,0.0,0.0,0.0,0.0,0.0,0.0,0.0,0.0,0.0,0.0,0.0,0.0,0.0,0.0,0.0,0.0,0.0,0.0,0.0,0.0,0.8516,0.8516,0.8659,0.8881,0.8784,0.8635,0.8492,0.834,0.8194,0.8005,0.7995,0.7988,0.7988,0.7988,0.7988,0.7988,0.7988,0.7988,0.7988,0.7988,0.7988,0.7988,0.7988,0.7988,0.7988,0.7988,0.7988,0.7988,0.7988,0.7988,0.7988,0.7988,0.7939,0.7839,0.7839,0.6784,0.5637,0.5526,0.4483,0.3161,0.1932,0.1656,0.1344,0.0225,0.0,0.0,0.0,0.0,0.0,0.0,0.0,0.0,0.0,0.0,0.0,0.0,0.0,0.0,0.0,0.0,0.0,0.0,0.0,0.0,0.0,0.0,0.0,0.0,0.0,0.0,0.0,0.0,0.0,0.0,0.0,0.0,0.0,0.0,0.0,0.0,0.0,0.0,0.0,0.0,0.0,0.0,0.0,0.0,0.0,0.0,0.0208,0.0,0.0,0.0,0.0,0.0,0.0,0.0,0.0,0.0,0.0,0.0,0.0,0.0,0.0,0.0,0.0,0.0,0.0,0.0,0.0,0.0,0.0,0.8482,0.854,0.8652,0.8506,0.8408,0.8347,0.8194,0.8096,0.7988,0.7988,0.7988,0.7988,0.7988,0.7988,0.7988,0.7988,0.7988,0.7988,0.7988,0.7988,0.7988,0.7988,0.7988,0.7988,0.7988,0.7988,0.7988,0.7988,0.7988,0.7988,0.7988,0.7988,0.7968,0.7874,0.7459,0.6828,0.5914,0.5233,0.4487,0.3186,0.2903,0.2547,0.1344,0.1121,0.0897,0.0135,0.0,0.0,0.0,0.0,0.0,0.0,0.0,0.0,0.0,0.0,0.0,0.0,0.0,0.0,0.0,0.0,0.0,0.0,0.0,0.0,0.0,0.0,0.0,0.0,0.0,0.0,0.0,0.0,0.0,0.0,0.0,0.0,0.0,0.0,0.0,0.0,0.0,0.0,0.0,0.0,0.0,0.0,0.0,0.0,0.0,0.0,0.0,0.0,0.0,0.0,0.0,0.0,0.0,0.0,0.0,0.0,0.0,0.0,0.0,0.0,0.0,0.0,0.0,0.0,0.0,0.0,0.8343,0.8343,0.834,0.8245,0.8221,0.8316,0.8109,0.7988,0.7988,0.7988,0.7988,0.7988,0.7988,0.7988,0.7988,0.7988,0.7988,0.7988,0.7988,0.7988,0.7988,0.7988,0.7988,0.7988,0.7988,0.7988,0.7988,0.7988,0.7988,0.7978,0.7931,0.7917,0.7874,0.7723,0.7706,0.7488,0.6409,0.6096,0.5724,0.4431,0.415,0.3794,0.2592,0.237,0.1964,0.0756,0.0567,0.0427,0.0042,0.0,0.0,0.0,0.0,0.0,0.0,0.0,0.0,0.0,0.0,0.0,0.0,0.0,0.0,0.0,0.0,0.0,0.0,0.0,0.0,0.0,0.0,0.0,0.0,0.0,0.0,0.0,0.0,0.0,0.0,0.0,0.0,0.0,0.0,0.0,0.0,0.0,0.0,0.0,0.0,0.0,0.0,0.0,0.0,0.0,0.0,0.0,0.0,0.0,0.0,0.0,0.0,0.0,0.0,0.0,0.0,0.0,0.0,0.0,0.0,0.0,0.0,0.0,0.7988,0.7988,0.7988,0.7988,0.8119,0.8313,0.8109,0.7988,0.7988,0.7988,0.7988,0.7988,0.7988,0.7988,0.7988,0.7988,0.7988,0.7988,0.7988,0.7988,0.7988,0.7988,0.7988,0.7988,0.7988,0.7988,0.7988,0.7988,0.7988,0.7958,0.7851,0.7811,0.774,0.7448,0.7485,0.756,0.745,0.7251,0.6786,0.5669,0.5403,0.5045,0.3838,0.3614,0.3236,0.2044,0.1787,0.1374,0.0204,0.0,0.0,0.0,0.0,0.0,0.0,0.0,0.0,0.0,0.0,0.0,0.0,0.0,0.0,0.0,0.0,0.0,0.0,0.0,0.0,0.0,0.0,0.0,0.0,0.0,0.0,0.0,0.0,0.0,0.0,0.0,0.0,0.0,0.0,0.0,0.0,0.0,0.0,0.0,0.0,0.0,0.0,0.0,0.0,0.0,0.0,0.0,0.0,0.0,0.0,0.0,0.0,0.0,0.0,0.0,0.0,0.0,0.0,0.0,0.0,0.0,0.0,0.0,0.0,0.7988,0.7988,0.7988,0.8015,0.8106,0.8012,0.7988,0.7988,0.7988,0.7988,0.7988,0.7988,0.7988,0.7988,0.7988,0.7988,0.7988,0.7988,0.7988,0.7988,0.7988,0.7988,0.7988,0.7988,0.7988,0.7988,0.7988,0.7914,0.7868,0.7824,0.774,0.7617,0.7421,0.745,0.74,0.7244,0.7129,0.7007,0.665,0.6605,0.6248,0.509,0.4865,0.4435,0.3086,0.2255,0.1665,0.1182,0.0478,0.0,0.0,0.0,0.0,0.0,0.0,0.0,0.0,0.0,0.0,0.0,0.0,0.0,0.0,0.0,0.0,0.0,0.0,0.0,0.0,0.0,0.0,0.0,0.0,0.0,0.0,0.0,0.0,0.0,0.0,0.0,0.0,0.0,0.0,0.0,0.0,0.0,0.0,0.0,0.0,0.0,0.0,0.0,0.0,0.0,0.0,0.0,0.0,0.0,0.0,0.0,0.0,0.0,0.0,0.0,0.0,0.0,0.0,0.0,0.0,0.0,0.0,0.0,0.0,0.7988,0.7988,0.7988,0.7988,0.7988,0.7988,0.7988,0.7988,0.7988,0.7988,0.7988,0.7988,0.7988,0.7988,0.7988,0.7988,0.7988,0.7988,0.7988,0.7988,0.7988,0.7988,0.7988,0.7948,0.7897,0.7897,0.7845,0.7716,0.7651,0.7577,0.7472,0.7319,0.7278,0.7255,0.7119,0.7095,0.7095,0.7095,0.7095,0.6915,0.6204,0.6031,0.5564,0.4244,0.3481,0.283,0.2286,0.1305,0.0471,0.0039,0.0,0.0,0.0,0.0,0.0,0.0,0.0,0.0,0.0,0.0,0.0,0.0,0.0,0.0,0.0,0.0,0.0,0.0,0.0,0.0,0.0,0.0,0.0,0.0,0.0,0.0,0.0,0.0,0.0,0.0,0.0,0.0,0.0,0.0,0.0,0.0,0.0,0.0,0.0,0.0,0.0,0.0,0.0,0.0,0.0,0.0,0.0,0.0,0.0,0.0,0.0,0.0,0.0,0.0,0.0,0.0,0.0,0.0,0.0,0.0,0.0,0.0,0.0,0.7988,0.7988,0.7988,0.7988,0.7988,0.7988,0.7988,0.7988,0.7988,0.7988,0.7988,0.7988,0.7988,0.7988,0.7988,0.7988,0.7988,0.7988,0.7988,0.7982,0.7968,0.7968,0.7867,0.779,0.779,0.7692,0.755,0.7456,0.7405,0.7319,0.7132,0.7095,0.7095,0.7095,0.7095,0.7095,0.7095,0.7095,0.7095,0.7095,0.698,0.6534,0.5457,0.5053,0.4496,0.3292,0.2308,0.1371,0.0392,0.0196,0.0157,0.0157,0.0039,0.0,0.0,0.0,0.0,0.0,0.0,0.0,0.0,0.0,0.0,0.0,0.0,0.0,0.0,0.0,0.0,0.0,0.0,0.0,0.0,0.0,0.0,0.0,0.0,0.0,0.0,0.0,0.0,0.0,0.0,0.0,0.0,0.0,0.0,0.0,0.0,0.0,0.0,0.0,0.0,0.0,0.0,0.0,0.0,0.0,0.0,0.0,0.0,0.0,0.0,0.0,0.0,0.0,0.0,0.0,0.7988,0.7988,0.7988,0.0,0.7988,0.7988,0.7988,0.7988,0.7988,0.7988,0.7988,0.7988,0.7988,0.7988,0.7988,0.7988,0.7988,0.7988,0.7988,0.7988,0.7988,0.7988,0.7988,0.7911,0.7862,0.7862,0.7763,0.7645,0.7645,0.7539,0.746,0.7426,0.7285,0.7139,0.7105,0.7095,0.7095,0.7095,0.7095,0.7095,0.7095,0.7095,0.7095,0.7095,0.698,0.6793,0.6431,0.5548,0.4496,0.3292,0.2929,0.2696,0.2461,0.1761,0.1254,0.1254,0.051,0.0,0.0,0.0,0.0,0.0,0.0,0.0,0.0,0.0,0.0,0.0,0.0,0.0,0.0,0.0,0.0,0.0,0.0,0.0,0.0,0.0,0.0,0.0,0.0,0.0,0.0,0.0,0.0,0.0,0.0,0.0,0.0,0.0,0.0,0.0,0.0,0.0,0.0,0.0,0.0,0.0,0.0,0.0,0.0,0.0,0.0,0.0,0.0,0.0,0.0,0.0,0.0,0.0,0.0,0.0,0.7988,0.7988,0.7988,0.7988,0.7988,0.7988,0.7988,0.7988,0.7988,0.7988,0.7988,0.7988,0.7988,0.7988,0.7988,0.7988,0.7988,0.7988,0.7988,0.7988,0.7988,0.7988,0.7988,0.7891,0.7811,0.7811,0.7665,0.7492,0.7492,0.7383,0.7261,0.7261,0.7204,0.7095,0.7095,0.7095,0.7095,0.7095,0.7095,0.7095,0.7095,0.7095,0.7095,0.7095,0.6923,0.6793,0.6715,0.6071,0.5193,0.4029,0.3865,0.3669,0.3163,0.2657,0.2308,0.2308,0.18,0.1292,0.0824,0.0784,0.0549,0.0039,0.0,0.0,0.0,0.0,0.0,0.0,0.0,0.0,0.0,0.0,0.0,0.0,0.0,0.0,0.0,0.0,0.0,0.0,0.0,0.0,0.0,0.0,0.0,0.0,0.0,0.0,0.0,0.0,0.0,0.0,0.0,0.0,0.0,0.0,0.0,0.0,0.0,0.0,0.0,0.0,0.0,0.0,0.0,0.0,0.0,0.0,0.0,0.0,0.0,0.8233,0.8676,0.8478,0.8478,0.8676,0.8432,0.8233,0.7988,0.7988,0.7988,0.7988,0.7988,0.7988,0.7988,0.7988,0.7988,0.7988,0.7988,0.7988,0.7985,0.7961,0.7951,0.7948,0.7924,0.7865,0.7736,0.7736,0.7553,0.7333,0.7333,0.7241,0.7095,0.7095,0.7095,0.7095,0.7095,0.7095,0.7095,0.7095,0.7095,0.7095,0.7095,0.7095,0.7095,0.7095,0.6902,0.6685,0.6634,0.6463,0.5983,0.5118,0.496,0.4647,0.3748,0.3476,0.3357,0.3357,0.3202,0.2773,0.1919,0.1841,0.141,0.0353,0.0275,0.0196,0.0,0.0,0.0,0.0,0.0,0.0,0.0,0.0,0.0,0.0,0.0196,0.0275,0.0,0.0,0.0,0.0,0.0,0.0,0.0,0.0,0.0,0.0,0.0,0.0,0.0,0.0,0.0,0.0,0.0,0.0,0.0,0.0,0.0,0.0,0.0,0.0,0.0,0.0,0.0,0.0,0.0,0.0,0.0,0.0,0.8531,0.9706,0.8627,0.0,1.1361,1.0288,1.0288,1.1365,1.0243,0.9118,0.7988,0.7988,0.7988,0.7988,0.7988,0.7988,0.7988,0.7988,0.7988,0.7988,0.7988,0.7988,0.7975,0.7889,0.7841,0.7824,0.7702,0.7556,0.7477,0.7477,0.7312,0.7125,0.7125,0.7112,0.7095,0.7095,0.7095,0.7095,0.7095,0.7095,0.7095,0.7095,0.7095,0.7095,0.7095,0.7095,0.7095,0.7095,0.6902,0.662,0.6402,0.6327,0.6261,0.6103,0.6103,0.6025,0.5906,0.5079,0.4491,0.4491,0.3671,0.3046,0.2929,0.289,0.2462,0.145,0.1372,0.098,0.0039,0.0,0.0,0.0,0.0,0.0,0.0,0.0,0.0,0.0039,0.0941,0.1372,0.0,0.0,0.0,0.0,0.0,0.0,0.0,0.0,0.0,0.0,0.0,0.0,0.0,0.0,0.0,0.0,0.0,0.0,0.0,0.0,0.0,0.0,0.0,0.0,0.0,0.0,0.0,0.0,0.0,0.0,0.0,0.7988,0.8627,0.9948,0.8676,0.0,1.0828,1.0293,1.0293,1.0828,1.0293,0.9316,0.7988,0.7988,0.7988,0.7988,0.7988,0.7941,0.7913,0.7913,0.7865,0.7794,0.7794,0.7794,0.7784,0.7719,0.7692,0.7685,0.7621,0.7499,0.7415,0.7415,0.7265,0.7095,0.7095,0.7095,0.7095,0.7095,0.7095,0.7095,0.7095,0.7095,0.7095,0.7095,0.7095,0.7095,0.7095,0.7034,0.6927,0.68,0.6661,0.6545,0.6334,0.63,0.63,0.63,0.63,0.63,0.63,0.5906,0.5589,0.5589,0.5157,0.4647,0.4062,0.3982,0.3554,0.2501,0.2425,0.2229,0.176,0.1721,0.1488,0.0902,0.0314,0.0,0.0,0.0588,0.0902,0.0902,0.1957,0.2425,0.0,0.0,0.0,0.0,0.0,0.0,0.0,0.0,0.0,0.0,0.0,0.0,0.0,0.0,0.0,0.0,0.0,0.0,0.0,0.0,0.0,0.0,0.0,0.0,0.0,0.0,0.0,0.0,0.0,0.0,0.7988,0.7988,0.8627,0.9948,0.9019,0.9312,1.097,1.1312,1.1312,1.097,1.0632,0.9776,0.847,0.8128,0.7914,0.788,0.7917,0.7916,0.7807,0.7773,0.7695,0.76,0.76,0.76,0.7594,0.7556,0.7543,0.7536,0.7499,0.7407,0.7312,0.7312,0.7234,0.7095,0.7095,0.7095,0.7095,0.7095,0.7095,0.7095,0.7095,0.7095,0.7095,0.7095,0.7068,0.7045,0.7045,0.696,0.6837,0.6573,0.6511,0.6467,0.6323,0.63,0.63,0.63,0.63,0.63,0.63,0.63,0.63,0.63,0.63,0.5983,0.5157,0.5118,0.4647,0.3591,0.3513,0.3396,0.3124,0.3085,0.2735,0.1996,0.1214,0.0666,0.0392,0.1215,0.1723,0.1996,0.3047,0.3513,0.0,0.0,0.0,0.0,0.0,0.0,0.0,0.0,0.0,0.0,0.0,0.0,0.0,0.0,0.0,0.0,0.0,0.0,0.0,0.0,0.0,0.0,0.0,0.0,0.0,0.0,0.0,0.0,0.0,0.0,0.7988,0.7988,0.8627,0.9948,0.9948,1.1112,1.368,1.4902,1.4902,1.368,1.2425,1.1061,0.9679,0.8394,0.775,0.7631,0.7767,0.7818,0.7801,0.7665,0.7607,0.76,0.76,0.76,0.7584,0.7438,0.7429,0.7363,0.7169,0.7115,0.7109,0.7109,0.7102,0.7095,0.7095,0.7095,0.7095,0.7095,0.7095,0.7095,0.7095,0.7095,0.7095,0.7095,0.6994,0.6896,0.6896,0.6889,0.6837,0.6573,0.6511,0.6467,0.6323,0.63,0.63,0.63,0.63,0.63,0.63,0.63,0.63,0.63,0.63,0.6261,0.6219,0.6222,0.5747,0.4686,0.4608,0.4178,0.3124,0.3085,0.3085,0.3007,0.2968,0.2462,0.1528,0.1568,0.2074,0.3046,0.41,0.4608,0.0,0.0,0.0,0.0,0.0,0.0,0.0,0.0,0.0,0.0,0.0,0.0,0.0,0.0,0.0,0.0,0.0,0.0,0.0,0.0,0.0,0.0,0.0,0.0,0.0,0.0,0.0,0.0,0.0,0.0,0.7988,0.7897,0.8803,1.0909,1.0027,1.0872,1.3531,1.4008,1.3679,1.249,1.1822,1.0402,0.8379,0.7912,0.7648,0.7597,0.755,0.7529,0.7526,0.7472,0.7394,0.726,0.726,0.726,0.7253,0.7244,0.7224,0.7214,0.7115,0.7095,0.7095,0.7095,0.7095,0.7095,0.7095,0.7095,0.7095,0.7095,0.7095,0.7095,0.7095,0.7028,0.6937,0.6881,0.682,0.6756,0.6658,0.6634,0.6576,0.6416,0.6375,0.6361,0.631,0.63,0.63,0.63,0.63,0.63,0.63,0.63,0.63,0.63,0.63,0.63,0.63,0.63,0.6141,0.5747,0.5709,0.555,0.5157,0.5157,0.4844,0.4139,0.4139,0.3593,0.2579,0.3244,0.3789,0.4139,0.5237,0.5709,0.0,0.0,0.0,0.0,0.0,0.0,0.0,0.0,0.0,0.0,0.0,0.0,0.0,0.0,0.0,0.0,0.0,0.0,0.0,0.0,0.0,0.0,0.0,0.0,0.0,0.0,0.0,0.0,0.0,0.0,0.7843,0.7794,0.887,1.135,1.0473,1.1256,1.3921,1.3927,1.3552,1.2806,1.1769,1.0416,0.876,0.7934,0.7495,0.7441,0.7339,0.7322,0.7412,0.7316,0.7234,0.7095,0.7095,0.7095,0.7095,0.7095,0.7095,0.7095,0.7095,0.7095,0.7095,0.7095,0.7095,0.7095,0.7095,0.7095,0.7085,0.7038,0.7024,0.7014,0.6964,0.6879,0.6814,0.6661,0.6624,0.6583,0.6474,0.6477,0.647,0.6327,0.63,0.63,0.63,0.63,0.63,0.63,0.63,0.63,0.63,0.63,0.63,0.63,0.63,0.63,0.63,0.63,0.63,0.63,0.63,0.63,0.63,0.63,0.5983,0.5237,0.5237,0.4882,0.4178,0.453,0.4882,0.5237,0.5983,0.63,0.0,0.0,0.0,0.0,0.0,0.0,0.0,0.0,0.0,0.0,0.0,0.0,0.0,0.0,0.0,0.0,0.0,0.0,0.0,0.0,0.0,0.0,0.0,0.0,0.0,0.0,0.0,0.0,0.0,0.76,0.76,0.7644,0.8742,1.1217,1.1314,1.2512,1.495,1.4995,1.495,1.4854,1.241,1.1192,1.089,0.8483,0.7282,0.7095,0.7095,0.7224,0.7353,0.7204,0.7095,0.7095,0.7095,0.7095,0.7095,0.7095,0.7095,0.7095,0.7095,0.7095,0.7095,0.7095,0.7092,0.7088,0.7088,0.7088,0.7055,0.6916,0.6879,0.6846,0.6732,0.6695,0.6654,0.6542,0.6504,0.6467,0.633,0.6409,0.6463,0.6327,0.63,0.63,0.63,0.63,0.63,0.63,0.63,0.63,0.63,0.63,0.63,0.63,0.63,0.63,0.63,0.63,0.63,0.63,0.63,0.63,0.63,0.63,0.63,0.63,0.63,0.63,0.63,0.5237,0.5276,0.63,0.63,0.63,0.0,0.0,0.0,0.0,0.0,0.0,0.0,0.0,0.0,0.0,0.0,0.0,0.0,0.0,0.0,0.0,0.0,0.0,0.0,0.0,0.0,0.0,0.0,0.0,0.0,0.0,0.0,0.0,0.0,0.76,0.76,0.831,0.9354,1.0754,1.1838,1.3099,1.4599,1.4643,1.3781,1.2109,1.1227,0.9883,0.8167,0.7512,0.7136,0.7095,0.7095,0.7122,0.72,0.7112,0.7095,0.7095,0.7095,0.7095,0.7095,0.7095,0.7095,0.7095,0.7095,0.7095,0.7095,0.7095,0.7028,0.6943,0.6943,0.6866,0.6814,0.6773,0.6763,0.6729,0.6576,0.6536,0.6538,0.6392,0.6358,0.6347,0.631,0.633,0.6347,0.6306,0.63,0.63,0.63,0.63,0.63,0.63,0.63,0.63,0.63,0.63,0.63,0.63,0.63,0.63,0.63,0.63,0.63,0.63,0.63,0.63,0.63,0.63,0.63,0.63,0.63,0.63,0.63,0.5983,0.6022,0.63,0.63,0.63,0.1146,0.1123,0.1113,0.0,0.0,0.0,0.0,0.0774,0.0,0.0,0.0,0.0,0.0,0.0,0.0,0.0,0.0,0.0,0.0,0.0,0.0,0.0,0.0,0.0,0.0,0.0,0.0,0.0,0.7407,0.7407,0.7407,0.7945,0.8987,1.0572,1.1435,1.265,1.4335,1.4342,1.3404,1.1538,1.0833,0.9786,0.8375,0.7368,0.7168,0.7554,0.7194,0.7007,0.7014,0.7071,0.7095,0.7095,0.7095,0.7095,0.7095,0.7095,0.7095,0.7095,0.7095,0.7058,0.7007,0.7007,0.691,0.6834,0.6834,0.677,0.6685,0.6624,0.6563,0.6495,0.6446,0.6422,0.6402,0.632,0.63,0.63,0.63,0.63,0.63,0.63,0.63,0.63,0.63,0.63,0.63,0.63,0.63,0.63,0.63,0.63,0.63,0.63,0.63,0.63,0.63,0.63,0.63,0.63,0.63,0.63,0.63,0.63,0.63,0.63,0.63,0.63,0.63,0.63,0.63,0.6296,0.6196,0.6166,0.2787,0.2739,0.2695,0.0,0.0,0.0,0.2307,0.1948,0.0,0.0,0.0,0.0,0.0,0.0,0.0,0.0,0.0,0.0,0.0,0.0,0.0,0.0,0.0,0.0,0.0,0.0,0.0,0.7105,0.7095,0.7095,0.7095,0.7095,0.8181,1.0524,1.0611,1.1735,1.4088,1.4088,1.3499,1.2238,1.0994,1.0304,1.0075,0.7749,0.7229,0.8135,0.726,0.6862,0.6869,0.6997,0.7065,0.7095,0.7095,0.7095,0.7095,0.7095,0.7085,0.7071,0.7071,0.698,0.6862,0.6862,0.68,0.6675,0.6675,0.6664,0.6624,0.6525,0.6399,0.63,0.63,0.63,0.63,0.63,0.63,0.63,0.63,0.63,0.63,0.63,0.63,0.63,0.63,0.63,0.63,0.63,0.63,0.63,0.63,0.63,0.63,0.63,0.63,0.63,0.63,0.63,0.63,0.63,0.63,0.63,0.63,0.63,0.63,0.63,0.63,0.6289,0.6276,0.6276,0.6276,0.6269,0.6074,0.5969,0.3072,0.3015,0.0,0.0,0.0,0.0,0.2322,0.2354,0.0,0.0,0.0,0.0,0.0,0.0,0.0,0.0,0.0,0.0,0.0,0.0,0.0,0.0,0.0,0.0,0.0,0.0,0.7129,0.7098,0.7095,0.7095,0.7095,0.7095,0.8181,1.0524,1.0611,1.1735,1.4088,1.4088,1.3397,1.1981,1.0925,1.0181,0.9728,0.7653,0.7229,0.8127,0.7183,0.6746,0.6749,0.6773,0.6926,0.7095,0.7095,0.7095,0.7095,0.7095,0.7024,0.6927,0.6927,0.6871,0.6746,0.6746,0.6641,0.6555,0.6555,0.6477,0.6378,0.6351,0.632,0.63,0.63,0.63,0.63,0.63,0.63,0.63,0.63,0.63,0.63,0.63,0.63,0.63,0.63,0.63,0.63,0.63,0.63,0.63,0.63,0.63,0.63,0.63,0.63,0.63,0.63,0.63,0.63,0.63,0.63,0.63,0.63,0.63,0.63,0.63,0.63,0.6238,0.6074,0.6074,0.6074,0.6071,0.5918,0.5844,0.4526,0.0,0.0,0.4193,0.0,0.0,0.0,0.0,0.0,0.0,0.0,0.0,0.0,0.0,0.0,0.0,0.0,0.0,0.0,0.0,0.0,0.0,0.0,0.0,0.0,0.0,0.6991,0.6991,0.7055,0.7065,0.6994,0.6991,0.806,1.0321,1.029,1.1366,1.3647,1.3647,1.2984,1.1671,1.1099,1.0656,1.0298,0.8215,0.778,0.8651,0.7233,0.6586,0.6593,0.6668,0.679,0.6919,0.6919,0.6919,0.6919,0.6919,0.6875,0.6814,0.6814,0.6715,0.6586,0.6586,0.6525,0.6405,0.6405,0.6358,0.63,0.63,0.63,0.63,0.63,0.63,0.63,0.63,0.63,0.63,0.63,0.63,0.63,0.63,0.63,0.63,0.63,0.63,0.63,0.63,0.63,0.63,0.63,0.63,0.63,0.63,0.63,0.63,0.63,0.63,0.63,0.63,0.63,0.63,0.63,0.63,0.63,0.63,0.63,0.6183,0.5993,0.5915,0.5915,0.5911,0.5766,0.5694,0.0,0.0,0.0,0.0,0.0,0.4667,0.0,0.0,0.0,0.5139,0.0,0.0,0.0,0.0,0.0,0.0,0.0,0.0,0.0,0.0,0.0,0.0,0.0,0.0,0.0,0.0,0.6824,0.6839,0.6896,0.6903,0.6846,0.6842,0.7889,1.005,0.9993,1.0957,1.3174,1.3213,1.2725,1.1732,1.1366,1.1203,1.1171,0.8837,0.8351,0.9193,0.7274,0.647,0.648,0.6566,0.6617,0.662,0.6678,0.6702,0.6702,0.6702,0.6681,0.6658,0.6658,0.6559,0.647,0.647,0.6395,0.63,0.63,0.63,0.63,0.63,0.63,0.63,0.63,0.63,0.63,0.63,0.63,0.63,0.63,0.63,0.63,0.63,0.63,0.63,0.63,0.63,0.63,0.63,0.63,0.63,0.63,0.63,0.63,0.63,0.63,0.63,0.63,0.63,0.63,0.63,0.63,0.63,0.63,0.63,0.63,0.63,0.63,0.6169,0.5949,0.5861,0.5786,0.5755,0.5613,0.5545,0.0,0.0,0.0,0.0,0.5701,0.0,0.0,0.0,0.5182,0.4985,0.0,0.0,0.0,0.0,0.0,0.0,0.0,0.0,0.0,0.0,0.0,0.0,0.0,0.0,0.0,0.0,0.0,0.6709,0.6502,0.6468,0.6712,0.6725,0.7706,0.9857,0.9913,1.0957,1.3174,1.3213,1.3034,1.2639,1.167,1.153,1.2048,0.9112,0.8351,0.9183,0.7192,0.6323,0.6323,0.634,0.6351,0.6375,0.66,0.6702,0.6702,0.6702,0.6614,0.6538,0.6538,0.6446,0.6323,0.6323,0.6313,0.63,0.63,0.63,0.63,0.63,0.63,0.63,0.63,0.63,0.63,0.63,0.63,0.63,0.63,0.63,0.63,0.63,0.63,0.63,0.63,0.63,0.63,0.63,0.63,0.63,0.63,0.63,0.63,0.63,0.63,0.63,0.63,0.63,0.63,0.63,0.63,0.63,0.63,0.63,0.63,0.63,0.63,0.6156,0.5827,0.581,0.5735,0.561,0.5491,0.5423,0.0,0.0,0.0,0.0,0.0,0.0,0.542,0.0,0.5216,0.0,0.0,0.0,0.0,0.0,0.0,0.0,0.0,0.0,0.0,0.0,0.0,0.0,0.0,0.0,0.0,0.0,0.0,0.0,0.0,0.6354,0.6477,0.7079,0.8123,0.9632,1.0167,1.115,1.2641,1.2685,1.2619,1.2492,1.2035,1.2008,1.2224,1.0378,0.9437,0.9258,0.8389,0.7706,0.7176,0.7176,0.7176,0.7111,0.667,0.6484,0.6484,0.6484,0.6446,0.6388,0.6388,0.6351,0.63,0.63,0.63,0.63,0.63,0.63,0.63,0.63,0.63,0.63,0.63,0.63,0.63,0.63,0.63,0.63,0.63,0.63,0.63,0.63,0.63,0.63,0.63,0.63,0.63,0.63,0.63,0.63,0.63,0.63,0.63,0.63,0.63,0.63,0.63,0.63,0.63,0.63,0.63,0.63,0.63,0.63,0.63,0.63,0.63,0.6146,0.58,0.58,0.5684,0.5491,0.5426,0.5395,0.6361,0.0,0.0,0.0,0.0,0.0,0.0,0.0,0.0,0.0,0.0,0.0,0.0,0.0,0.0,0.0,0.0,0.0,0.0,0.0,0.0,0.0,0.0,0.0,0.0,0.0,0.0,0.0,0.0,0.0,0.6228,0.725,0.8341,0.9407,1.0317,1.1279,1.2298,1.2305,1.2305,1.2305,1.2305,1.2305,1.2268,1.1279,1.0415,0.9707,0.941,0.8879,0.8199,0.8199,0.8046,0.7744,0.6984,0.6528,0.63,0.63,0.63,0.63,0.63,0.63,0.63,0.63,0.63,0.63,0.63,0.63,0.63,0.63,0.63,0.63,0.63,0.63,0.63,0.63,0.63,0.63,0.63,0.63,0.63,0.63,0.63,0.63,0.63,0.63,0.63,0.63,0.63,0.63,0.63,0.63,0.63,0.63,0.63,0.63,0.63,0.63,0.63,0.63,0.63,0.63,0.63,0.63,0.63,0.63,0.63,0.6166,0.5864,0.5823,0.5671,0.5457,0.5416,0.5395,0.0,0.0,0.0,0.5749,0.0,0.0,0.0,0.0,0.5388,0.0,0.0,0.0,0.0,0.0,0.5046,0.4904,0.0,0.0,0.0,0.0,0.0,0.0,0.0,0.0,0.0,0.0,0.0,0.0,0.0,0.0,0.5969,0.6957,0.8077,0.9263,1.0271,1.1279,1.2298,1.2305,1.2305,1.2305,1.2305,1.2305,1.2268,1.1279,1.0783,1.0708,0.9707,0.9296,0.9258,0.9258,0.8694,0.7783,0.7783,0.7176,0.63,0.63,0.63,0.63,0.63,0.63,0.63,0.63,0.63,0.63,0.63,0.63,0.63,0.63,0.63,0.63,0.63,0.63,0.63,0.63,0.63,0.63,0.63,0.63,0.63,0.63,0.63,0.63,0.63,0.63,0.63,0.63,0.63,0.63,0.63,0.63,0.63,0.63,0.63,0.63,0.63,0.63,0.63,0.63,0.63,0.63,0.63,0.63,0.63,0.63,0.63,0.6183,0.5986,0.5874,0.5725,0.5579,0.5463,0.5395,0.0,0.0,0.6502,0.6006,0.0,0.0,0.0,0.0,0.0,0.0,0.0,0.0,0.0,0.0,0.5052,0.4911,0.4833,0.0,0.0,0.0,0.0,0.0,0.0,0.0,0.0,0.0,0.0,0.0,0.0,0.0,0.0,0.7545,0.8736,0.9143,1.0855,1.1959,1.2305,1.2305,1.2305,1.2305,1.2305,1.2305,1.2298,1.1959,1.1428,1.0815,1.0949,1.0747,1.0291,1.0092,0.9935,0.9658,0.8309,0.7595,0.7215,0.6528,0.63,0.63,0.63,0.63,0.63,0.63,0.63,0.63,0.63,0.6756,0.7292,0.7292,0.7783,0.8275,0.8275,0.8275,0.8275,0.8275,0.8275,0.8084,0.7442,0.7292,0.7292,0.7292,0.7292,0.7292,0.7292,0.7292,0.7061,0.6412,0.63,0.63,0.63,0.63,0.63,0.63,0.63,0.63,0.63,0.63,0.63,0.63,0.63,0.63,0.63,0.63,0.63,0.63,0.63,0.6173,0.5878,0.5827,0.5677,0.547,0.5419,0.5395,0.6542,0.6546,0.0,0.0,0.6023,0.0,0.5634,0.0,0.0,0.0,0.0,0.0,0.0,0.0,0.5069,0.4978,0.4823,0.467,0.0,0.0,0.0,0.0,0.0,0.0,0.0,0.0,0.4769,0.4958,0.0,0.0,0.0,0.0,0.9021,0.9103,1.1181,1.2305,1.2305,1.2305,1.2305,1.2305,1.2305,1.2305,1.2298,1.2191,1.181,1.1199,1.1582,1.1514,1.1199,1.0984,1.0888,1.0634,0.8988,0.8127,0.7668,0.6679,0.63,0.63,0.63,0.63,0.63,0.63,0.63,0.6377,0.6718,0.7288,0.7859,0.8237,0.8803,0.9296,0.9296,0.9296,0.9296,0.9296,0.9296,0.9107,0.8466,0.8351,0.8351,0.8351,0.8351,0.8351,0.8351,0.8351,0.7859,0.649,0.63,0.63,0.63,0.63,0.63,0.63,0.63,0.63,0.63,0.63,0.63,0.63,0.63,0.63,0.63,0.63,0.63,0.63,0.63,0.6173,0.5881,0.5827,0.5677,0.5474,0.5419,0.5395]}]]